[[{"header":{"parameterUnit":"m.s-1","parameterCategory":1,"la1":31.0,"la2":29.5877,"lo1":-88.7671,"lo2":-86.6584,"dy":0.0162,"dx":0.0185,"nx":115,"ny":88,"refTime":"2024-05-10T18:00:00:Z","depth":0,"parameterNumber":2,"parameterNumberName":"U-component_of_WINDS"},"data":[0.0,0.0,0.0,0.0,0.0,0.0,0.0,0.0,0.0,0.0,0.0,0.0,0.0,0.0,0.0,0.0,0.0,0.0,0.0,0.0,0.0,0.0,0.0,0.0,0.0,0.0,0.0,0.0,0.0,0.0,0.0,0.0,0.0,0.0,0.0,0.0,0.0,0.0,0.0,0.0,0.0,0.0,0.0,0.0,0.0,0.0,0.0,0.0,0.0,0.0,0.0,0.0,0.0,0.0,0.0,0.0,0.0,0.0,0.0,0.0,0.0,0.0,0.0,0.0,0.0,0.0,0.0,0.0,0.0,0.0,0.0,0.0,0.0,0.0,0.0,0.0,0.0,0.0,0.0,0.0,0.0,0.0,0.0,0.0,0.0,0.0,0.0,0.0,0.0,0.0,0.0,0.0,0.0,0.0,0.0,0.0,0.0,0.0,0.0,0.0,0.0,0.0,0.0,0.0,0.0,0.0,0.0,0.0,0.0,0.0,0.0,0.0,0.0,0.0,0.0,0.0,0.0,0.0,0.0,0.0,0.0,0.0,0.0,0.0,0.0,0.0,0.0,0.0,0.0,0.0,0.0,0.0,0.0,0.0,0.0,0.0,0.0,0.0,0.0,0.0,0.0,0.0,0.0,0.0,0.0,0.0,0.0,0.0,0.0,0.0,0.0,0.0,0.0,0.0,0.0,0.0,0.0,0.0,0.0,0.0,0.0,0.0,0.0,0.0,0.0,0.0,0.0,0.0,0.0,0.0,0.0,0.0,0.0,0.0,0.0,0.0,0.0,0.0,0.0,0.0,0.0,0.0,0.0,0.0,0.0,0.0,0.0,0.0,0.0,0.0,0.0,0.0,0.0,0.0,0.0,0.0,0.0,0.0,0.0,0.0,0.0,0.0,0.0,0.0,0.0,0.0,0.0,0.0,0.0,0.0,0.0,0.0,0.0,0.0,0.0,0.0,0.0,0.0,0.0,0.0,0.0,0.0,0.0,0.0,0.0,0.0,0.0,0.0,0.0,0.0,0.0,0.0,0.0,0.0,0.0,0.0,0.0,0.0,0.0,0.0,0.0,0.0,0.0,0.0,0.0,0.0,0.0,0.0,0.0,0.0,0.0,0.0,0.0,0.0,0.0,0.0,0.0,0.0,0.0,0.0,0.0,0.0,0.0,0.0,0.0,0.0,0.0,0.0,0.0,0.0,0.0,0.0,0.0,0.0,0.0,0.0,0.0,0.0,0.0,0.0,0.0,0.0,0.0,0.0,0.0,0.0,0.0,0.0,0.0,0.0,0.0,0.0,0.0,0.0,0.0,0.0,0.0,0.0,0.0,0.0,0.0,0.0,0.0,0.0,0.0,0.0,0.0,0.0,0.0,0.0,0.0,0.0,0.0,0.0,0.0,0.0,0.0,0.0,0.0,0.0,0.0,0.0,0.0,0.0,0.0,0.0,0.0,0.0,0.0,0.0,0.0,0.0,0.0,0.0,0.0,0.0,0.0,0.0,0.0,0.0,0.0,0.0,0.0,0.0,0.0,0.0,0.0,0.0,0.0,0.0,0.0,0.0,0.0,0.0,0.0,0.0,0.0,0.0,0.0,0.0,0.0,0.0,0.0,0.0,0.0,0.0,0.0,0.0,0.0,0.0,0.0,0.0,0.0,0.0,0.0,0.0,0.0,0.0,0.0,0.0,0.0,0.0,0.0,0.0,0.0,0.0,0.0,0.0,0.0,0.0,0.0,0.0,0.0,0.0,0.0,0.0,0.0,0.0,0.0,0.0,0.0,0.0,0.0,0.0,0.0,0.0,0.0,0.0,0.0,0.0,0.0,0.0,0.0,0.0,0.0,0.0,0.0,0.0,0.0,0.0,0.0,0.0,0.0,0.0,0.0,0.0,0.0,0.0,0.0,0.0,0.0,0.0,0.0,0.0,0.0,0.0,0.0,0.0,0.0,0.0,0.0,0.0,0.0,0.0,0.0,0.0,0.0,0.0,0.0,0.0,0.0,0.0,0.0,0.0,0.0,0.0,0.0,0.0,0.0,0.0,0.0,0.0,0.0,0.0,0.0,0.0,0.0,0.0,0.0,0.0,0.0,0.0,0.0,0.0,0.0,0.0,0.0,0.0,0.0,0.0,0.0,0.0,0.0,0.0,0.0,0.0,0.0,0.0,0.0,0.0,0.0,0.0,0.0,0.0,0.0,0.0,0.0,0.0,0.0,0.0,0.0,0.0,0.0,0.0,0.0,0.0,0.0,0.0,0.0,0.0,0.0,0.0,0.0,0.0,0.0,0.0,0.0,0.0,0.0,0.0,0.0,0.0,0.0,0.0,0.0,0.0,0.0,0.0,0.0,0.0,0.0,0.0,0.0,0.0,0.0,0.0,0.0,0.0,0.0,0.0,0.0,0.0,0.0,0.0,0.0,0.0,0.0,0.0,0.0,0.0,0.0,0.0,0.0,0.0,0.0,0.0,0.0,0.0,0.0,0.0,0.0,0.0,0.0,0.0,0.0,0.0,0.0,0.0,0.0,0.0,0.0,0.0,0.0,0.0,0.0,0.0,0.0,0.0,0.0,0.0,0.0,0.0,0.0,0.0,0.0,0.0,0.0,0.0,0.0,0.0,0.0,0.0,0.0,0.0,0.0,0.0,0.0,0.0,0.0,0.0,0.0,0.0,0.0,0.0,0.0,0.0,0.0,0.0,0.0,0.0,0.0,0.0,0.0,0.0,0.0,0.0,0.0,0.0,0.0,0.0,0.0,0.0,0.0,0.0,0.0,0.0,0.0,0.0,0.0,0.0,0.0,0.0,0.0,0.0,0.0,0.0,0.0,0.0,0.0,0.0,0.0,0.0,0.0,0.0,0.0,0.0,0.0,0.0,0.0,0.0,0.0,0.0,0.0,0.0,0.0,0.0,0.0,0.0,0.0,0.0,0.0,0.0,0.0,0.0,0.0,0.0,0.0,0.0,0.0,0.0,0.0,0.0,0.0,0.0,0.0,0.0,0.0,0.0,0.0,0.0,0.0,0.0,0.0,0.0,0.0,0.0,0.0,0.0,0.0,0.0,0.0,0.0,0.0,0.0,0.0,0.0,0.0,0.0,0.0,0.0,0.0,0.0,0.0,0.0,0.0,0.0,0.0,0.0,0.0,0.0,0.0,0.0,0.0,0.0,0.0,0.0,0.0,0.0,0.0,0.0,0.0,0.0,0.0,0.0,0.0,0.0,0.0,0.0,0.0,0.0,0.0,0.0,0.0,0.0,0.0,0.0,0.0,0.0,0.0,0.0,0.0,0.0,0.0,0.0,0.0,0.0,0.0,0.0,0.0,0.0,0.0,0.0,0.0,0.0,0.0,0.0,0.0,0.0,0.0,0.0,0.0,0.0,0.0,0.0,0.0,0.0,0.0,0.0,0.0,0.0,0.0,0.0,0.0,0.0,0.0,0.0,0.0,0.0,0.0,0.0,0.0,0.0,0.0,0.0,0.0,0.0,0.0,0.0,0.0,0.0,0.0,0.0,0.0,0.0,0.0,0.0,0.0,0.0,0.0,0.0,0.0,0.0,0.0,0.0,0.0,0.0,0.0,0.0,0.0,0.0,0.0,0.0,0.0,0.0,0.0,0.0,0.0,0.0,0.0,0.0,0.0,0.0,0.0,0.0,0.0,0.0,0.0,0.0,0.0,0.0,0.0,0.0,0.0,0.0,0.0,0.0,0.0,0.0,0.0,0.0,0.0,0.0,0.0,0.0,0.0,0.0,0.0,0.0,0.0,0.0,0.0,0.0,0.0,0.0,0.0,0.0,0.0,0.0,0.0,0.0,0.0,0.0,0.0,0.0,0.0,0.0,0.0,0.0,0.0,0.0,0.0,0.0,0.0,0.0,0.0,0.0,0.0,0.0,0.0,0.0,0.0,0.0,0.0,0.0,0.0,0.0,0.0,0.0,0.0,0.0,0.0,0.0,0.0,0.0,0.0,0.0,0.0,0.0,0.0,0.0,0.0,0.0,0.0,0.0,0.0,0.0,0.0,0.0,0.0,0.0,0.0,0.0,0.0,0.0,0.0,0.0,0.0,0.0,0.0,0.0,0.0,0.0,0.0,0.0,0.0,0.0,0.0,0.0,0.0,0.0,0.0,0.0,0.0,0.0,0.0,0.0,0.0,0.0,0.0,0.0,0.0,0.0,0.0,0.0,0.0,0.0,0.0,0.0,0.0,0.0,0.0,0.0,0.0,0.0,0.0,0.0,0.0,0.0,0.0,0.0,0.0,0.0,0.0,0.0,0.0,0.0,-2.9427,0.0,0.0,0.0,0.0,0.0,0.0,0.0,0.0,0.0,0.0,0.0,0.0,0.0,0.0,0.0,0.0,0.0,0.0,0.0,0.0,0.0,0.0,0.0,0.0,0.0,0.0,0.0,0.0,0.0,0.0,0.0,0.0,0.0,0.0,0.0,0.0,0.0,0.0,0.0,0.0,0.0,0.0,0.0,0.0,0.0,0.0,0.0,0.0,0.0,0.0,0.0,0.0,0.0,0.0,0.0,0.0,0.0,0.0,0.0,0.0,0.0,0.0,0.0,0.0,0.0,0.0,0.0,0.0,0.0,0.0,0.0,0.0,0.0,0.0,0.0,0.0,0.0,0.0,0.0,0.0,0.0,0.0,0.0,0.0,0.0,0.0,0.0,0.0,0.0,0.0,0.0,0.0,0.0,0.0,0.0,0.0,0.0,0.0,0.0,0.0,0.0,0.0,0.0,0.0,0.0,0.0,0.0,0.0,0.0,0.0,-2.9654,-2.9608,-2.9671,-2.9654,-2.9471,0.0,0.0,0.0,0.0,0.0,0.0,0.0,0.0,0.0,0.0,0.0,0.0,0.0,0.0,0.0,0.0,0.0,0.0,0.0,0.0,0.0,0.0,0.0,0.0,0.0,0.0,0.0,0.0,0.0,0.0,0.0,0.0,0.0,0.0,0.0,0.0,0.0,0.0,0.0,0.0,0.0,0.0,0.0,0.0,0.0,0.0,0.0,0.0,0.0,0.0,0.0,0.0,0.0,0.0,0.0,0.0,0.0,0.0,0.0,0.0,0.0,0.0,0.0,0.0,0.0,0.0,0.0,0.0,0.0,0.0,0.0,0.0,0.0,0.0,0.0,0.0,0.0,0.0,0.0,0.0,0.0,0.0,0.0,0.0,0.0,0.0,0.0,0.0,0.0,0.0,0.0,0.0,0.0,0.0,0.0,0.0,0.0,0.0,0.0,0.0,0.0,0.0,0.0,0.0,0.0,0.0,0.0,0.0,0.0,0.0,0.0,0.0,-3.0441,-3.04,-3.0199,0.0,0.0,0.0,0.0,0.0,0.0,0.0,0.0,0.0,0.0,0.0,0.0,0.0,0.0,0.0,0.0,0.0,0.0,0.0,0.0,0.0,0.0,0.0,0.0,0.0,0.0,0.0,0.0,0.0,0.0,0.0,0.0,0.0,0.0,0.0,0.0,0.0,0.0,0.0,0.0,0.0,0.0,0.0,0.0,0.0,0.0,0.0,0.0,0.0,0.0,0.0,0.0,0.0,0.0,0.0,0.0,0.0,0.0,0.0,0.0,0.0,0.0,0.0,0.0,0.0,0.0,0.0,0.0,0.0,0.0,0.0,0.0,0.0,0.0,0.0,0.0,0.0,0.0,0.0,0.0,0.0,0.0,0.0,0.0,0.0,0.0,0.0,0.0,0.0,0.0,0.0,0.0,0.0,0.0,0.0,0.0,0.0,0.0,0.0,0.0,0.0,0.0,0.0,0.0,0.0,0.0,0.0,0.0,0.0,0.0,-3.2333,-3.2495,-3.234,0.0,-3.223,0.0,0.0,0.0,0.0,0.0,0.0,0.0,0.0,0.0,0.0,0.0,0.0,0.0,0.0,0.0,0.0,0.0,0.0,0.0,0.0,0.0,0.0,0.0,0.0,0.0,0.0,0.0,0.0,0.0,0.0,0.0,0.0,0.0,0.0,0.0,0.0,0.0,0.0,0.0,0.0,0.0,0.0,0.0,0.0,0.0,0.0,0.0,0.0,0.0,0.0,0.0,0.0,0.0,0.0,0.0,0.0,0.0,0.0,0.0,0.0,0.0,0.0,0.0,0.0,0.0,0.0,0.0,0.0,0.0,0.0,0.0,0.0,0.0,0.0,0.0,0.0,0.0,0.0,0.0,0.0,0.0,0.0,0.0,0.0,0.0,0.0,0.0,0.0,0.0,0.0,0.0,0.0,0.0,0.0,0.0,0.0,0.0,0.0,0.0,0.0,0.0,0.0,0.0,0.0,0.0,0.0,0.0,0.0,0.0,0.0,-3.276,-3.2668,-3.2553,-3.2549,0.0,0.0,0.0,0.0,0.0,0.0,0.0,0.0,0.0,0.0,0.0,0.0,0.0,0.0,0.0,0.0,0.0,0.0,0.0,0.0,0.0,0.0,0.0,0.0,0.0,0.0,0.0,0.0,0.0,0.0,0.0,0.0,0.0,0.0,0.0,0.0,0.0,0.0,0.0,0.0,0.0,0.0,0.0,0.0,0.0,0.0,0.0,0.0,0.0,0.0,0.0,0.0,0.0,0.0,0.0,0.0,0.0,0.0,0.0,0.0,0.0,0.0,0.0,0.0,0.0,0.0,0.0,0.0,0.0,0.0,0.0,0.0,0.0,0.0,0.0,0.0,0.0,0.0,0.0,0.0,0.0,0.0,0.0,0.0,0.0,0.0,0.0,0.0,0.0,0.0,0.0,0.0,0.0,0.0,0.0,0.0,0.0,0.0,0.0,0.0,0.0,0.0,0.0,0.0,0.0,0.0,0.0,0.0,0.0,0.0,-3.3677,-3.3577,-3.3345,-3.3301,-3.3372,-3.3545,0.0,0.0,0.0,0.0,0.0,0.0,0.0,0.0,0.0,0.0,0.0,0.0,0.0,0.0,0.0,0.0,0.0,0.0,0.0,0.0,0.0,0.0,0.0,0.0,0.0,0.0,0.0,0.0,0.0,0.0,0.0,0.0,0.0,0.0,0.0,0.0,0.0,0.0,0.0,0.0,0.0,0.0,0.0,0.0,0.0,0.0,0.0,0.0,0.0,0.0,0.0,0.0,0.0,0.0,0.0,0.0,0.0,0.0,0.0,0.0,0.0,0.0,0.0,0.0,0.0,0.0,0.0,0.0,0.0,0.0,0.0,0.0,0.0,0.0,0.0,0.0,0.0,0.0,0.0,0.0,0.0,0.0,0.0,0.0,0.0,0.0,0.0,0.0,0.0,0.0,0.0,0.0,0.0,0.0,0.0,0.0,0.0,0.0,0.0,0.0,0.0,0.0,0.0,0.0,0.0,0.0,0.0,0.0,-3.527,-3.5323,-3.5321,-3.5155,-3.5166,-3.5244,0.0,0.0,0.0,0.0,0.0,0.0,0.0,0.0,0.0,0.0,0.0,0.0,0.0,0.0,0.0,0.0,0.0,0.0,0.0,0.0,0.0,0.0,0.0,0.0,0.0,0.0,0.0,0.0,0.0,0.0,0.0,0.0,0.0,0.0,0.0,0.0,0.0,0.0,0.0,0.0,0.0,0.0,0.0,0.0,0.0,0.0,0.0,0.0,0.0,0.0,0.0,0.0,0.0,0.0,0.0,0.0,0.0,0.0,0.0,0.0,0.0,0.0,0.0,0.0,0.0,0.0,0.0,0.0,0.0,0.0,0.0,0.0,0.0,0.0,0.0,0.0,0.0,0.0,0.0,0.0,0.0,0.0,0.0,0.0,0.0,0.0,0.0,0.0,0.0,0.0,0.0,0.0,0.0,0.0,0.0,0.0,0.0,0.0,0.0,0.0,0.0,0.0,0.0,0.0,0.0,0.0,0.0,0.0,0.0,-3.5514,-3.5522,-3.5502,-3.554,-3.5388,-3.5367,0.0,0.0,0.0,0.0,0.0,0.0,0.0,0.0,0.0,0.0,0.0,0.0,0.0,0.0,0.0,0.0,0.0,0.0,0.0,0.0,0.0,0.0,0.0,0.0,0.0,0.0,0.0,0.0,0.0,0.0,0.0,0.0,0.0,0.0,0.0,0.0,0.0,0.0,0.0,0.0,0.0,0.0,0.0,0.0,0.0,0.0,0.0,0.0,0.0,0.0,0.0,0.0,0.0,0.0,0.0,0.0,0.0,0.0,0.0,0.0,0.0,0.0,0.0,0.0,0.0,0.0,0.0,0.0,0.0,0.0,0.0,0.0,0.0,0.0,0.0,0.0,0.0,0.0,0.0,0.0,0.0,0.0,0.0,0.0,0.0,0.0,0.0,0.0,0.0,0.0,0.0,0.0,0.0,0.0,0.0,0.0,0.0,0.0,0.0,0.0,0.0,0.0,0.0,0.0,0.0,0.0,0.0,0.0,0.0,-3.5571,0.0,-3.547,-3.5566,-3.543,-3.5409,0.0,0.0,0.0,0.0,0.0,0.0,0.0,0.0,0.0,0.0,0.0,0.0,0.0,0.0,0.0,0.0,0.0,0.0,0.0,0.0,0.0,0.0,0.0,0.0,0.0,0.0,0.0,0.0,0.0,0.0,0.0,0.0,0.0,0.0,0.0,0.0,0.0,0.0,0.0,0.0,0.0,0.0,0.0,0.0,0.0,0.0,0.0,0.0,0.0,0.0,0.0,0.0,0.0,0.0,0.0,0.0,0.0,0.0,0.0,0.0,0.0,0.0,0.0,0.0,0.0,0.0,0.0,0.0,0.0,0.0,0.0,0.0,0.0,0.0,0.0,0.0,0.0,0.0,0.0,0.0,0.0,0.0,0.0,0.0,0.0,0.0,0.0,0.0,0.0,0.0,0.0,0.0,0.0,0.0,0.0,0.0,0.0,0.0,0.0,0.0,0.0,0.0,0.0,0.0,0.0,0.0,0.0,0.0,-3.5645,-3.5515,-3.5388,-3.5319,-3.5304,-3.5437,-3.549,0.0,0.0,0.0,0.0,0.0,0.0,0.0,0.0,0.0,0.0,0.0,0.0,0.0,0.0,0.0,0.0,0.0,0.0,0.0,0.0,0.0,0.0,0.0,0.0,0.0,0.0,0.0,0.0,0.0,0.0,0.0,0.0,0.0,0.0,0.0,0.0,0.0,0.0,0.0,0.0,0.0,0.0,0.0,0.0,0.0,0.0,0.0,0.0,0.0,0.0,0.0,0.0,0.0,0.0,0.0,0.0,0.0,0.0,0.0,0.0,0.0,0.0,0.0,0.0,0.0,0.0,0.0,0.0,0.0,0.0,0.0,0.0,0.0,0.0,0.0,0.0,0.0,0.0,0.0,0.0,0.0,0.0,0.0,0.0,0.0,0.0,0.0,0.0,0.0,0.0,0.0,0.0,0.0,0.0,0.0,0.0,0.0,0.0,0.0,0.0,0.0,0.0,0.0,0.0,0.0,0.0,0.0,0.0,0.0,-3.5623,-3.5601,-3.5558,-3.5579,-3.5527,-3.549,0.0,0.0,0.0,0.0,0.0,0.0,0.0,0.0,0.0,0.0,0.0,0.0,0.0,0.0,0.0,0.0,0.0,0.0,0.0,0.0,0.0,0.0,0.0,0.0,0.0,0.0,0.0,0.0,0.0,0.0,0.0,0.0,0.0,0.0,0.0,0.0,0.0,0.0,0.0,0.0,0.0,0.0,0.0,0.0,0.0,0.0,0.0,0.0,0.0,0.0,0.0,0.0,0.0,0.0,0.0,0.0,0.0,0.0,0.0,0.0,0.0,0.0,0.0,0.0,0.0,0.0,0.0,0.0,0.0,0.0,0.0,0.0,0.0,0.0,0.0,0.0,0.0,0.0,0.0,0.0,0.0,0.0,0.0,0.0,0.0,0.0,0.0,0.0,0.0,0.0,0.0,0.0,0.0,0.0,0.0,0.0,0.0,0.0,0.0,0.0,0.0,0.0,0.0,0.0,0.0,0.0,0.0,0.0,0.0,-3.6653,-3.6046,-3.5706,-3.5713,-3.5612,-3.5565,-3.5584,0.0,0.0,0.0,0.0,0.0,0.0,0.0,0.0,0.0,0.0,0.0,0.0,0.0,0.0,0.0,0.0,0.0,0.0,0.0,0.0,0.0,0.0,0.0,0.0,0.0,0.0,0.0,0.0,0.0,0.0,0.0,0.0,0.0,0.0,0.0,0.0,0.0,0.0,0.0,0.0,0.0,0.0,0.0,0.0,0.0,0.0,0.0,0.0,0.0,0.0,0.0,0.0,0.0,0.0,0.0,0.0,0.0,0.0,0.0,0.0,0.0,0.0,0.0,0.0,0.0,0.0,0.0,0.0,0.0,0.0,0.0,0.0,0.0,0.0,0.0,0.0,0.0,0.0,0.0,0.0,0.0,0.0,0.0,0.0,0.0,0.0,0.0,0.0,0.0,0.0,0.0,0.0,0.0,0.0,0.0,0.0,0.0,0.0,0.0,0.0,0.0,0.0,0.0,0.0,0.0,0.0,0.0,0.0,-3.8359,-3.6723,-3.5845,-3.5787,-3.5845,-3.5781,0.0,0.0,0.0,0.0,0.0,0.0,0.0,0.0,0.0,0.0,0.0,0.0,0.0,0.0,0.0,0.0,0.0,0.0,0.0,0.0,0.0,0.0,0.0,0.0,0.0,0.0,0.0,0.0,0.0,0.0,0.0,0.0,0.0,0.0,0.0,0.0,0.0,0.0,0.0,0.0,0.0,0.0,0.0,0.0,0.0,0.0,0.0,0.0,0.0,0.0,0.0,0.0,0.0,0.0,0.0,0.0,0.0,0.0,0.0,0.0,0.0,0.0,0.0,0.0,0.0,0.0,0.0,0.0,0.0,0.0,0.0,0.0,0.0,0.0,0.0,0.0,0.0,0.0,0.0,0.0,0.0,0.0,0.0,0.0,0.0,0.0,0.0,0.0,0.0,0.0,0.0,0.0,0.0,0.0,0.0,0.0,0.0,0.0,0.0,0.0,0.0,0.0,0.0,0.0,0.0,0.0,0.0,0.0,0.0,-3.9118,-3.8114,-3.7268,-3.6705,-3.7249,-3.6961,0.0,0.0,0.0,0.0,0.0,0.0,0.0,0.0,0.0,0.0,0.0,0.0,0.0,0.0,0.0,0.0,0.0,0.0,0.0,0.0,0.0,0.0,0.0,0.0,0.0,0.0,0.0,0.0,0.0,0.0,0.0,0.0,0.0,0.0,0.0,0.0,0.0,0.0,0.0,0.0,0.0,0.0,0.0,0.0,0.0,0.0,0.0,0.0,0.0,0.0,0.0,0.0,0.0,0.0,0.0,0.0,0.0,0.0,0.0,0.0,0.0,0.0,0.0,0.0,0.0,0.0,0.0,0.0,0.0,0.0,0.0,0.0,0.0,0.0,0.0,0.0,0.0,0.0,0.0,0.0,0.0,0.0,0.0,0.0,0.0,0.0,0.0,0.0,0.0,0.0,0.0,0.0,0.0,0.0,0.0,0.0,0.0,0.0,0.0,0.0,0.0,0.0,0.0,0.0,0.0,0.0,0.0,0.0,-3.9524,-4.0023,-3.9572,-3.8887,-3.8089,-3.8158,-3.7765,0.0,0.0,0.0,0.0,0.0,0.0,0.0,0.0,0.0,0.0,0.0,0.0,0.0,0.0,0.0,0.0,0.0,0.0,0.0,0.0,0.0,0.0,0.0,0.0,0.0,0.0,0.0,0.0,0.0,0.0,0.0,0.0,0.0,0.0,0.0,0.0,0.0,0.0,0.0,0.0,0.0,0.0,0.0,0.0,0.0,0.0,0.0,0.0,0.0,0.0,0.0,0.0,0.0,0.0,0.0,0.0,0.0,0.0,0.0,0.0,0.0,0.0,0.0,0.0,0.0,0.0,0.0,0.0,0.0,0.0,0.0,0.0,0.0,0.0,0.0,0.0,0.0,0.0,0.0,0.0,0.0,0.0,0.0,0.0,0.0,0.0,0.0,0.0,0.0,0.0,0.0,0.0,0.0,0.0,0.0,0.0,0.0,0.0,0.0,0.0,0.0,0.0,0.0,0.0,0.0,0.0,0.0,0.0,-4.0792,-4.0797,-4.0797,-4.0429,-3.9655,-3.8876,-3.8415,0.0,0.0,0.0,0.0,0.0,0.0,0.0,0.0,0.0,0.0,0.0,0.0,0.0,0.0,0.0,0.0,0.0,0.0,0.0,0.0,0.0,0.0,0.0,0.0,0.0,0.0,0.0,0.0,0.0,0.0,0.0,0.0,0.0,0.0,0.0,0.0,0.0,0.0,0.0,0.0,0.0,0.0,0.0,0.0,0.0,0.0,0.0,0.0,0.0,0.0,0.0,0.0,0.0,0.0,0.0,0.0,0.0,0.0,0.0,0.0,0.0,0.0,0.0,0.0,0.0,0.0,0.0,0.0,0.0,0.0,0.0,0.0,0.0,0.0,0.0,0.0,0.0,0.0,0.0,0.0,0.0,0.0,0.0,0.0,0.0,0.0,0.0,0.0,0.0,0.0,0.0,0.0,0.0,0.0,0.0,0.0,0.0,0.0,0.0,0.0,0.0,0.0,0.0,0.0,0.0,0.0,0.0,0.0,-4.0809,-4.0797,-4.0797,-4.0719,-4.0526,-4.0352,-3.9621,0.0,0.0,0.0,0.0,0.0,0.0,0.0,0.0,0.0,0.0,0.0,0.0,0.0,0.0,0.0,0.0,0.0,0.0,0.0,0.0,0.0,0.0,0.0,0.0,0.0,0.0,0.0,0.0,0.0,0.0,0.0,0.0,0.0,0.0,0.0,0.0,0.0,0.0,0.0,0.0,0.0,0.0,0.0,0.0,0.0,0.0,0.0,0.0,-3.1607,0.0,0.0,0.0,0.0,0.0,0.0,0.0,0.0,0.0,0.0,0.0,0.0,0.0,0.0,0.0,0.0,0.0,0.0,0.0,0.0,0.0,0.0,0.0,0.0,0.0,0.0,0.0,0.0,0.0,0.0,0.0,0.0,0.0,0.0,0.0,0.0,0.0,0.0,0.0,0.0,0.0,0.0,0.0,0.0,0.0,0.0,0.0,0.0,0.0,0.0,0.0,0.0,0.0,0.0,0.0,0.0,0.0,0.0,0.0,-4.0808,-4.0797,-4.0797,-4.0797,-4.0797,-4.0797,-4.0394,0.0,0.0,0.0,0.0,0.0,0.0,0.0,0.0,0.0,0.0,0.0,0.0,0.0,0.0,0.0,0.0,0.0,0.0,0.0,0.0,0.0,0.0,0.0,0.0,0.0,0.0,0.0,0.0,0.0,0.0,0.0,0.0,0.0,0.0,0.0,0.0,0.0,0.0,0.0,0.0,0.0,0.0,0.0,0.0,0.0,0.0,0.0,0.0,0.0,0.0,0.0,0.0,0.0,0.0,0.0,0.0,0.0,0.0,0.0,0.0,0.0,0.0,0.0,0.0,0.0,0.0,0.0,0.0,0.0,0.0,0.0,0.0,0.0,0.0,0.0,0.0,0.0,0.0,0.0,0.0,0.0,0.0,0.0,0.0,0.0,0.0,0.0,0.0,0.0,0.0,0.0,0.0,0.0,0.0,0.0,0.0,0.0,0.0,0.0,0.0,0.0,0.0,0.0,0.0,0.0,0.0,0.0,-4.0793,-4.0798,-4.0797,-4.0797,-4.0797,-4.0797,-4.0797,-4.0837,-4.0882,0.0,0.0,0.0,0.0,0.0,0.0,0.0,0.0,0.0,0.0,0.0,0.0,0.0,0.0,0.0,0.0,0.0,0.0,0.0,0.0,0.0,0.0,0.0,0.0,0.0,0.0,0.0,0.0,0.0,0.0,0.0,0.0,0.0,0.0,0.0,0.0,0.0,0.0,-3.3109,-3.2908,0.0,0.0,0.0,0.0,0.0,0.0,0.0,0.0,-3.2092,0.0,0.0,0.0,0.0,0.0,0.0,0.0,0.0,0.0,0.0,0.0,0.0,0.0,0.0,0.0,0.0,0.0,0.0,0.0,0.0,0.0,0.0,0.0,0.0,0.0,0.0,0.0,0.0,0.0,0.0,0.0,0.0,0.0,0.0,0.0,0.0,0.0,0.0,0.0,0.0,0.0,0.0,0.0,0.0,0.0,0.0,0.0,0.0,0.0,0.0,0.0,0.0,0.0,0.0,0.0,0.0,-4.0814,-4.0805,-4.0798,-4.0797,-4.0797,-4.0797,-4.0797,-4.0797,-4.0832,-4.0902,0.0,0.0,0.0,0.0,0.0,0.0,0.0,0.0,0.0,0.0,0.0,0.0,0.0,0.0,0.0,0.0,0.0,0.0,0.0,0.0,0.0,0.0,0.0,0.0,0.0,0.0,0.0,0.0,0.0,0.0,0.0,0.0,0.0,0.0,0.0,0.0,0.0,0.0,0.0,-3.2908,-3.2716,0.0,0.0,0.0,0.0,0.0,0.0,0.0,0.0,-3.1986,0.0,0.0,0.0,0.0,0.0,0.0,0.0,0.0,0.0,0.0,0.0,0.0,0.0,0.0,0.0,0.0,0.0,0.0,0.0,0.0,0.0,0.0,0.0,0.0,0.0,0.0,0.0,0.0,0.0,0.0,0.0,0.0,0.0,0.0,0.0,0.0,0.0,0.0,0.0,0.0,0.0,0.0,0.0,0.0,0.0,0.0,0.0,0.0,0.0,0.0,0.0,0.0,0.0,0.0,0.0,-4.0856,-4.0819,-4.0818,-4.0851,-4.087,-4.0851,-4.0851,-4.0851,-4.0854,0.0,0.0,0.0,0.0,0.0,0.0,0.0,0.0,0.0,0.0,0.0,0.0,0.0,0.0,0.0,0.0,0.0,0.0,0.0,0.0,0.0,0.0,0.0,0.0,0.0,0.0,0.0,0.0,0.0,0.0,0.0,0.0,0.0,0.0,0.0,0.0,0.0,0.0,0.0,0.0,-3.2749,-3.2745,-3.3222,0.0,0.0,0.0,0.0,0.0,0.0,-3.2021,-3.1897,0.0,0.0,0.0,0.0,0.0,0.0,0.0,0.0,0.0,0.0,0.0,0.0,0.0,0.0,0.0,0.0,0.0,0.0,0.0,0.0,0.0,0.0,0.0,0.0,0.0,0.0,0.0,0.0,0.0,0.0,0.0,0.0,0.0,0.0,0.0,0.0,0.0,0.0,0.0,0.0,0.0,0.0,0.0,0.0,0.0,0.0,0.0,0.0,0.0,0.0,0.0,0.0,0.0,0.0,0.0,-4.1429,-4.1354,-4.138,-4.1412,-4.1416,-4.1347,-4.1153,-4.1172,-4.1077,0.0,0.0,0.0,0.0,0.0,0.0,0.0,0.0,0.0,0.0,0.0,0.0,0.0,0.0,0.0,0.0,0.0,0.0,0.0,0.0,0.0,0.0,0.0,0.0,0.0,0.0,0.0,0.0,0.0,0.0,0.0,0.0,0.0,0.0,0.0,0.0,0.0,0.0,0.0,0.0,0.0,-3.2854,-3.3407,-3.3045,0.0,0.0,0.0,0.0,-3.2213,-3.2092,0.0,0.0,0.0,0.0,0.0,0.0,0.0,0.0,0.0,0.0,0.0,0.0,0.0,0.0,0.0,0.0,0.0,0.0,0.0,0.0,0.0,0.0,0.0,0.0,0.0,0.0,0.0,0.0,0.0,0.0,0.0,0.0,0.0,0.0,0.0,0.0,0.0,0.0,0.0,0.0,0.0,0.0,0.0,0.0,0.0,0.0,0.0,0.0,0.0,0.0,0.0,0.0,0.0,0.0,0.0,0.0,-4.3173,-4.3202,-4.3179,-4.3117,-4.3175,-4.2841,-4.2078,-4.2055,-4.171,0.0,0.0,0.0,0.0,0.0,0.0,0.0,0.0,0.0,0.0,0.0,0.0,0.0,0.0,0.0,0.0,0.0,0.0,0.0,0.0,0.0,0.0,0.0,0.0,0.0,0.0,0.0,0.0,0.0,0.0,0.0,0.0,0.0,0.0,0.0,0.0,0.0,0.0,0.0,0.0,0.0,-3.3108,-3.286,-3.2766,-3.2684,0.0,0.0,-3.2716,-3.3032,-3.2813,0.0,0.0,0.0,0.0,0.0,0.0,0.0,0.0,0.0,0.0,0.0,0.0,0.0,0.0,0.0,0.0,0.0,0.0,0.0,0.0,0.0,0.0,0.0,0.0,0.0,0.0,0.0,0.0,0.0,0.0,0.0,0.0,0.0,0.0,0.0,0.0,0.0,0.0,0.0,0.0,0.0,0.0,0.0,0.0,0.0,0.0,0.0,0.0,0.0,0.0,0.0,0.0,0.0,0.0,0.0,-4.317,-4.353,-4.3493,-4.3455,-4.3506,-4.3553,-4.339,-4.2997,-4.2529,-4.2098,0.0,0.0,0.0,0.0,0.0,0.0,0.0,0.0,0.0,0.0,0.0,0.0,0.0,0.0,0.0,0.0,0.0,0.0,0.0,0.0,0.0,0.0,0.0,0.0,0.0,0.0,0.0,0.0,0.0,0.0,0.0,0.0,0.0,0.0,0.0,0.0,0.0,0.0,0.0,0.0,0.0,0.0,-3.3153,-3.2939,0.0,0.0,0.0,-3.2634,-3.2777,0.0,0.0,0.0,0.0,0.0,0.0,0.0,0.0,0.0,0.0,0.0,0.0,0.0,0.0,0.0,0.0,0.0,0.0,0.0,0.0,0.0,0.0,0.0,0.0,0.0,0.0,0.0,0.0,0.0,0.0,0.0,0.0,0.0,0.0,0.0,0.0,0.0,0.0,0.0,0.0,0.0,0.0,0.0,0.0,0.0,0.0,0.0,0.0,0.0,0.0,0.0,0.0,0.0,0.0,0.0,0.0,0.0,-4.4231,-4.4153,-4.4153,-4.4252,-4.4261,-4.4167,-4.3952,-4.3327,0.0,0.0,0.0,0.0,0.0,0.0,0.0,0.0,0.0,0.0,0.0,0.0,0.0,0.0,0.0,0.0,0.0,0.0,0.0,0.0,0.0,0.0,0.0,0.0,0.0,0.0,0.0,-3.1722,0.0,0.0,0.0,0.0,0.0,0.0,0.0,0.0,0.0,0.0,0.0,0.0,0.0,0.0,-3.3057,-3.3381,-3.3161,-3.3135,0.0,0.0,-3.2713,-3.2791,-3.3029,-3.2993,0.0,0.0,0.0,0.0,0.0,0.0,0.0,0.0,0.0,0.0,0.0,0.0,0.0,0.0,0.0,0.0,0.0,0.0,0.0,0.0,0.0,0.0,0.0,0.0,0.0,0.0,0.0,0.0,0.0,0.0,0.0,0.0,0.0,0.0,0.0,0.0,0.0,0.0,0.0,0.0,0.0,0.0,0.0,0.0,0.0,0.0,0.0,0.0,0.0,0.0,0.0,0.0,0.0,0.0,0.0,-4.5989,-4.6012,-4.5982,-4.6009,-4.609,-4.5722,-4.4941,-4.4844,-4.4414,0.0,0.0,0.0,0.0,0.0,0.0,0.0,0.0,0.0,0.0,0.0,0.0,0.0,0.0,0.0,0.0,0.0,0.0,0.0,0.0,0.0,0.0,0.0,0.0,0.0,0.0,0.0,0.0,0.0,0.0,0.0,0.0,0.0,0.0,0.0,0.0,0.0,0.0,0.0,0.0,0.0,-3.2842,-3.3166,-3.3214,-3.3314,0.0,0.0,-3.3273,-3.3666,-3.3426,-3.3268,-3.3438,0.0,0.0,0.0,0.0,0.0,0.0,0.0,0.0,0.0,0.0,0.0,0.0,0.0,0.0,0.0,0.0,0.0,0.0,0.0,0.0,0.0,0.0,0.0,0.0,0.0,0.0,0.0,0.0,0.0,0.0,0.0,0.0,0.0,0.0,0.0,0.0,0.0,0.0,0.0,0.0,0.0,0.0,0.0,0.0,0.0,0.0,0.0,0.0,0.0,0.0,0.0,0.0,0.0,-4.5896,-4.6269,-4.62,-4.6212,-4.6265,-4.6289,-4.6152,-4.582,-4.5273,-4.4843,0.0,0.0,0.0,0.0,0.0,0.0,0.0,0.0,0.0,0.0,0.0,0.0,0.0,0.0,0.0,0.0,0.0,0.0,0.0,0.0,0.0,0.0,0.0,0.0,0.0,0.0,0.0,0.0,-3.3508,-3.3829,-3.3707,0.0,0.0,0.0,0.0,0.0,0.0,0.0,0.0,0.0,0.0,-3.3653,-3.3423,-3.3515,0.0,0.0,-3.3884,-3.4075,-3.4472,-3.4582,-3.4543,-3.4392,-3.3717,0.0,0.0,0.0,0.0,0.0,0.0,0.0,0.0,0.0,0.0,0.0,0.0,0.0,0.0,0.0,0.0,0.0,0.0,0.0,0.0,0.0,0.0,0.0,0.0,0.0,0.0,0.0,0.0,0.0,0.0,0.0,0.0,0.0,0.0,0.0,0.0,0.0,0.0,0.0,0.0,0.0,0.0,0.0,0.0,0.0,0.0,0.0,0.0,0.0,0.0,0.0,0.0,-4.625,-4.6302,-4.6248,-4.6263,-4.6289,-4.6289,-4.6289,-4.6289,-4.5703,-4.539,0.0,0.0,0.0,0.0,0.0,0.0,0.0,0.0,0.0,0.0,0.0,0.0,0.0,0.0,0.0,0.0,0.0,0.0,0.0,0.0,0.0,0.0,0.0,0.0,0.0,0.0,0.0,0.0,-3.4039,-3.4244,-3.4099,0.0,0.0,0.0,0.0,0.0,0.0,0.0,0.0,0.0,0.0,-3.4389,-3.4129,-3.4246,-3.4376,-3.4333,-3.44,-3.4589,-3.4869,-3.5216,-3.5371,-3.5173,0.0,0.0,0.0,0.0,0.0,0.0,0.0,0.0,0.0,0.0,0.0,0.0,0.0,0.0,0.0,0.0,0.0,0.0,0.0,0.0,0.0,0.0,0.0,0.0,0.0,0.0,0.0,0.0,0.0,0.0,-4.0523,0.0,0.0,0.0,0.0,0.0,0.0,0.0,0.0,0.0,0.0,0.0,0.0,0.0,0.0,0.0,0.0,0.0,0.0,0.0,0.0,0.0,0.0,-4.6302,-4.6301,-4.6288,-4.6289,-4.6289,-4.6289,-4.6289,-4.6289,-4.6269,-4.6269,-4.6248,0.0,0.0,0.0,0.0,0.0,0.0,0.0,0.0,0.0,0.0,0.0,0.0,0.0,0.0,0.0,0.0,0.0,0.0,0.0,0.0,0.0,0.0,0.0,0.0,0.0,0.0,-3.4441,-3.4087,-3.3815,0.0,0.0,0.0,0.0,0.0,0.0,0.0,0.0,0.0,0.0,-3.4365,-3.4876,-3.5286,-3.5425,-3.5451,-3.5455,-3.5043,-3.473,-3.4801,-3.5149,-3.5519,0.0,0.0,0.0,0.0,0.0,0.0,0.0,0.0,0.0,0.0,0.0,0.0,0.0,0.0,0.0,0.0,0.0,0.0,0.0,0.0,0.0,0.0,0.0,0.0,0.0,0.0,0.0,-4.2223,-4.2178,0.0,0.0,0.0,0.0,0.0,0.0,0.0,0.0,0.0,0.0,0.0,-4.4116,-4.481,0.0,0.0,0.0,0.0,0.0,0.0,0.0,0.0,0.0,0.0,0.0,0.0,-4.6301,-4.6302,-4.6288,-4.6289,-4.6289,-4.6289,-4.6289,-4.6289,-4.6289,-4.6289,-4.6287,0.0,0.0,0.0,0.0,0.0,0.0,0.0,0.0,0.0,0.0,0.0,0.0,0.0,0.0,0.0,0.0,0.0,0.0,0.0,0.0,0.0,0.0,0.0,0.0,0.0,-3.4442,0.0,0.0,0.0,0.0,0.0,0.0,0.0,0.0,0.0,0.0,0.0,-3.4444,-3.4672,-3.554,-3.6167,-3.619,-3.6214,-3.6189,0.0,0.0,0.0,0.0,0.0,0.0,0.0,0.0,0.0,0.0,0.0,0.0,0.0,0.0,-3.5028,-3.264,-3.2013,-3.1965,-3.2273,0.0,0.0,0.0,0.0,0.0,0.0,0.0,0.0,0.0,0.0,0.0,0.0,0.0,0.0,0.0,0.0,-4.3055,0.0,0.0,0.0,0.0,0.0,0.0,0.0,0.0,-4.4699,-4.495,-4.4954,-4.5628,-4.5939,0.0,-4.6031,-4.5816,0.0,0.0,0.0,0.0,0.0,0.0,0.0,0.0,-4.6302,-4.6304,-4.6288,-4.6289,-4.6289,-4.6289,-4.6289,-4.6289,-4.6289,-4.6289,-4.6288,-4.5741,-4.531,0.0,0.0,0.0,0.0,0.0,0.0,0.0,0.0,0.0,0.0,0.0,0.0,0.0,0.0,0.0,0.0,0.0,0.0,0.0,0.0,0.0,0.0,0.0,-3.4475,0.0,0.0,0.0,0.0,0.0,0.0,0.0,0.0,0.0,-3.4781,-3.5286,-3.5758,-3.5849,-3.6646,-3.7175,-3.7045,0.0,0.0,0.0,0.0,0.0,0.0,0.0,-3.7487,-3.7721,-3.7358,-3.6921,-3.6597,-3.656,-3.6474,-3.6131,0.0,0.0,-3.3857,-3.3274,-3.3214,-3.3509,-3.3127,-3.3023,-3.3784,-3.3688,-3.3363,0.0,0.0,0.0,0.0,0.0,0.0,0.0,0.0,-4.3087,-4.3133,0.0,-4.3203,0.0,0.0,0.0,0.0,0.0,-4.5685,0.0,0.0,-4.5673,-4.5708,-4.5696,-4.5759,-4.5807,-4.5814,-4.5941,-4.5997,-4.5968,-4.6057,0.0,0.0,0.0,0.0,0.0,0.0,-4.6304,-4.6307,-4.6289,-4.6289,-4.6289,-4.6289,-4.6289,-4.6289,-4.6289,-4.6289,-4.6289,-4.6288,-4.5916,-4.5096,-4.4887,0.0,0.0,0.0,0.0,0.0,0.0,0.0,0.0,0.0,0.0,0.0,0.0,0.0,0.0,0.0,0.0,0.0,0.0,0.0,0.0,-3.4927,0.0,0.0,0.0,0.0,0.0,0.0,0.0,0.0,0.0,0.0,-3.6943,-3.6936,-3.7024,-3.7238,0.0,0.0,0.0,0.0,-3.7928,-3.791,-3.7542,-3.7211,-3.7098,-3.747,-3.7773,-3.7739,0.0,0.0,-3.7116,-3.6919,-3.656,-3.5761,-3.5644,-3.5756,-3.6139,-3.5535,-3.5006,-3.4686,-3.4558,-3.4528,-3.4342,-3.4721,-3.5062,-4.4691,0.0,0.0,0.0,0.0,-4.4784,-4.4775,-4.4766,-4.4839,-4.4839,-4.4793,-4.4891,0.0,0.0,0.0,0.0,0.0,0.0,-4.568,-4.5692,-4.575,-4.5773,-4.5773,-4.5786,-4.5807,-4.5807,-4.5828,-4.5848,-4.5854,-4.5963,-4.6086,-4.62,0.0,0.0,0.0,0.0,-4.6306,-4.6287,-4.6289,-4.6289,-4.6289,-4.6289,-4.6289,-4.6289,-4.6289,-4.6289,-4.6289,-4.6289,-4.6191,-4.5936,-4.5251,0.0,0.0,0.0,0.0,0.0,0.0,0.0,0.0,0.0,0.0,0.0,0.0,0.0,0.0,0.0,0.0,0.0,0.0,0.0,-3.6419,-3.64,-3.6379,0.0,0.0,0.0,0.0,0.0,0.0,0.0,0.0,0.0,-3.8436,-3.7936,-3.7448,0.0,0.0,-3.83,-3.7931,-3.8218,-3.8465,-3.8465,0.0,0.0,0.0,-3.7929,-3.7879,-3.8087,-3.7685,-3.7151,-3.6597,-3.6203,-3.5915,-3.5627,-3.5616,-3.5644,-3.5739,-3.5655,-3.5459,-3.5322,-3.5287,-3.5211,-3.5142,-3.5175,-3.5111,-4.5419,-4.541,-4.541,-4.54,-4.5448,-4.5476,-4.5457,-4.5476,-4.5522,-4.5531,-4.5504,-4.5603,-4.5657,-4.5657,-4.5679,0.0,0.0,0.0,-4.5684,-4.5684,-4.5743,-4.5773,-4.5807,-4.5805,-4.5807,-4.5807,-4.5861,-4.5861,-4.5814,-4.5993,-4.6092,-4.6169,0.0,0.0,-4.6305,-4.6306,-4.6288,-4.6288,-4.6289,-4.6289,-4.6289,-4.6289,-4.6289,-4.6289,-4.6289,-4.6289,-4.6289,-4.6289,-4.6289,-4.6288,-4.5753,-4.5308,0.0,0.0,0.0,0.0,0.0,0.0,0.0,0.0,0.0,0.0,0.0,-3.8303,-3.786,0.0,0.0,0.0,-3.7519,-3.7255,-3.7141,-3.7236,0.0,0.0,0.0,0.0,0.0,0.0,0.0,-3.8655,-3.8848,-3.9036,-3.9358,-3.8771,-3.8211,-3.7912,-3.8352,-3.8596,-3.8249,0.0,-3.8707,-3.8707,-3.8707,-3.8658,-3.851,-3.8232,-3.8051,-3.7984,-3.7541,-3.6921,-3.6388,-3.6067,-3.5827,-3.5667,-3.5616,-3.5616,-3.5616,-3.5616,-3.5616,-3.56,-3.5543,-3.5492,-3.5446,-3.5245,-3.5081,-4.5419,-4.541,-4.541,-4.541,-4.541,-4.541,-4.541,-4.5419,-4.5485,-4.5504,-4.5504,-4.5577,-4.5594,-4.5594,-4.5657,0.0,-4.5693,-4.5693,-4.5682,-4.569,-4.5684,-4.5731,-4.5815,-4.58,-4.5821,-4.5808,-4.5958,-4.5939,-4.5848,-4.6089,-4.6182,-4.6112,-4.6177,-4.6226,-4.6288,-4.6288,-4.6288,-4.6289,-4.6289,-4.6289,-4.6289,-4.6289,-4.6289,-4.6289,-4.6289,-4.6289,-4.6289,-4.6289,-4.6289,-4.6289,-4.6288,-4.5912,-4.5068,0.0,0.0,0.0,0.0,0.0,0.0,0.0,0.0,0.0,0.0,0.0,0.0,0.0,0.0,0.0,-3.8113,0.0,-3.7689,-3.7755,0.0,0.0,0.0,-3.852,-3.8564,-3.9353,-3.992,-3.9901,0.0,0.0,-3.9848,0.0,-3.9101,-3.9073,-3.8851,-3.8673,-3.8643,-3.8661,-3.8707,-3.8707,-3.8707,-3.8658,-3.8525,-3.8415,-3.8168,-3.7667,-3.7487,-3.7151,-3.6471,-3.6237,-3.6045,-3.5672,-3.5616,-3.5616,-3.5616,-3.5616,-3.5583,-3.56,-3.5543,-3.5446,-3.5331,-3.5158,-3.5041,-4.5419,-4.541,-4.541,-4.5429,-4.5485,-4.5485,-4.5504,-4.5559,-4.5577,-4.5577,-4.5577,-4.5586,-4.5594,-4.5594,-4.5622,-4.5631,-4.5631,-4.5631,-4.5646,-4.5692,-4.568,-4.5746,-4.58,-4.5892,-4.5939,-4.5969,-4.605,-4.6064,-4.6028,-4.615,-4.6199,-4.6171,-4.6242,-4.6289,-4.6289,-4.6289,-4.6289,-4.6289,-4.6289,-4.6289,-4.6289,-4.6289,-4.6289,-4.6289,-4.6289,-4.6289,-4.6289,-4.6289,-4.6289,-4.6289,-4.6289,-4.621,-4.5974,-4.5214,0.0,0.0,0.0,0.0,0.0,0.0,0.0,0.0,0.0,-4.0256,-3.9914,0.0,-3.9657,0.0,-3.988,-3.9672,-3.9159,-3.9334,0.0,0.0,-3.9391,-3.9502,-3.9946,-3.9977,-3.9953,-3.9901,-3.9891,-3.9747,-3.935,-3.9183,-3.9017,-3.8822,-3.8735,-3.8544,-3.8183,-3.8449,-3.8707,-3.8707,-3.8707,-3.8658,-3.8528,-3.8401,-3.8138,-3.7578,-3.7247,-3.686,-3.6367,-3.5985,-3.5717,-3.5622,-3.5616,-3.5616,-3.5616,-3.5616,-3.5594,-3.552,-3.5429,-3.5308,-3.5175,-3.5058,-3.4947,-4.5448,-4.5495,-4.5495,-4.5513,-4.5531,-4.5513,-4.5531,-4.5594,-4.5594,-4.5594,-4.5594,-4.5594,-4.5594,-4.5594,-4.5594,-4.5594,-4.5594,-4.5594,-4.5637,-4.568,-4.5688,-4.5727,-4.5807,-4.5947,-4.5982,-4.5988,-4.606,-4.6118,-4.6105,-4.6182,-4.6204,-4.6204,-4.6267,-4.6289,-4.6289,-4.6289,-4.6289,-4.6289,-4.6289,-4.6289,-4.6289,-4.6289,-4.6289,-4.6289,-4.6289,-4.6289,-4.6289,-4.6289,-4.6269,-4.6203,-4.6221,-4.6202,-4.6202,-4.5648,-4.5328,0.0,0.0,0.0,0.0,0.0,0.0,0.0,0.0,0.0,0.0,0.0,-4.0281,-4.0288,-4.0417,-4.0311,-3.9861,-4.0101,-4.0286,-4.0286,-4.011,-4.0072,-4.0307,-4.011,-3.9891,-3.9742,-3.9717,-3.9609,-3.9324,-3.9183,-3.9045,-3.8896,-3.878,-3.8596,-3.8332,-3.8512,-3.8707,-3.8707,-3.8707,-3.8624,-3.8478,-3.8368,-3.8035,-3.7377,-3.7038,-3.6701,-3.6092,-3.5783,-3.5616,-3.5616,-3.5616,-3.5616,-3.5616,-3.5616,-3.5594,-3.5514,-3.5446,-3.5314,-3.5152,-3.5011,-3.4899,-4.5466,-4.5594,-4.5594,-4.5594,-4.5586,-4.5531,-4.5531,-4.5594,-4.5594,-4.5594,-4.5594,-4.5594,-4.5594,-4.5594,-4.5594,-4.5594,-4.5594,-4.5594,-4.5646,-4.568,-4.5688,-4.5727,-4.5814,-4.5964,-4.6022,-4.6027,-4.6087,-4.6108,-4.6108,-4.6173,-4.6209,-4.621,-4.6267,-4.6289,-4.6289,-4.6289,-4.6289,-4.6289,-4.6289,-4.6289,-4.6289,-4.6289,-4.6289,-4.6288,-4.6289,-4.6289,-4.6288,-4.6289,-4.6247,-4.6142,-4.612,-4.6119,-4.6138,-4.6113,-4.6087,0.0,-4.5299,0.0,0.0,0.0,0.0,0.0,0.0,0.0,0.0,-4.0572,-4.0377,-4.0081,-4.0319,-4.0397,-4.0167,-4.0364,-4.0508,-4.0465,-4.0436,-4.0334,-4.0081,-3.9941,-3.9754,-3.9536,-3.9501,-3.9483,-3.9439,-3.9245,-3.9087,-3.9021,-3.8969,-3.8912,-3.8839,-3.8765,-3.8707,-3.8707,-3.8799,-3.8936,-3.885,-3.8687,-3.8346,-3.7543,-3.7264,-3.6852,-3.6246,-3.6022,-3.5921,-3.5938,-3.6005,-3.5971,-3.5904,-3.5938,-3.5909,-3.5902,-3.5912,-3.5702,-3.5242,-3.5018,-3.4923,-4.5541,-4.5594,-4.5594,-4.5594,-4.5594,-4.5605,-4.5605,-4.5594,-4.5594,-4.5594,-4.5594,-4.5594,-4.5594,-4.5594,-4.5594,-4.5594,-4.5594,-4.5594,-4.5637,-4.5688,-4.5688,-4.5727,-4.5821,-4.5998,-4.608,-4.6087,-4.6206,-4.6265,-4.6265,-4.6268,-4.6288,-4.6288,-4.6289,-4.6289,-4.6289,0.0,0.0,0.0,-4.6289,-4.6288,-4.6288,-4.6288,-4.6288,-4.6287,-4.6289,0.0,-4.6289,-4.6289,-4.6289,-4.6268,-4.6248,0.0,0.0,0.0,0.0,0.0,0.0,0.0,0.0,0.0,0.0,0.0,-4.3162,-4.2316,-4.1604,-4.0912,-4.0487,-4.0413,-4.0468,-4.0481,-4.0441,-4.0473,-4.0422,-4.0278,-4.0214,-4.0061,-3.981,-3.966,-3.9548,-3.9501,-3.9495,-3.9427,-3.9266,-3.911,-3.904,-3.8936,-3.9304,-3.9659,-3.968,-3.9166,-3.8744,-3.8744,-3.9294,-3.9836,-4.0277,-3.9967,-3.9534,-3.9244,-3.8615,-3.8143,-3.7865,-3.7591,-3.7449,-3.7391,-3.7466,-3.7408,-3.7408,-3.7459,-3.7334,-3.7283,-3.7242,-3.6851,-3.5442,-3.5105,-3.5034,-4.6588,0.0,-4.624,-4.599,0.0,-4.5594,-4.5594,-4.5594,-4.5594,-4.5594,-4.5594,-4.5594,-4.5594,-4.5594,-4.5594,-4.5594,-4.5594,-4.5631,-4.5662,-4.5688,-4.575,-4.5769,-4.5814,-4.6022,-4.6118,-4.6105,-4.6239,-4.6289,-4.6289,-4.6289,-4.6289,-4.6289,-4.6289,-4.6289,-4.6289,-4.6289,-4.6289,-4.6289,-4.6289,-4.6289,-4.6289,-4.6289,-4.6288,-4.6287,0.0,0.0,0.0,0.0,0.0,0.0,0.0,0.0,0.0,0.0,0.0,-4.6049,-4.5924,-4.5809,-4.574,-4.5279,-4.4996,-4.4921,-4.4162,-4.3335,-4.2508,-4.2047,-4.1769,-4.1783,-4.1788,-4.1604,-4.1181,-4.1162,-4.0938,-4.0432,-4.0297,-4.0291,-4.0439,-4.0363,-4.0339,-4.0467,-4.0507,-4.0365,-4.0104,-4.0095,-4.0035,-3.9932,-4.023,-4.0506,-4.0469,-4.0157,-3.9884,-3.9884,-4.0162,-4.0502,-4.0681,-4.0366,-3.9938,-3.9509,-3.8963,-3.847,-3.823,-3.8037,-3.7898,-3.7898,-3.7898,-3.7898,-3.7898,-3.7898,-3.7865,-3.7817,-3.7793,-3.7535,-3.6489,-3.6235,-3.6163,-4.7722,-4.7115,-4.7124,-4.6701,-4.6056,-4.6028,-4.6056,-4.6009,0.0,0.0,0.0,-4.5594,-4.5594,-4.5594,-4.5622,-4.5622,-4.5594,-4.5665,-4.5687,-4.5708,-4.5773,-4.581,-4.5801,-4.5983,-4.6087,-4.6105,-4.6215,-4.6289,-4.6289,-4.6289,-4.6289,-4.6289,-4.6289,-4.6289,-4.6289,-4.6289,-4.6289,-4.6289,-4.6289,-4.6289,-4.6289,-4.6289,-4.6289,-4.6287,-4.6289,-4.6289,-4.6288,-4.6289,-4.6247,-4.6145,-4.6142,-4.6104,-4.6043,-4.604,-4.6052,-4.6076,-4.5939,-4.5846,-4.5796,-4.5719,-4.5676,-4.5594,-4.494,-4.4124,-4.3181,-4.3085,-4.3085,-4.3085,-4.3085,-4.2797,-4.2096,-4.2019,-4.1723,-4.0976,-4.0835,-4.0969,-4.1288,-4.1279,-4.1199,-4.1407,-4.1349,-4.1351,-4.1087,-4.1038,-4.1113,-4.1095,-4.1168,-4.1405,-4.146,-4.1205,-4.1003,-4.1187,-4.1227,-4.1235,-4.121,-4.089,-4.029,-4.0038,-3.9477,-3.8911,-3.8547,-3.8398,-3.8374,-3.8413,-3.8294,-3.8345,-3.8328,-3.8413,-3.8294,-3.8278,-3.827,-3.8198,-3.7944,-3.777,-3.7544,-4.8038,-4.7932,-4.7932,-4.7875,-4.774,-4.7759,-4.7759,-4.7625,-4.622,-4.5594,-4.5594,-4.5594,-4.5594,-4.5594,-4.5657,-4.5648,-4.5594,-4.566,-4.568,0.0,-4.5765,-4.581,-4.5814,-4.5944,-4.605,-4.6102,-4.6169,-4.6241,-4.6289,-4.6308,-4.6289,-4.6308,-4.6289,-4.6289,-4.6289,-4.6289,-4.6289,-4.6289,-4.6289,-4.6288,-4.6288,-4.6288,-4.6288,-4.6287,-4.6289,-4.6289,-4.6289,-4.6289,-4.6289,-4.6269,-4.6268,-4.6244,-4.6175,-4.6152,-4.6134,-4.6018,-4.5881,-4.5783,-4.5715,-4.5662,-4.5594,-4.5594,-4.5479,-4.4759,-4.3258,-4.3085,-4.3085,-4.3104,-4.3181,-4.3066,-4.2931,-4.2931,-4.2757,-4.2403,-4.2317,-4.2148,-4.1769,-4.1611,-4.1516,-4.1341,-4.1158,-4.1248,-4.1275,-4.1224,-4.1242,-4.126,-4.1772,-4.2341,-4.2653,-4.1974,-4.1499,-4.1937,-4.2104,-4.2382,-4.2628,-4.2502,-4.1975,-4.1978,-4.1336,-4.0702,-4.0278,-4.0161,-4.0035,-3.984,-3.9664,-3.9673,-3.9706,-3.9808,-3.9673,-3.9597,-3.9547,-3.9446,-3.926,-3.9122,-3.8667,-4.924,-4.8817,-4.8798,-4.8529,-4.8096,-4.8096,-4.8096,-4.8048,-4.7298,-4.6701,-4.6259,-4.5825,-4.5594,-4.5594,-4.5676,-4.5693,-4.5657,-4.5719,-4.5739,-4.5746,-4.5783,-4.6056,-4.6491,-4.6601,-4.6926,-4.7446,-4.7526,-4.7369,-4.7031,-4.7012,-4.6777,-4.6328,-4.6289,-4.6289,-4.6289,-4.6289,-4.6289,-4.6289,-4.6289,-4.6289,-4.6289,-4.6289,-4.6289,-4.6289,-4.6289,-4.6289,-4.6289,-4.6289,-4.6289,-4.6289,-4.6266,-4.623,-4.6147,-4.6112,-4.6035,-4.5898,-4.5796,-4.5725,-4.5715,-4.5627,-4.5594,-4.5594,-4.5594,-4.5287,-4.4536,-4.4451,-4.4451,-4.4451,-4.4451,-4.4239,-4.3816,-4.3739,-4.3532,-4.2954,-4.2728,-4.2645,-4.2748,-4.2639,-4.2571,-4.2659,-4.2675,-4.2611,-4.2413,-4.2396,-4.2396,-4.2433,-4.2763,-4.3112,-4.3441,-4.2892,-4.2506,-4.2855,-4.2965,-4.3059,-4.3321,-4.2976,-4.2596,-4.2418,-4.1948,-4.1521,-4.1185,-4.1019,-4.0731,-4.0507,-4.0279,-4.0121,-4.0113,-4.0096,-4.0113,-4.0113,-4.0062,-3.9952,-3.9755,-3.9537,-3.9129,-5.0317,-4.9683,-4.9702,-4.9298,-4.8702,-4.8682,-4.8682,-4.8663,-4.849,-4.8048,-4.7394,-4.6528,-4.6172,-4.6189,-4.6251,-4.6296,-4.6285,-4.6345,-4.6394,-4.6368,-4.6385,-4.6748,-4.7342,-4.7443,-4.7874,-4.8549,-4.8664,-4.8397,-4.7949,-4.7891,-4.7558,-4.6933,-4.668,-4.6582,-4.6601,-4.6406,-4.6289,-4.6289,-4.6289,-4.6289,-4.6289,-4.6289,-4.6289,-4.6289,-4.6289,-4.6289,-4.6289,-4.6289,-4.6289,-4.6289,-4.6239,-4.6165,-4.6105,-4.6036,-4.5927,-4.5801,-4.5761,-4.5708,-4.5711,-4.5637,-4.5594,-4.5594,-4.5594,-4.5594,-4.5594,-4.5594,-4.5594,-4.5594,-4.5518,-4.5287,-4.472,-4.4586,-4.4335,-4.3712,-4.3398,-4.3433,-4.3814,-4.3668,-4.3582,-4.3893,-4.3894,-4.3728,-4.3565,-4.3479,-4.3406,-4.3387,-4.3479,-4.3479,-4.3479,-4.3479,-4.3479,-4.3479,-4.3479,-4.3443,-4.3411,-4.3142,-4.2826,-4.2634,-4.2335,-4.2011,-4.1739,-4.1298,-4.0926,-4.0778,-4.0385,-4.0146,-4.0113,-4.0113,-4.0113,-4.0113,-4.0062,-3.9961,-3.972,-3.9511,-3.9352,-5.0654,-5.0596,-5.0548,-5.0548,-5.0394,-5.0414,-5.0385,-5.0298,-4.9644,-4.924,-4.9048,-4.8259,-4.7902,-4.7974,-4.7979,-4.7957,-4.7984,-4.8122,-4.8079,-4.8017,-4.8125,-4.8198,-4.8275,-4.829,-4.8398,-4.8655,-4.87,-4.8784,-4.8789,-4.875,-4.8711,-4.8574,-4.7871,-4.7461,-4.7383,-4.6699,-4.6308,-4.6289,-4.6289,-4.6289,-4.6289,-4.6289,-4.6289,-4.6289,-4.6289,-4.6289,-4.6289,-4.6289,-4.6289,-4.6289,-4.6238,-4.6162,-4.6102,-4.6036,-4.5947,-4.5814,-4.5783,-4.577,-4.569,-4.562,-4.5594,-4.5594,-4.5594,-4.5594,-4.5594,-4.5594,-4.5594,-4.5594,-4.5594,-4.5537,-4.547,-4.5421,-4.5325,-4.5173,-4.493,-4.4884,-4.4562,-4.4317,-4.3998,-4.3664,-4.3632,-4.3513,-4.3513,-4.3515,-4.3479,-4.3479,-4.3479,-4.3479,-4.3479,-4.3479,-4.3479,-4.3479,-4.3479,-4.3479,-4.3463,-4.3429,-4.3269,-4.3233,-4.3087,-4.2749,-4.2338,-4.1803,-4.1321,-4.0949,-4.0427,-4.0121,-4.0113,-4.0113,-4.0113,-4.0087,-4.0011,-3.9849,-3.9606,-3.9501,-3.9432,-5.0683,-5.0683,-5.0683,-5.0683,-5.0683,-5.0683,-5.0683,-5.0654,-5.0317,-5.0173,-5.0154,-4.9798,-4.9105,-4.8161,-4.824,-4.8312,-4.8321,-4.8373,-4.8384,-4.835,-4.8384,-4.8662,-4.9126,-4.9184,-4.9491,-5.01,-5.0131,-4.9986,-4.9629,-4.9141,-4.8887,-4.8867,-4.8516,-4.8125,-4.7637,-4.7246,-4.6816,-4.6308,-4.6289,-4.6289,-4.6289,-4.6289,-4.6289,-4.6289,-4.6289,-4.6289,-4.6289,-4.6289,-4.6289,-4.6289,-4.6202,-4.6111,-4.6102,-4.5958,-4.5848,-4.5807,-4.5769,-4.5727,-4.5682,-4.564,-4.5594,-4.5594,-4.5594,-4.5594,-4.5594,-4.5594,-4.5594,-4.5594,-4.5594,-4.5594,-4.5594,-4.5594,-4.5594,-4.5531,-4.5222,-4.4884,-4.4733,-4.4308,-4.3926,-4.3753,-4.3617,-4.3566,-4.3548,-4.3532,-4.3515,-4.3479,-4.3479,-4.3479,-4.3479,-4.3479,-4.3479,-4.3479,-4.3479,-4.3479,-4.3479,-4.348,-4.3446,-4.3412,-4.3341,-4.3142,-4.2805,-4.2113,-4.1539,-4.123,-4.0611,-4.0171,-4.0113,-4.0113,-4.0113,-4.0087,-3.9986,-3.9849,-3.9746,-3.9606,-3.9501,-5.0683,-5.0683,-5.0683,-5.0683,-5.0683,-5.0683,-5.0683,-5.0683,-5.0683,-5.0683,-5.0683,-5.0683,-5.001,-4.8951,-4.8926,-4.8988,-4.9013,-4.9077,-4.9088,-4.9088,-4.9088,-4.9436,-4.9997,-5.0035,-5.0423,-5.105,-5.1152,-5.0942,-5.0488,-4.9922,-4.959,-4.957,-4.9355,-4.8945,-4.834,-4.793,-4.7285,-4.6719,-4.6445,-4.6289,-4.6289,-4.6289,-4.6289,-4.6289,-4.6289,-4.6289,-4.6289,-4.6289,-4.6289,-4.6289,-4.6184,-4.6118,-4.6114,-4.5894,-4.5807,-4.58,-4.5734,-4.5692,-4.5679,-4.5629,-4.5594,-4.5594,-4.5594,-4.5594,-4.5594,-4.5594,-4.5594,-4.5594,-4.5594,-4.5594,-4.5594,-4.5594,-4.5594,-4.5568,-4.518,-4.4884,-4.4843,-4.4365,-4.402,-4.3926,-4.3765,-4.3634,-4.3599,-4.3566,-4.3532,-4.3515,-4.3479,-4.3479,-4.3479,-4.3479,-4.3479,-4.3479,-4.3479,-4.3479,-4.3479,-4.3479,-4.3463,-4.3446,-4.3411,-4.3341,-4.316,-4.2436,-4.1774,-4.1494,-4.0778,-4.0279,-4.0121,-4.0113,-4.0113,-4.0087,-4.0011,-3.9935,-3.9875,-3.9694,-3.9563,-5.0683,-5.0702,-5.0712,-5.0731,-5.0683,-5.0683,-5.0683,-5.0683,-5.0683,-5.0683,-5.0683,-5.0683,-5.0654,-5.0491,-5.0487,-5.0683,-5.0745,-5.067,-5.0647,-5.0627,-5.0666,-5.0782,-5.0859,-5.084,-5.0911,-5.1109,-5.1176,-5.1208,-5.1289,-5.1269,-5.1308,-5.1191,-5.0488,-5.0098,-4.9766,-4.8476,-4.7617,-4.7422,-4.6738,-4.6308,-4.6289,-4.6289,-4.6289,-4.6289,-4.6289,-4.6289,-4.6289,-4.6289,-4.6289,-4.6289,-4.6169,-4.6121,-4.6087,-4.5894,-4.5807,-4.58,-4.5754,-4.5708,-4.5692,-4.5646,-4.5594,-4.5594,-4.5594,-4.5594,-4.5594,-4.5594,-4.5594,-4.5594,-4.5594,-4.5594,-4.5594,-4.5594,-4.5594,-4.5577,-4.5361,-4.518,-4.5169,-4.4618,-4.4332,-4.4236,-4.4002,-4.3783,-4.3651,-4.3617,-4.3565,-4.3532,-4.3515,-4.3479,-4.3479,-4.3479,-4.3479,-4.3479,-4.3479,-4.3479,-4.3479,-4.3479,-4.3479,-4.348,-4.3446,-4.3394,-4.316,-4.2844,-4.2297,-4.1735,-4.1111,-4.0587,-4.0254,-4.0113,-4.0113,-4.0113,-4.0087,-4.0037,-3.9961,-3.9807,-3.9694,-5.1972,-5.1471,-5.1471,-5.1183,-5.0712,-5.0683,-5.0683,-5.0683,-5.0683,-5.0683,-5.0683,-5.0683,-5.0683,-5.0693,-5.0776,-5.081,-5.0846,-5.0893,-5.0898,-5.0898,-5.0898,-5.0898,-5.0898,-5.0898,-5.0961,-5.1093,-5.1131,-5.1207,-5.1331,-5.1366,-5.1387,-5.1367,-5.1133,-5.0723,-5.0176,-4.959,-4.8769,-4.7676,-4.7266,-4.6875,-4.6367,-4.6289,-4.6289,-4.6289,-4.6289,-4.6289,-4.6289,-4.6289,-4.6289,-4.6289,-4.6209,-4.6145,-4.6091,-4.5914,-4.5807,-4.58,-4.5776,-4.5731,-4.57,-4.569,-4.5648,-4.5594,-4.5594,-4.5594,-4.5594,-4.5594,-4.5594,-4.5594,-4.5594,-4.5594,-4.5594,-4.5594,-4.5594,-4.5568,-4.5362,-4.5211,-4.5129,-4.4861,-4.4612,-4.4572,-4.4318,-4.4033,-4.38,-4.3651,-4.36,-4.3565,-4.3532,-4.3515,-4.3479,-4.3479,-4.3515,-4.3479,-4.3479,-4.3479,-4.3479,-4.3479,-4.3479,-4.3497,-4.3463,-4.3429,-4.3286,-4.2976,-4.2478,-4.1906,-4.1321,-4.0737,-4.0336,-4.0113,-4.0113,-4.0113,-4.0113,-4.0087,-4.0037,-3.9884,-3.9824,-5.2876,-5.2365,-5.2308,-5.201,-5.1529,-5.151,-5.1337,-5.1125,-5.1087,-5.0933,-5.0731,-5.0683,-5.0683,-5.0702,-5.0776,-5.0821,-5.081,-5.0866,-5.0898,-5.0898,-5.0898,-5.0898,-5.0898,-5.0898,-5.094,-5.1043,-5.1109,-5.1172,-5.1295,-5.1364,-5.1387,-5.1387,-5.1387,-5.1152,-5.0644,-5.0332,-4.9531,-4.8535,-4.7891,-4.7285,-4.6738,-4.6445,-4.6289,-4.6289,-4.6289,-4.6289,-4.6289,-4.6289,-4.6289,-4.6289,-4.6239,-4.6158,-4.6064,-4.591,-4.5807,-4.58,-4.581,-4.58,-4.5743,-4.5714,-4.5665,-4.564,-4.5622,-4.5594,-4.5594,-4.5594,-4.5594,-4.5594,-4.5594,-4.5594,-4.5594,-4.5594,-4.5594,-4.5577,-4.5429,-4.5332,-4.5312,-4.5077,-4.4896,-4.4795,-4.4599,-4.4318,-4.4033,-4.3908,-4.3795,-4.3682,-4.3617,-4.3583,-4.3531,-4.3531,-4.3532,-4.3515,-4.3479,-4.3479,-4.3479,-4.3479,-4.3479,-4.3479,-4.3497,-4.3463,-4.3375,-4.3069,-4.2693,-4.2098,-4.1481,-4.0885,-4.0466,-4.0196,-4.0113,-4.0113,-4.0113,-4.0087,-4.0037,-3.9986,-3.9926,-5.326,-5.3203,-5.3222,-5.3145,-5.2991,-5.2953,-5.2635,-5.1981,-5.1904,-5.1548,-5.1068,-5.0856,-5.0981,-5.0847,-5.0979,-5.087,-5.0926,-5.0916,-5.0898,-5.0898,-5.0898,-5.0898,-5.0898,-5.0898,-5.0906,-5.0937,-5.1102,-5.1213,-5.1291,-5.136,-5.1387,-5.1387,-5.1387,-5.1348,-5.1367,-5.0644,-5.0234,-4.9707,-4.8496,-4.7637,-4.75,-4.6738,-4.6289,-4.6289,-4.6289,-4.6289,-4.6289,-4.6289,-4.6289,-4.6289,-4.622,-4.6139,-4.6032,-4.5886,-4.5814,-4.58,-4.581,-4.5807,-4.5781,-4.5758,-4.569,-4.5665,-4.564,-4.5614,-4.5594,-4.5594,-4.5594,-4.5594,-4.5594,-4.5594,-4.5594,-4.5594,-4.5594,-4.5594,-4.5559,-4.5559,-4.5513,-4.5352,-4.5096,-4.4903,-4.4788,-4.465,-4.4416,-4.4275,-4.4162,-4.391,-4.3835,-4.3769,-4.3632,-4.3617,-4.3565,-4.3532,-4.3515,-4.3479,-4.3479,-4.3479,-4.3479,-4.3479,-4.3479,-4.3462,-4.3463,-4.3268,-4.2995,-4.246,-4.1635,-4.103,-4.0546,-4.0286,-4.0121,-4.0113,-4.0113,-4.0113,-4.0062,-4.0011,-3.9961,-5.4587,-5.4107,-5.4107,-5.3722,-5.3241,-5.3203,-5.3029,-5.2808,-5.2788,-5.2635,-5.2452,-5.2433,-5.2433,-5.228,-5.1895,-5.1653,-5.1641,-5.1181,-5.0913,-5.0956,-5.0917,-5.0898,-5.0898,-5.0898,-5.0898,-5.0937,-5.1042,-5.1176,-5.1239,-5.1297,-5.1341,-5.1387,-5.1387,-5.1387,-5.1387,-5.1152,-5.0801,-5.0098,-4.9082,-4.8242,-4.7598,-4.6738,-4.6308,-4.6289,-4.6289,-4.6289,-4.6289,-4.6289,-4.6289,-4.6289,-4.6268,-4.6207,-4.6084,-4.5988,-4.5905,-4.5821,-4.5812,-4.581,-4.5807,-4.5785,-4.5738,-4.5717,-4.5665,-4.5648,-4.5594,-4.5594,-4.5594,-4.5594,-4.5594,-4.5594,-4.5594,-4.5594,-4.5594,-4.5594,-4.5594,-4.5594,-4.5586,-4.5513,-4.5371,-4.5148,-4.5074,-4.4943,-4.4695,-4.4612,-4.4471,-4.4192,-4.4109,-4.4002,-4.38,-4.3684,-4.3617,-4.3583,-4.3531,-4.3496,-4.3513,-4.3513,-4.3496,-4.3496,-4.3479,-4.3479,-4.3497,-4.3445,-4.3178,-4.2714,-4.1913,-4.1258,-4.0767,-4.0441,-4.0286,-4.0121,-4.0113,-4.0113,-4.0113,-4.0062,-4.0011,-5.5395,-5.4972,-5.4953,-5.4645,-5.4145,-5.4126,-5.3953,-5.3722,-5.3683,-5.351,-5.3241,-5.3183,-5.3203,-5.3097,-5.2685,-5.2521,-5.249,-5.2013,-5.1832,-5.171,-5.1091,-5.0917,-5.0898,-5.0898,-5.0898,-5.0929,-5.1037,-5.112,-5.1176,-5.1241,-5.1309,-5.1362,-5.1386,-5.1387,-5.1387,-5.1387,-5.1113,-5.0547,-4.9492,-4.8633,-4.7969,-4.6914,-4.6289,-4.6289,-4.6289,-4.6289,-4.6289,-4.6289,-4.6289,-4.6289,-4.6268,-4.6213,-4.6139,-4.6059,-4.5964,-4.5899,-4.5834,-4.5812,-4.581,-4.5795,-4.5785,-4.5738,-4.5714,-4.5662,-4.5629,-4.562,-4.5612,-4.5594,-4.5594,-4.5594,-4.5594,-4.5594,-4.5594,-4.5594,-4.5594,-4.5594,-4.5594,-4.5594,-4.555,-4.539,-4.5352,-4.5231,-4.5019,-4.4908,-4.4776,-4.4533,-4.436,-4.4236,-4.4002,-4.3812,-4.3749,-4.3684,-4.3669,-4.3617,-4.3566,-4.3531,-4.3513,-4.3496,-4.3479,-4.3479,-4.3479,-4.3462,-4.3303,-4.2865,-4.2162,-4.1595,-4.1105,-4.0726,-4.0497,-4.0336,-4.0196,-4.0113,-4.0113,-4.0113,-4.0062,-5.5684,-5.5684,-5.5684,-5.5626,-5.5568,-5.5549,-5.5145,-5.4626,-5.4568,-5.4184,-5.3568,-5.3587,-5.3491,-5.3424,-5.3445,-5.3379,-5.3339,-5.3202,-5.3157,-5.2862,-5.1981,-5.1207,-5.0937,-5.0898,-5.0898,-5.0921,-5.1024,-5.1093,-5.1134,-5.1218,-5.1293,-5.1324,-5.1367,-5.1387,-5.1387,-5.1387,-5.1367,-5.1094,-4.9707,-4.8867,-4.8711,-4.7168,-4.6289,-4.6289,-4.6289,-4.6289,-4.6289,-4.6289,-4.6289,-4.6289,-4.6243,-4.6212,-4.6189,-4.6092,-4.6018,-4.5977,-4.5867,-4.5808,-4.5807,-4.5817,-4.5807,-4.5792,-4.5743,-4.5692,-4.569,-4.5673,-4.5676,-4.5631,-4.5594,-4.5594,-4.5594,-4.5594,-4.5594,-4.5594,-4.5594,-4.5594,-4.5594,-4.5594,-4.5577,-4.5577,-4.5577,-4.5504,-4.5243,-4.5222,-4.5085,-4.4861,-4.4606,-4.4479,-4.4246,-4.4075,-4.3913,-4.3835,-4.3769,-4.3719,-4.3651,-4.3634,-4.3617,-4.3531,-4.3513,-4.3513,-4.3496,-4.3479,-4.3462,-4.2995,-4.2559,-4.1979,-4.1552,-4.1241,-4.0891,-4.0707,-4.0483,-4.0246,-4.0146,-4.0196,-4.0121,-5.5684,-5.5684,-5.5684,-5.5684,-5.5684,-5.5684,-5.5588,-5.5376,-5.5357,-5.5184,-5.5011,-5.5049,-5.4953,-5.4953,-5.4416,-5.4196,-5.4092,-5.3648,-5.3346,-5.3351,-5.3094,-5.2008,-5.1111,-5.0917,-5.0917,-5.0914,-5.0952,-5.1004,-5.1099,-5.1137,-5.1211,-5.1295,-5.1327,-5.136,-5.1387,-5.1387,-5.1387,-5.1172,-4.9766,-4.8926,-4.8633,-4.7226,-4.6328,-4.6289,-4.6289,-4.6289,-4.6289,-4.6289,-4.6289,-4.6289,-4.6289,-4.6262,-4.6206,-4.6158,-4.6098,-4.6013,-4.598,-4.5911,-4.5834,-4.58,-4.5798,-4.5807,-4.58,-4.575,-4.5692,-4.5679,-4.5682,-4.5657,-4.564,-4.5594,-4.5594,-4.5594,-4.5594,-4.5594,-4.5594,-4.5594,-4.5594,-4.5594,-4.5594,-4.5594,-4.5594,-4.554,-4.5504,-4.5448,-4.5381,-4.514,-4.4977,-4.4837,-4.4546,-4.4318,-4.4181,-4.3945,-4.3835,-4.3786,-4.3753,-4.3753,-4.3719,-4.3599,-4.3565,-4.3548,-4.3513,-4.3479,-4.3462,-4.3303,-4.2921,-4.2404,-4.2162,-4.1913,-4.1565,-4.1134,-4.0896,-4.0676,-4.0483,-4.0434,-4.0246,-5.5684,-5.5684,-5.5684,-5.5684,-5.5684,-5.5684,-5.5684,-5.5684,-5.5684,-5.5684,-5.5684,-5.5684,-5.5684,-5.5626,-5.5203,-5.5023,-5.4958,-5.4564,-5.4448,-5.4434,-5.4169,-5.3072,-5.1834,-5.1447,-5.1273,-5.0898,-5.0917,-5.0932,-5.1017,-5.1069,-5.1167,-5.1232,-5.1288,-5.1334,-5.1387,-5.1387,-5.1387,-5.1172,-5.0098,-4.9297,-4.8808,-4.7558,-4.6719,-4.6426,-4.6289,-4.6289,-4.6289,-4.6289,-4.6289,-4.6289,-4.6289,-4.6288,-4.6242,-4.6209,-4.616,-4.608,-4.6072,-4.6003,-4.5904,-4.5873,-4.5854,-4.5812,-4.581,-4.5788,-4.5739,-4.5727,-4.575,-4.5701,-4.5673,-4.5629,-4.5603,-4.5594,-4.5594,-4.5594,-4.5594,-4.5594,-4.5594,-4.5594,-4.5594,-4.5594,-4.5594,-4.5594,-4.5594,-4.5594,-4.5522,-4.539,-4.5232,-4.5052,-4.4825,-4.4624,-4.4402,-4.4151,-4.4005,-4.3974,-4.3865,-4.3835,-4.3802,-4.3701,-4.3599,-4.3582,-4.3531,-4.3496,-4.3479,-4.341,-4.3178,-4.2939,-4.2637,-4.238,-4.2015,-4.1652,-4.1383,-4.1157,-4.0995,-4.0713,-4.0483,-5.5684,-5.5684,-5.5684,-5.5684,-5.5684,-5.5684,-5.5684,-5.5684,-5.5684,-5.5684,-5.5684,-5.5684,-5.5684,-5.5684,-5.5588,-5.5696,-5.5719,-5.5566,-5.5721,-5.5547,-5.5118,-5.4042,-5.2754,-5.2395,-5.1912,-5.1293,-5.1072,-5.1003,-5.099,-5.103,-5.1116,-5.1183,-5.1269,-5.1331,-5.1387,-5.1387,-5.1387,-5.125,-5.0527,-4.9648,-4.8906,-4.793,-4.709,-4.6387,-4.6289,-4.6289,-4.6289,-4.6289,-4.6289,-4.6289,-4.6289,-4.6289,-4.6289,-4.624,-4.6206,-4.6173,-4.6134,-4.6076,-4.6017,-4.5961,-4.5922,-4.5834,-4.58,-4.5812,-4.5795,-4.58,-4.577,-4.5734,-4.5711,-4.5679,-4.562,-4.5603,-4.5622,-4.5594,-4.5594,-4.5594,-4.5594,-4.5594,-4.5594,-4.5594,-4.5594,-4.5594,-4.5594,-4.5594,-4.5586,-4.5532,-4.54,-4.5243,-4.5011,-4.4812,-4.4585,-4.436,-4.425,-4.4162,-4.4048,-4.3913,-4.3867,-4.3802,-4.3719,-4.3634,-4.3566,-4.3532,-4.3496,-4.341,-4.3286,-4.3142,-4.2958,-4.2674,-4.242,-4.2198,-4.1969,-4.176,-4.1565,-4.1162,-4.0879,-5.5684,-5.5684,-5.5684,-5.5684,-5.5684,-5.5684,-5.5684,-5.5684,-5.5684,-5.5684,-5.5684,-5.5684,-5.5684,-5.5684,-5.5684,-5.5695,-5.5735,-5.5776,-5.5846,-5.5895,-5.5855,-5.5177,-5.4171,-5.3597,-5.2763,-5.2105,-5.1912,-5.1563,-5.1115,-5.1005,-5.103,-5.1187,-5.1199,-5.1264,-5.1367,-5.1387,-5.1387,-5.125,-5.0625,-4.9785,-4.8926,-4.8047,-4.7187,-4.6387,-4.6289,-4.6289,-4.6289,-4.6289,-4.6289,-4.6289,-4.6289,-4.6289,-4.6289,-4.6289,-4.6263,-4.623,-4.6197,-4.6128,-4.6051,-4.5993,-4.5953,-4.5828,-4.5827,-4.5807,-4.5812,-4.5803,-4.58,-4.5777,-4.5743,-4.5692,-4.5682,-4.5684,-4.5648,-4.5631,-4.5594,-4.5594,-4.5594,-4.5594,-4.5594,-4.5594,-4.5594,-4.5594,-4.5594,-4.5594,-4.5594,-4.5605,-4.5513,-4.541,-4.5222,-4.5019,-4.4825,-4.4624,-4.4479,-4.4369,-4.4151,-4.4005,-4.3929,-4.3883,-4.3802,-4.3736,-4.3651,-4.3549,-4.3513,-4.3496,-4.3462,-4.3303,-4.316,-4.3178,-4.2995,-4.275,-4.2536,-4.232,-4.2056,-4.1635,-4.1348,-5.5684,-5.5684,-5.5684,-5.5684,-5.5684,-5.5684,-5.5684,-5.5684,-5.5684,-5.5684,-5.5684,-5.5684,-5.5684,-5.5684,-5.5684,-5.5684,-5.5724,-5.5766,-5.5836,-5.5905,-5.5933,-5.5738,-5.5416,-5.4796,-5.4078,-5.2964,-5.2345,-5.1892,-5.1525,-5.1134,-5.1004,-5.1142,-5.1138,-5.1232,-5.1334,-5.1361,-5.1367,-5.123,-5.0605,-4.9785,-4.8926,-4.8047,-4.7187,-4.6465,-4.6289,-4.6289,-4.6289,-4.6289,-4.6289,-4.6289,-4.6289,-4.6289,-4.6289,-4.6289,-4.6269,-4.6264,-4.6261,-4.6204,-4.6122,-4.6084,-4.6044,-4.5898,-4.5886,-4.5841,-4.5827,-4.5805,-4.5803,-4.5788,-4.5761,-4.5746,-4.5746,-4.5714,-4.569,-4.5657,-4.5659,-4.5631,-4.5622,-4.5594,-4.5594,-4.5594,-4.5594,-4.5594,-4.5594,-4.5603,-4.5594,-4.5614,-4.5594,-4.5485,-4.5504,-4.5312,-4.5129,-4.4943,-4.4763,-4.4559,-4.4294,-4.4106,-4.3971,-4.3926,-4.3881,-4.3832,-4.3783,-4.3667,-4.3531,-4.3513,-4.3496,-4.3479,-4.3392,-4.3446,-4.3411,-4.3196,-4.2939,-4.2807,-4.2596,-4.2244,-4.2056,-5.5684,-5.5684,-5.5684,-5.5684,-5.5684,-5.5684,-5.5684,-5.5684,-5.5684,-5.5684,-5.5684,-5.5684,-5.5684,-5.5684,-5.5684,-5.5684,-5.5705,-5.5745,-5.5816,-5.5846,-5.5914,-5.5903,-5.5805,-5.5629,-5.5172,-5.3865,-5.3188,-5.2666,-5.2047,-5.1513,-5.1228,-5.1145,-5.1086,-5.1185,-5.1266,-5.1297,-5.1331,-5.1269,-5.082,-4.9922,-4.9023,-4.8183,-4.7441,-4.6465,-4.6289,-4.6289,-4.6289,-4.6289,-4.6289,-4.6289,-4.6289,-4.6289,-4.6289,-4.6289,-4.6289,-4.6289,-4.6289,-4.6262,-4.6199,-4.6169,-4.6137,-4.6022,-4.5982,-4.5958,-4.5874,-4.5821,-4.5805,-4.5798,-4.5791,-4.5798,-4.5788,-4.5758,-4.5816,-4.5918,-4.5921,-4.5924,-4.5975,-4.592,-4.5871,-4.5612,-4.5631,-4.564,-4.564,-4.5648,-4.5631,-4.5622,-4.5612,-4.5603,-4.5603,-4.5522,-4.5322,-4.5107,-4.4896,-4.465,-4.436,-4.425,-4.4121,-4.3974,-4.3945,-4.3913,-4.3881,-4.3783,-4.3667,-4.3548,-4.3513,-4.3496,-4.3496,-4.348,-4.3445,-4.3411,-4.3323,-4.3123,-4.2976,-4.2846,-4.2674,-5.5684,-5.5684,-5.5684,-5.5684,-5.5684,-5.5684,-5.5684,-5.5684,-5.5684,-5.5684,-5.5684,-5.5684,-5.5684,-5.5684,-5.5684,-5.5684,-5.5695,-5.5724,-5.5735,-5.5756,-5.5826,-5.5876,-5.5933,-5.5951,-5.5736,-5.5481,-5.465,-5.3633,-5.2539,-5.2024,-5.1562,-5.1211,-5.1074,-5.1137,-5.1211,-5.1272,-5.1314,-5.1315,-5.1035,-5.0254,-4.9277,-4.8555,-4.7812,-4.6562,-4.6367,-4.6289,-4.6289,-4.6289,-4.6289,-4.6289,-4.6289,-4.6289,-4.6289,-4.6289,-4.6289,-4.6289,-4.6289,-4.6267,-4.6234,-4.6204,-4.6158,-4.6091,-4.6041,-4.5988,-4.5933,-4.5874,-4.5865,-4.5955,-4.5947,-4.5909,-4.5807,-4.6051,-4.6221,-4.6537,-4.683,-4.7023,-4.74,-4.716,-4.6535,-4.6144,-4.5943,-4.5684,-4.5673,-4.5662,-4.5662,-4.5662,-4.5643,-4.5635,-4.5654,-4.554,-4.5352,-4.515,-4.4954,-4.4701,-4.443,-4.4374,-4.4279,-4.4048,-4.3958,-4.3942,-4.391,-4.3881,-4.38,-4.3684,-4.3565,-4.3513,-4.3496,-4.3496,-4.3463,-4.3429,-4.3412,-4.3376,-4.3214,-4.3087,-4.3087,-5.5684,-5.5684,-5.5684,-5.5684,-5.5684,-5.5684,-5.5684,-5.5684,-5.5684,-5.5684,-5.5684,-5.5684,-5.5684,-5.5684,-5.5684,-5.5684,-5.5684,-5.5684,-5.5705,-5.5737,-5.5787,-5.5836,-5.5895,-5.5924,-5.5961,-5.5863,-5.5513,-5.4536,-5.2975,-5.2376,-5.1823,-5.1162,-5.0997,-5.1049,-5.1128,-5.1199,-5.1269,-5.1238,-5.0937,-5.0449,-4.9512,-4.8848,-4.7695,-4.7187,-4.6523,-4.6308,-4.6289,-4.6289,-4.6289,-4.6289,-4.6289,-4.6289,-4.6289,-4.6289,-4.6289,-4.6289,-4.6289,-4.6289,-4.625,-4.6243,-4.6213,-4.6153,-4.6087,-4.6036,-4.5972,-4.5912,-4.6058,-4.6438,-4.7025,-4.7154,-4.7209,-4.7086,-4.7322,-4.7561,-4.7689,-4.7893,-4.8108,-4.7915,-4.7483,-4.6896,-4.6328,-4.5973,-4.5695,-4.5684,-4.5684,-4.5692,-4.57,-4.5692,-4.5695,-4.5601,-4.5447,-4.5352,-4.5184,-4.4954,-4.4688,-4.4533,-4.4402,-4.4181,-4.4023,-4.3989,-4.3942,-4.3929,-4.3881,-4.38,-4.3701,-4.3582,-4.3531,-4.3549,-4.3497,-4.3464,-4.3445,-4.3428,-4.3375,-4.3339,-4.3322,-5.5684,-5.5684,-5.5684,-5.5684,-5.5684,-5.5684,-5.5684,-5.5684,-5.5684,-5.5684,-5.5684,-5.5684,-5.5684,-5.5684,-5.5684,-5.5684,-5.5684,-5.5684,-5.5716,-5.5737,-5.5766,-5.5816,-5.5856,-5.5876,-5.5895,-5.5952,-5.5884,-5.5197,-5.3876,-5.2956,-5.2047,-5.1405,-5.1107,-5.0952,-5.1049,-5.1123,-5.1199,-5.1067,-5.0771,-5.0428,-4.9844,-4.875,-4.7734,-4.7598,-4.6914,-4.6523,-4.6328,-4.6289,-4.6289,-4.6289,-4.6289,-4.6289,-4.6289,-4.6289,-4.6289,-4.6289,-4.6289,-4.6289,-4.6289,-4.6289,-4.6267,-4.6233,-4.6162,-4.6174,-4.6396,-4.6544,-4.6728,-4.7328,-4.7831,-4.8237,-4.8113,-4.8314,-4.8415,-4.8586,-4.8597,-4.8667,-4.8863,-4.8817,-4.8659,-4.7917,-4.6916,-4.66,-4.665,-4.6202,-4.6306,-4.6067,-4.6067,-4.5739,-4.575,-4.5735,-4.5632,-4.5599,-4.5464,-4.5225,-4.4981,-4.4739,-4.4546,-4.4289,-4.4124,-4.4055,-4.4008,-4.3976,-4.3929,-4.3881,-4.38,-4.3701,-4.3651,-4.3583,-4.3549,-4.3515,-4.3496,-4.3479,-4.3444,-4.3427,-4.3428,-5.5684,-5.5684,-5.5684,-5.5684,-5.5684,-5.5684,-5.5684,-5.5684,-5.5684,-5.5684,-5.5684,-5.5684,-5.5684,-5.5684,-5.5684,-5.5684,-5.5684,-5.5684,-5.5695,-5.5705,-5.5705,-5.5756,-5.5816,-5.5797,-5.5846,-5.5905,-5.5914,-5.544,-5.4555,-5.3702,-5.2821,-5.2008,-5.1235,-5.0921,-5.0974,-5.1074,-5.1142,-5.1195,-5.1164,-5.0849,-5.0195,-4.9277,-4.8457,-4.7891,-4.75,-4.7109,-4.6582,-4.6465,-4.6406,-4.6289,-4.6289,-4.6289,-4.6289,-4.6289,-4.6289,-4.6289,-4.6289,-4.6289,-4.6308,-4.6289,-4.6406,-4.6387,-4.6306,-4.6518,-4.7018,-4.7675,-4.8024,-4.8179,-4.8469,-4.8624,-4.872,-4.8546,-4.8829,-4.9235,-4.9498,-4.9865,-5.0128,-4.9679,-4.9502,-4.9328,-4.845,-4.8211,-4.8137,-4.7484,-4.6919,-4.666,-4.6402,-4.6104,-4.5815,-4.5838,-4.5765,-4.57,-4.5648,-4.5427,-4.5225,-4.4981,-4.4726,-4.4438,-4.4279,-4.4162,-4.4073,-4.4023,-4.4008,-4.3961,-4.3881,-4.3816,-4.3783,-4.3718,-4.3634,-4.3565,-4.3548,-4.3513,-4.3479,-4.3479,-4.3497,-5.5684,-5.5684,-5.5684,-5.5684,-5.5684,-5.5684,-5.5684,-5.5684,-5.5684,-5.5684,-5.5684,-5.5684,-5.5684,-5.5684,-5.5684,-5.5684,-5.5684,-5.5684,-5.5684,-5.5684,-5.5714,-5.5724,-5.5735,-5.5745,-5.5796,-5.5826,-5.5837,-5.5818,-5.5091,-5.4102,-5.3009,-5.2221,-5.1389,-5.0898,-5.0914,-5.1037,-5.1097,-5.1156,-5.119,-5.1157,-5.0742,-5.0098,-4.9453,-4.9043,-4.8594,-4.7891,-4.7266,-4.7031,-4.6738,-4.6484,-4.6289,-4.6289,-4.6289,-4.6289,-4.6308,-4.6348,-4.6816,-4.6797,-4.6406,-4.6348,-4.6621,-4.6933,-4.7008,-4.7262,-4.7942,-4.8664,-4.9134,-4.9146,-4.9591,-4.9745,-4.9726,-4.9803,-4.9989,-5.0241,-5.0241,-5.0434,-5.0705,-5.0608,-5.0337,-5.0183,-5.0028,-4.9672,-4.9251,-4.8589,-4.7997,-4.77,-4.7422,-4.7132,-4.6578,-4.6076,-4.5931,-4.5765,-4.5708,-4.5605,-4.5389,-4.5175,-4.4912,-4.4644,-4.4452,-4.4327,-4.4147,-4.4089,-4.4055,-4.4023,-4.3958,-4.3929,-4.3915,-4.3818,-4.3701,-4.3651,-4.3582,-4.3548,-4.3513,-4.3479,-4.3479,-5.5684,-5.5684,-5.5684,-5.5684,-5.5684,-5.5684,-5.5684,-5.5684,-5.5684,-5.5684,-5.5684,-5.5684,-5.5684,-5.5684,-5.5684,-5.5684,-5.5684,-5.5684,-5.5684,-5.5684,-5.5684,-5.5695,-5.5695,-5.5714,-5.5735,-5.5776,-5.5785,-5.5778,-5.5413,-5.4514,-5.3363,-5.2511,-5.1776,-5.1188,-5.0968,-5.0983,-5.1063,-5.1114,-5.1242,-5.1307,-5.1191,-5.0801,-5.041,-5.0019,-4.9531,-4.8828,-4.8086,-4.793,-4.7519,-4.7246,-4.7129,-4.7207,-4.7168,-4.7226,-4.7207,-4.7285,-4.7695,-4.7695,-4.7344,-4.7226,-4.7344,-4.7715,-4.8131,-4.8421,-4.8798,-4.9569,-5.002,-4.9985,-5.0384,-5.0724,-5.0879,-5.0801,-5.0743,-5.0724,-5.0801,-5.0879,-5.0879,-5.0763,-5.0705,-5.0608,-5.0531,-5.0647,-5.0183,-4.9583,-4.9126,-4.8778,-4.8469,-4.8121,-4.7521,-4.6767,-4.6501,-4.6414,-4.6271,-4.6105,-4.5671,-4.5409,-4.5131,-4.4998,-4.4821,-4.45,-4.4337,-4.4187,-4.4089,-4.4055,-4.4023,-4.4008,-4.3961,-4.3865,-4.3802,-4.3734,-4.3666,-4.3582,-4.3548,-4.3513,-4.3479,-5.5684,-5.5684,-5.5684,-5.5684,-5.5684,-5.5684,-5.5684,-5.5684,-5.5684,-5.5684,-5.5684,-5.5684,-5.5684,-5.5684,-5.5684,-5.5684,-5.5684,-5.5684,-5.5684,-5.5684,-5.5684,-5.5684,-5.5684,-5.5695,-5.5695,-5.5714,-5.5724,-5.5756,-5.5623,-5.5036,-5.408,-5.3365,-5.2282,-5.1614,-5.1157,-5.0937,-5.101,-5.1097,-5.1218,-5.1286,-5.133,-5.1147,-5.0918,-5.0391,-5.0117,-4.9726,-4.8887,-4.8828,-4.8652,-4.8418,-4.832,-4.834,-4.8242,-4.8281,-4.8262,-4.834,-4.8613,-4.8652,-4.8535,-4.8398,-4.8652,-4.8965,-4.9322,-4.9642,-4.9795,-5.0501,-5.0843,-5.07,-5.0874,-5.0902,-5.0914,-5.0898,-5.0898,-5.0898,-5.0898,-5.0898,-5.0898,-5.0898,-5.0859,-5.0898,-5.0898,-5.0898,-5.0898,-5.0241,-4.9958,-4.9629,-4.8972,-4.8624,-4.8469,-4.7869,-4.7502,-4.7282,-4.7088,-4.6726,-4.6061,-4.5883,-4.6062,-4.5906,-4.5661,-4.5057,-4.4527,-4.4371,-4.4417,-4.4089,-4.4039,-4.4039,-4.3989,-4.3929,-4.3865,-4.3832,-4.3767,-4.3667,-4.3565,-4.3513,-4.3496,-5.5629,-5.5649,-5.5673,-5.5684,-5.5684,-5.5684,-5.5684,-5.5684,-5.5684,-5.5684,-5.5684,-5.5684,-5.5684,-5.5684,-5.5684,-5.5684,-5.5684,-5.5684,-5.5684,-5.5684,-5.5684,-5.5684,-5.5684,-5.5684,-5.5684,-5.5684,-5.5695,-5.5716,-5.571,-5.5333,-5.4449,-5.3539,-5.2608,-5.1713,-5.1161,-5.0906,-5.0976,-5.1062,-5.1157,-5.1211,-5.1297,-5.1309,-5.1206,-5.0996,-5.0918,-5.0508,-4.9844,-4.9707,-4.9394,-4.9101,-4.9004,-4.9023,-4.9062,-4.9043,-4.9043,-4.9121,-4.9433,-4.9668,-4.957,-4.9336,-4.9141,-4.9805,-5.032,-5.0733,-5.061,-5.1031,-5.1102,-5.1042,-5.1024,-5.1004,-5.0914,-5.0898,-5.0898,-5.0898,-5.0898,-5.0898,-5.0898,-5.0898,-5.0898,-5.0898,-5.0898,-5.0898,-5.0898,-5.084,-5.0647,-5.0442,-4.9745,-4.9165,-4.9088,-4.8894,-4.8488,-4.8159,-4.7947,-4.7753,-4.7127,-4.709,-4.7124,-4.6791,-4.6465,-4.5918,-4.5327,-4.5039,-4.4969,-4.4529,-4.4203,-4.4318,-4.4283,-4.4048,-4.3961,-4.3897,-4.3818,-4.3703,-4.3618,-4.3532,-4.3496,-5.543,-5.5466,-5.5599,-5.5692,-5.5703,-5.5684,-5.5684,-5.5684,-5.5684,-5.5684,-5.5684,-5.5684,-5.5684,-5.5684,-5.5684,-5.5684,-5.5684,-5.5684,-5.5684,-5.5684,-5.5684,-5.5684,-5.5684,-5.5684,-5.5684,-5.5684,-5.5695,-5.5716,-5.5756,-5.5747,-5.4747,-5.359,-5.272,-5.1983,-5.1087,-5.0906,-5.0966,-5.1024,-5.1086,-5.1141,-5.1239,-5.1269,-5.1299,-5.1282,-5.1269,-5.1094,-5.0664,-5.0508,-5.0293,-4.998,-4.9785,-4.9726,-4.9687,-4.9648,-4.9648,-4.9844,-5.0117,-5.0527,-5.0371,-5.0176,-4.9922,-5.0547,-5.0895,-5.1213,-5.1291,-5.1261,-5.1203,-5.1137,-5.1111,-5.1086,-5.0976,-5.0969,-5.0944,-5.0937,-5.0906,-5.0898,-5.0898,-5.0898,-5.0898,-5.0898,-5.0898,-5.0898,-5.0898,-5.0898,-5.084,-5.0724,-5.0434,-5.0028,-4.9997,-4.9745,-4.9339,-4.9049,-4.8817,-4.8604,-4.8365,-4.8087,-4.78,-4.752,-4.7214,-4.693,-4.6465,-4.6115,-4.5777,-4.5509,-4.5199,-4.4854,-4.4785,-4.4843,-4.4456,-4.3963,-4.3851,-4.3754,-4.3617,-4.3531,-4.3496,-5.5053,-5.5147,-5.5442,-5.5607,-5.5621,-5.5703,-5.5703,-5.5651,-5.5651,-5.5673,-5.5684,-5.5684,-5.5684,-5.5684,-5.5684,-5.5684,-5.5684,-5.5684,-5.5684,-5.5684,-5.5684,-5.5684,-5.5684,-5.5684,-5.5684,-5.5684,-5.5695,-5.5714,-5.5714,-5.5724,-5.4774,-5.36,-5.2772,-5.2143,-5.0996,-5.0901,-5.0906,-5.0929,-5.1037,-5.108,-5.1127,-5.1198,-5.1242,-5.1318,-5.1327,-5.1201,-5.1172,-5.1133,-5.0976,-5.0898,-5.0879,-5.0898,-5.0918,-5.0957,-5.0996,-5.1094,-5.1152,-5.1289,-5.1289,-5.1289,-5.1191,-5.1152,-5.1308,-5.1343,-5.1327,-5.1291,-5.1274,-5.1211,-5.118,-5.1176,-5.1131,-5.1081,-5.101,-5.0974,-5.0944,-5.0898,-5.0898,-5.0898,-5.0898,-5.0898,-5.0898,-5.0898,-5.0898,-5.0898,-5.0898,-5.0879,-5.0898,-5.0821,-5.0685,-5.0453,-5.0035,-4.9881,-4.9629,-4.9494,-4.9243,-4.8798,-4.8458,-4.8219,-4.8085,-4.7979,-4.7599,-4.7123,-4.6802,-4.6495,-4.6124,-4.572,-4.5727,-4.5788,-4.5178,-4.4552,-4.3994,-4.3769,-4.3651,-4.3548,-4.3513,-5.4613,-5.4663,-5.4809,-5.4924,-5.5029,-5.5493,-5.5607,-5.5449,-5.5437,-5.5539,-5.5662,-5.5684,-5.5684,-5.5684,-5.5684,-5.5684,-5.5684,-5.5684,-5.5684,-5.5684,-5.5684,-5.5684,-5.5684,-5.5684,-5.5684,-5.5684,-5.5684,-5.5684,-5.5714,-5.5684,-5.4733,-5.3522,-5.2367,-5.1392,-5.1007,-5.0901,-5.0898,-5.0906,-5.0947,-5.1004,-5.1093,-5.1131,-5.1178,-5.1286,-5.1288,-5.1328,-5.1386,-5.1387,-5.1387,-5.1387,-5.1387,-5.1387,-5.1387,-5.1387,-5.1387,-5.1387,-5.1387,-5.1387,-5.1387,-5.1367,-5.1367,-5.1387,-5.1387,-5.1387,-5.1367,-5.1348,-5.1312,-5.1286,-5.1274,-5.1239,-5.1178,-5.1125,-5.1075,-5.1037,-5.099,-5.0929,-5.0898,-5.0898,-5.0898,-5.0898,-5.0898,-5.0898,-5.0898,-5.0898,-5.0898,-5.0898,-5.0898,-5.0898,-5.0801,-5.0801,-5.0589,-5.0569,-5.0453,-5.0337,-5.0113,-4.9687,-4.961,-4.9564,-4.9471,-4.9379,-4.8891,-4.8183,-4.7602,-4.718,-4.685,-4.6571,-4.6501,-4.6304,-4.5749,-4.5162,-4.4564,-4.3966,-4.3684,-4.3617,-4.3566,-5.4173,-5.4225,-5.4409,-5.4503,-5.4652,-5.5224,-5.5406,-5.5288,-5.5178,-5.5243,-5.5369,-5.5497,-5.5562,-5.5585,-5.5671,-5.5684,-5.5684,-5.5684,-5.5684,-5.5684,-5.5684,-5.5684,-5.5684,-5.5684,-5.5684,-5.5684,-5.5684,-5.5684,-5.5684,-5.5684,-5.4741,-5.3261,-5.1848,-5.1288,-5.0984,-5.0852,-5.0893,-5.0901,-5.0914,-5.094,-5.1004,-5.1043,-5.1095,-5.1191,-5.1239,-5.1272,-5.1334,-5.1364,-5.1385,-5.1386,-5.1386,-5.1386,-5.1386,-5.1386,-5.1386,-5.1386,-5.1387,-5.1387,-5.1387,-5.1387,-5.1387,-5.1387,-5.1387,-5.1387,-5.1387,-5.1387,-5.1367,-5.1339,-5.1348,-5.1293,-5.1249,-5.117,-5.1152,-5.1127,-5.1092,-5.1005,-5.0976,-5.0983,-5.0959,-5.0952,-5.0898,-5.0898,-5.0898,-5.0898,-5.0898,-5.0898,-5.0898,-5.0898,-5.0898,-5.0898,-5.0898,-5.0879,-5.0859,-5.0685,-5.0647,-5.0608,-5.0608,-5.0859,-5.06,-5.023,-4.984,-4.9067,-4.8456,-4.7973,-4.791,-4.7727,-4.7201,-4.6818,-4.6452,-4.5844,-4.509,-4.4476,-4.3863,-4.3667,-4.3617,-5.372,-5.3851,-5.4207,-5.4357,-5.45,-5.4804,-5.5067,-5.5217,-5.4924,-5.4806,-5.4851,-5.5178,-5.5288,-5.5339,-5.5551,-5.564,-5.5662,-5.5673,-5.5684,-5.5684,-5.5684,-5.5684,-5.5684,-5.5684,-5.5684,-5.5684,-5.5684,-5.5684,-5.5684,-5.5453,-5.4587,-5.3386,-5.2242,-5.1462,-5.0979,-5.0821,-5.0863,-5.0897,-5.0921,-5.0914,-5.0952,-5.0944,-5.1024,-5.1095,-5.1137,-5.1199,-5.1244,-5.1295,-5.1334,-5.1361,-5.1385,-5.1385,-5.1384,-5.1401,-5.1399,-5.1398,-5.1399,-5.14,-5.14,-5.1384,-5.1385,-5.1386,-5.1386,-5.1387,-5.1387,-5.1387,-5.1387,-5.1387,-5.1367,-5.1348,-5.1301,-5.1282,-5.1238,-5.1229,-5.1191,-5.1138,-5.1109,-5.1068,-5.103,-5.0983,-5.0929,-5.0906,-5.0898,-5.0898,-5.0914,-5.0898,-5.0898,-5.0898,-5.0898,-5.0898,-5.0898,-5.0898,-5.0898,-5.0898,-5.0898,-5.0898,-5.0898,-5.0898,-5.0789,-5.0471,-5.0164,-4.9879,-4.933,-4.8984,-4.9136,-4.887,-4.8145,-4.7673,-4.7382,-4.668,-4.5976,-4.5131,-4.4556,-4.3863,-4.3684,-5.3357,-5.34,-5.3521,-5.3564,-5.3663,-5.387,-5.4326,-5.4851,-5.4591,-5.456,-5.4806,-5.4895,-5.4938,-5.4966,-5.5269,-5.5369,-5.5485,-5.5596,-5.5673,-5.5684,-5.5682,-5.5684,-5.5684,-5.5673,-5.5684,-5.5684,-5.5684,-5.5684,-5.5549,-5.5261,-5.4453,-5.3222,-5.2472,-5.1607,-5.102,-5.0749,-5.0812,-5.0863,-5.0888,-5.0893,-5.0909,-5.0917,-5.0995,-5.105,-5.1081,-5.1128,-5.1187,-5.1213,-5.1252,-5.1304,-5.1324,-5.1346,-5.1385,-5.1402,-5.1398,-5.1398,-5.1398,-5.1398,-5.1398,-5.1399,-5.1402,-5.1384,-5.1386,-5.1386,-5.1387,-5.1387,-5.1387,-5.1387,-5.1387,-5.1367,-5.1348,-5.1331,-5.1302,-5.1286,-5.1261,-5.1222,-5.1178,-5.1152,-5.1108,-5.1042,-5.0991,-5.0947,-5.094,-5.0929,-5.0944,-5.0914,-5.0898,-5.0898,-5.0898,-5.0898,-5.0898,-5.0898,-5.0898,-5.0898,-5.0898,-5.0898,-5.0898,-5.0882,-5.0797,-5.069,-5.0449,-5.0184,-4.9968,-4.974,-4.9488,-4.922,-4.8874,-4.849,-4.8122,-4.7737,-4.7034,-4.6112,-4.5247,-4.4554,-4.3937,-5.3185,-5.3185,-5.3185,-5.3251,-5.3318,-5.34,-5.3776,-5.4192,-5.4071,-5.4142,-5.4366,-5.4476,-5.4538,-5.4654,-5.4938,-5.5178,-5.5326,-5.5437,-5.5573,-5.5692,-5.5585,-5.5629,-5.564,-5.5607,-5.5607,-5.564,-5.5703,-5.5684,-5.5549,-5.5203,-5.4491,-5.3241,-5.2558,-5.176,-5.1049,-5.0712,-5.0749,-5.0803,-5.0827,-5.0861,-5.0885,-5.0901,-5.0959,-5.1004,-5.1024,-5.1066,-5.1128,-5.1162,-5.1195,-5.1235,-5.1271,-5.1291,-5.1346,-5.1389,-5.139,-5.139,-5.139,-5.139,-5.139,-5.1394,-5.1397,-5.14,-5.1402,-5.1385,-5.1386,-5.1387,-5.1387,-5.1387,-5.1387,-5.1387,-5.1367,-5.1364,-5.1341,-5.1337,-5.1301,-5.1277,-5.1263,-5.1229,-5.1183,-5.1128,-5.1084,-5.1043,-5.0998,-5.099,-5.0959,-5.0921,-5.0898,-5.0898,-5.0898,-5.0898,-5.0898,-5.0898,-5.0898,-5.0898,-5.0898,-5.0898,-5.0898,-5.0898,-5.0882,-5.0771,-5.0625,-5.0446,-5.0195,-4.9857,-4.9514,-4.9296,-4.9087,-4.9044,-4.877,-4.8364,-4.7923,-4.7129,-4.6168,-4.5268,-4.4722,-5.3185,-5.3185,-5.3185,-5.3212,-5.3297,-5.3297,-5.338,-5.3479,-5.3501,-5.3559,-5.3755,-5.3943,-5.4139,-5.4279,-5.4572,-5.4861,-5.5037,-5.5191,-5.5382,-5.5629,-5.5345,-5.5357,-5.5485,-5.5468,-5.5473,-5.5607,-5.5703,-5.5684,-5.5684,-5.5395,-5.4684,-5.3299,-5.3126,-5.2279,-5.0923,-5.0712,-5.0712,-5.072,-5.0766,-5.0801,-5.0891,-5.0908,-5.0897,-5.0925,-5.0937,-5.0961,-5.1056,-5.1105,-5.1125,-5.1171,-5.1198,-5.121,-5.1288,-5.1335,-5.1345,-5.1396,-5.1398,-5.14,-5.1402,-5.1385,-5.1389,-5.1393,-5.1395,-5.1401,-5.1385,-5.1386,-5.1387,-5.1387,-5.1387,-5.1387,-5.1387,-5.1387,-5.1367,-5.1367,-5.1348,-5.1328,-5.1306,-5.1293,-5.1258,-5.1207,-5.1161,-5.1113,-5.1095,-5.1078,-5.1066,-5.0977,-5.0944,-5.0952,-5.0937,-5.0937,-5.0914,-5.0914,-5.0898,-5.0898,-5.0898,-5.0898,-5.0898,-5.0898,-5.0898,-5.0866,-5.0717,-5.0558,-5.0385,-4.9993,-4.9598,-4.9442,-4.9289,-4.9197,-4.9098,-4.8863,-4.8421,-4.7997,-4.7185,-4.6244,-4.5345,-5.3185,-5.3185,-5.3185,-5.3206,-5.3209,-5.3209,-5.3248,-5.3272,-5.3272,-5.3394,-5.3539,-5.3639,-5.3737,-5.3907,-5.4157,-5.4406,-5.4588,-5.4866,-5.5105,-5.5204,-5.5083,-5.5091,-5.5339,-5.5256,-5.5295,-5.5437,-5.5562,-5.5673,-5.5684,-5.5491,-5.4895,-5.3433,-5.3183,-5.2356,-5.0933,-5.0779,-5.0702,-5.0693,-5.0712,-5.0776,-5.0874,-5.0899,-5.0897,-5.0901,-5.0914,-5.0906,-5.0966,-5.0974,-5.1037,-5.1097,-5.1068,-5.1116,-5.1226,-5.1222,-5.1297,-5.1367,-5.1371,-5.1371,-5.1394,-5.1398,-5.1402,-5.1387,-5.1393,-5.1399,-5.1384,-5.1385,-5.1387,-5.1387,-5.1387,-5.1387,-5.1387,-5.1387,-5.1387,-5.1387,-5.1387,-5.1387,-5.1367,-5.1335,-5.1314,-5.1272,-5.1219,-5.1211,-5.1202,-5.1185,-5.1156,-5.1113,-5.1074,-5.1037,-5.0998,-5.0997,-5.0952,-5.0937,-5.0906,-5.0898,-5.0898,-5.0898,-5.0898,-5.0898,-5.0898,-5.0866,-5.0814,-5.0653,-5.0446,-5.0056,-4.9707,-4.9554,-4.9411,-4.9244,-4.9146,-4.9061,-4.8902,-4.846,-4.824,-4.75,-4.6342,-5.3185,-5.3185,-5.3185,-5.3185,-5.3185,-5.3185,-5.3185,-5.3185,-5.3185,-5.3269,-5.3357,-5.3418,-5.3479,-5.3598,-5.3833,-5.4015,-5.4209,-5.4444,-5.4758,-5.4895,-5.4821,-5.4832,-5.4924,-5.4966,-5.4981,-5.5091,-5.5389,-5.5551,-5.5651,-5.5588,-5.4991,-5.3837,-5.3414,-5.2568,-5.1279,-5.0952,-5.0683,-5.0693,-5.0683,-5.075,-5.0821,-5.0829,-5.0846,-5.0852,-5.0877,-5.0885,-5.0877,-5.0877,-5.0914,-5.0969,-5.0949,-5.0978,-5.105,-5.1074,-5.1167,-5.1258,-5.13,-5.1333,-5.1367,-5.1394,-5.1396,-5.1402,-5.1384,-5.1391,-5.1396,-5.14,-5.1385,-5.1387,-5.1387,-5.1387,-5.1387,-5.1387,-5.1387,-5.1387,-5.1387,-5.1387,-5.1387,-5.1365,-5.136,-5.1338,-5.1304,-5.1291,-5.1274,-5.1252,-5.1216,-5.1183,-5.1147,-5.1142,-5.1106,-5.1062,-5.0998,-5.0981,-5.0959,-5.0914,-5.0898,-5.0898,-5.0898,-5.0898,-5.0898,-5.0882,-5.085,-5.07,-5.0497,-5.0199,-4.9955,-4.9721,-4.9573,-4.938,-4.9244,-4.9146,-4.9046,-4.8905,-4.8739,-4.85,-4.7542,-5.3185,-5.3185,-5.3185,-5.3185,-5.3185,-5.3185,-5.3185,-5.3185,-5.3185,-5.3185,-5.3227,-5.3293,-5.3359,-5.3479,-5.3598,-5.3795,-5.3998,-5.4124,-5.4432,-5.4525,-5.4364,-5.4495,-5.4544,-5.4511,-5.4635,-5.4876,-5.5191,-5.5425,-5.5596,-5.5575,-5.5261,-5.4472,-5.3626,-5.276,-5.1923,-5.1183,-5.0683,-5.0683,-5.0693,-5.0693,-5.0702,-5.0701,-5.0747,-5.0801,-5.0846,-5.0855,-5.0846,-5.0846,-5.0836,-5.0852,-5.0863,-5.0905,-5.0944,-5.0979,-5.1047,-5.1141,-5.1214,-5.1262,-5.133,-5.1369,-5.1373,-5.1394,-5.1394,-5.1398,-5.1387,-5.1394,-5.14,-5.1387,-5.1387,-5.1387,-5.1387,-5.1387,-5.1387,-5.1387,-5.1387,-5.1387,-5.1387,-5.1387,-5.1387,-5.1387,-5.1387,-5.1367,-5.1348,-5.1328,-5.1289,-5.125,-5.1218,-5.1218,-5.1199,-5.1128,-5.1084,-5.1037,-5.101,-5.0988,-5.0921,-5.0898,-5.0898,-5.0898,-5.0898,-5.0898,-5.0882,-5.0771,-5.0673,-5.0527,-5.0275,-5.0025,-4.9749,-4.9558,-4.9411,-4.9244,-4.9115,-4.9013,-4.8889,-4.8669,-4.8466,-5.3185,-5.3185,-5.3185,-5.3185,-5.3185,-5.3185,-5.3185,-5.3185,-5.3185,-5.3185,-5.3206,-5.3206,-5.3272,-5.3339,-5.3359,-5.3504,-5.3661,-5.3813,-5.398,-5.4156,-5.4054,-5.4159,-5.4281,-5.4281,-5.4511,-5.4761,-5.5023,-5.5288,-5.5369,-5.5504,-5.5308,-5.4547,-5.3663,-5.2797,-5.1952,-5.1279,-5.0798,-5.0741,-5.0683,-5.0702,-5.0693,-5.0702,-5.0729,-5.0784,-5.0821,-5.0829,-5.0821,-5.081,-5.0829,-5.0801,-5.0773,-5.0805,-5.0863,-5.0905,-5.0959,-5.1045,-5.1113,-5.1195,-5.1252,-5.13,-5.1308,-5.1392,-5.1392,-5.1373,-5.1382,-5.1389,-5.1397,-5.1384,-5.1387,-5.1387,-5.1387,-5.1387,-5.1387,-5.1387,-5.1387,-5.1387,-5.1387,-5.1387,-5.1387,-5.1387,-5.1387,-5.1387,-5.1387,-5.1367,-5.1367,-5.1328,-5.1289,-5.1288,-5.1279,-5.1225,-5.1152,-5.1116,-5.108,-5.099,-5.0929,-5.0906,-5.0898,-5.0898,-5.0898,-5.0898,-5.0898,-5.0898,-5.0789,-5.0682,-5.0537,-5.0298,-5.0031,-4.9762,-4.9514,-4.9352,-4.9181,-4.9049,-4.8943,-4.8853,-4.8651]},{"header":{"parameterUnit":"m.s-1","parameterCategory":1,"la1":31.0,"la2":29.5877,"lo1":-88.7671,"lo2":-86.6584,"dy":0.0162,"dx":0.0185,"nx":115,"ny":88,"refTime":"2024-05-10T18:00:00:Z","depth":0,"parameterNumber":3,"parameterNumberName":"V-component_of_WINDS"},"data":[0.0,0.0,0.0,0.0,0.0,0.0,0.0,0.0,0.0,0.0,0.0,0.0,0.0,0.0,0.0,0.0,0.0,0.0,0.0,0.0,0.0,0.0,0.0,0.0,0.0,0.0,0.0,0.0,0.0,0.0,0.0,0.0,0.0,0.0,0.0,0.0,0.0,0.0,0.0,0.0,0.0,0.0,0.0,0.0,0.0,0.0,0.0,0.0,0.0,0.0,0.0,0.0,0.0,0.0,0.0,0.0,0.0,0.0,0.0,0.0,0.0,0.0,0.0,0.0,0.0,0.0,0.0,0.0,0.0,0.0,0.0,0.0,0.0,0.0,0.0,0.0,0.0,0.0,0.0,0.0,0.0,0.0,0.0,0.0,0.0,0.0,0.0,0.0,0.0,0.0,0.0,0.0,0.0,0.0,0.0,0.0,0.0,0.0,0.0,0.0,0.0,0.0,0.0,0.0,0.0,0.0,0.0,0.0,0.0,0.0,0.0,0.0,0.0,0.0,0.0,0.0,0.0,0.0,0.0,0.0,0.0,0.0,0.0,0.0,0.0,0.0,0.0,0.0,0.0,0.0,0.0,0.0,0.0,0.0,0.0,0.0,0.0,0.0,0.0,0.0,0.0,0.0,0.0,0.0,0.0,0.0,0.0,0.0,0.0,0.0,0.0,0.0,0.0,0.0,0.0,0.0,0.0,0.0,0.0,0.0,0.0,0.0,0.0,0.0,0.0,0.0,0.0,0.0,0.0,0.0,0.0,0.0,0.0,0.0,0.0,0.0,0.0,0.0,0.0,0.0,0.0,0.0,0.0,0.0,0.0,0.0,0.0,0.0,0.0,0.0,0.0,0.0,0.0,0.0,0.0,0.0,0.0,0.0,0.0,0.0,0.0,0.0,0.0,0.0,0.0,0.0,0.0,0.0,0.0,0.0,0.0,0.0,0.0,0.0,0.0,0.0,0.0,0.0,0.0,0.0,0.0,0.0,0.0,0.0,0.0,0.0,0.0,0.0,0.0,0.0,0.0,0.0,0.0,0.0,0.0,0.0,0.0,0.0,0.0,0.0,0.0,0.0,0.0,0.0,0.0,0.0,0.0,0.0,0.0,0.0,0.0,0.0,0.0,0.0,0.0,0.0,0.0,0.0,0.0,0.0,0.0,0.0,0.0,0.0,0.0,0.0,0.0,0.0,0.0,0.0,0.0,0.0,0.0,0.0,0.0,0.0,0.0,0.0,0.0,0.0,0.0,0.0,0.0,0.0,0.0,0.0,0.0,0.0,0.0,0.0,0.0,0.0,0.0,0.0,0.0,0.0,0.0,0.0,0.0,0.0,0.0,0.0,0.0,0.0,0.0,0.0,0.0,0.0,0.0,0.0,0.0,0.0,0.0,0.0,0.0,0.0,0.0,0.0,0.0,0.0,0.0,0.0,0.0,0.0,0.0,0.0,0.0,0.0,0.0,0.0,0.0,0.0,0.0,0.0,0.0,0.0,0.0,0.0,0.0,0.0,0.0,0.0,0.0,0.0,0.0,0.0,0.0,0.0,0.0,0.0,0.0,0.0,0.0,0.0,0.0,0.0,0.0,0.0,0.0,0.0,0.0,0.0,0.0,0.0,0.0,0.0,0.0,0.0,0.0,0.0,0.0,0.0,0.0,0.0,0.0,0.0,0.0,0.0,0.0,0.0,0.0,0.0,0.0,0.0,0.0,0.0,0.0,0.0,0.0,0.0,0.0,0.0,0.0,0.0,0.0,0.0,0.0,0.0,0.0,0.0,0.0,0.0,0.0,0.0,0.0,0.0,0.0,0.0,0.0,0.0,0.0,0.0,0.0,0.0,0.0,0.0,0.0,0.0,0.0,0.0,0.0,0.0,0.0,0.0,0.0,0.0,0.0,0.0,0.0,0.0,0.0,0.0,0.0,0.0,0.0,0.0,0.0,0.0,0.0,0.0,0.0,0.0,0.0,0.0,0.0,0.0,0.0,0.0,0.0,0.0,0.0,0.0,0.0,0.0,0.0,0.0,0.0,0.0,0.0,0.0,0.0,0.0,0.0,0.0,0.0,0.0,0.0,0.0,0.0,0.0,0.0,0.0,0.0,0.0,0.0,0.0,0.0,0.0,0.0,0.0,0.0,0.0,0.0,0.0,0.0,0.0,0.0,0.0,0.0,0.0,0.0,0.0,0.0,0.0,0.0,0.0,0.0,0.0,0.0,0.0,0.0,0.0,0.0,0.0,0.0,0.0,0.0,0.0,0.0,0.0,0.0,0.0,0.0,0.0,0.0,0.0,0.0,0.0,0.0,0.0,0.0,0.0,0.0,0.0,0.0,0.0,0.0,0.0,0.0,0.0,0.0,0.0,0.0,0.0,0.0,0.0,0.0,0.0,0.0,0.0,0.0,0.0,0.0,0.0,0.0,0.0,0.0,0.0,0.0,0.0,0.0,0.0,0.0,0.0,0.0,0.0,0.0,0.0,0.0,0.0,0.0,0.0,0.0,0.0,0.0,0.0,0.0,0.0,0.0,0.0,0.0,0.0,0.0,0.0,0.0,0.0,0.0,0.0,0.0,0.0,0.0,0.0,0.0,0.0,0.0,0.0,0.0,0.0,0.0,0.0,0.0,0.0,0.0,0.0,0.0,0.0,0.0,0.0,0.0,0.0,0.0,0.0,0.0,0.0,0.0,0.0,0.0,0.0,0.0,0.0,0.0,0.0,0.0,0.0,0.0,0.0,0.0,0.0,0.0,0.0,0.0,0.0,0.0,0.0,0.0,0.0,0.0,0.0,0.0,0.0,0.0,0.0,0.0,0.0,0.0,0.0,0.0,0.0,0.0,0.0,0.0,0.0,0.0,0.0,0.0,0.0,0.0,0.0,0.0,0.0,0.0,0.0,0.0,0.0,0.0,0.0,0.0,0.0,0.0,0.0,0.0,0.0,0.0,0.0,0.0,0.0,0.0,0.0,0.0,0.0,0.0,0.0,0.0,0.0,0.0,0.0,0.0,0.0,0.0,0.0,0.0,0.0,0.0,0.0,0.0,0.0,0.0,0.0,0.0,0.0,0.0,0.0,0.0,0.0,0.0,0.0,0.0,0.0,0.0,0.0,0.0,0.0,0.0,0.0,0.0,0.0,0.0,0.0,0.0,0.0,0.0,0.0,0.0,0.0,0.0,0.0,0.0,0.0,0.0,0.0,0.0,0.0,0.0,0.0,0.0,0.0,0.0,0.0,0.0,0.0,0.0,0.0,0.0,0.0,0.0,0.0,0.0,0.0,0.0,0.0,0.0,0.0,0.0,0.0,0.0,0.0,0.0,0.0,0.0,0.0,0.0,0.0,0.0,0.0,0.0,0.0,0.0,0.0,0.0,0.0,0.0,0.0,0.0,0.0,0.0,0.0,0.0,0.0,0.0,0.0,0.0,0.0,0.0,0.0,0.0,0.0,0.0,0.0,0.0,0.0,0.0,0.0,0.0,0.0,0.0,0.0,0.0,0.0,0.0,0.0,0.0,0.0,0.0,0.0,0.0,0.0,0.0,0.0,0.0,0.0,0.0,0.0,0.0,0.0,0.0,0.0,0.0,0.0,0.0,0.0,0.0,0.0,0.0,0.0,0.0,0.0,0.0,0.0,0.0,0.0,0.0,0.0,0.0,0.0,0.0,0.0,0.0,0.0,0.0,0.0,0.0,0.0,0.0,0.0,0.0,0.0,0.0,0.0,0.0,0.0,0.0,0.0,0.0,0.0,0.0,0.0,0.0,0.0,0.0,0.0,0.0,0.0,0.0,0.0,0.0,0.0,0.0,0.0,0.0,0.0,0.0,0.0,0.0,0.0,0.0,0.0,0.0,0.0,0.0,0.0,0.0,0.0,0.0,0.0,0.0,0.0,0.0,0.0,0.0,0.0,0.0,0.0,0.0,0.0,0.0,0.0,0.0,0.0,0.0,0.0,0.0,0.0,0.0,0.0,0.0,0.0,0.0,0.0,0.0,0.0,0.0,0.0,0.0,0.0,0.0,0.0,0.0,0.0,0.0,0.0,0.0,0.0,0.0,0.0,0.0,0.0,0.0,0.0,0.0,0.0,0.0,0.0,0.0,0.0,0.0,0.0,0.0,0.0,0.0,0.0,0.0,0.0,0.0,0.0,0.0,0.0,0.0,0.0,0.0,0.0,0.0,0.0,0.0,0.0,0.0,0.0,0.0,0.0,0.0,0.0,0.0,0.0,0.0,0.0,0.0,0.0,0.0,0.0,0.0,0.0,0.0,0.0,0.0,0.0,0.0,0.0,0.942,0.0,0.0,0.0,0.0,0.0,0.0,0.0,0.0,0.0,0.0,0.0,0.0,0.0,0.0,0.0,0.0,0.0,0.0,0.0,0.0,0.0,0.0,0.0,0.0,0.0,0.0,0.0,0.0,0.0,0.0,0.0,0.0,0.0,0.0,0.0,0.0,0.0,0.0,0.0,0.0,0.0,0.0,0.0,0.0,0.0,0.0,0.0,0.0,0.0,0.0,0.0,0.0,0.0,0.0,0.0,0.0,0.0,0.0,0.0,0.0,0.0,0.0,0.0,0.0,0.0,0.0,0.0,0.0,0.0,0.0,0.0,0.0,0.0,0.0,0.0,0.0,0.0,0.0,0.0,0.0,0.0,0.0,0.0,0.0,0.0,0.0,0.0,0.0,0.0,0.0,0.0,0.0,0.0,0.0,0.0,0.0,0.0,0.0,0.0,0.0,0.0,0.0,0.0,0.0,0.0,0.0,0.0,0.0,0.0,0.0,0.8398,0.849,0.8194,0.8398,0.9151,0.0,0.0,0.0,0.0,0.0,0.0,0.0,0.0,0.0,0.0,0.0,0.0,0.0,0.0,0.0,0.0,0.0,0.0,0.0,0.0,0.0,0.0,0.0,0.0,0.0,0.0,0.0,0.0,0.0,0.0,0.0,0.0,0.0,0.0,0.0,0.0,0.0,0.0,0.0,0.0,0.0,0.0,0.0,0.0,0.0,0.0,0.0,0.0,0.0,0.0,0.0,0.0,0.0,0.0,0.0,0.0,0.0,0.0,0.0,0.0,0.0,0.0,0.0,0.0,0.0,0.0,0.0,0.0,0.0,0.0,0.0,0.0,0.0,0.0,0.0,0.0,0.0,0.0,0.0,0.0,0.0,0.0,0.0,0.0,0.0,0.0,0.0,0.0,0.0,0.0,0.0,0.0,0.0,0.0,0.0,0.0,0.0,0.0,0.0,0.0,0.0,0.0,0.0,0.0,0.0,0.0,0.0,0.0,0.0,0.0,0.0,0.0,0.7484,0.765,0.8553,0.0,0.0,0.0,0.0,0.0,0.0,0.0,0.0,0.0,0.0,0.0,0.0,0.0,0.0,0.0,0.0,0.0,0.0,0.0,0.0,0.0,0.0,0.0,0.0,0.0,0.0,0.0,0.0,0.0,0.0,0.0,0.0,0.0,0.0,0.0,0.0,0.0,0.0,0.0,0.0,0.0,0.0,0.0,0.0,0.0,0.0,0.0,0.0,0.0,0.0,0.0,0.0,0.0,0.0,0.0,0.0,0.0,0.0,0.0,0.0,0.0,0.0,0.0,0.0,0.0,0.0,0.0,0.0,0.0,0.0,0.0,0.0,0.0,0.0,0.0,0.0,0.0,0.0,0.0,0.0,0.0,0.0,0.0,0.0,0.0,0.0,0.0,0.0,0.0,0.0,0.0,0.0,0.0,0.0,0.0,0.0,0.0,0.0,0.0,0.0,0.0,0.0,0.0,0.0,0.0,0.0,0.0,0.0,0.0,0.0,0.702,0.6427,0.6985,0.0,0.7478,0.0,0.0,0.0,0.0,0.0,0.0,0.0,0.0,0.0,0.0,0.0,0.0,0.0,0.0,0.0,0.0,0.0,0.0,0.0,0.0,0.0,0.0,0.0,0.0,0.0,0.0,0.0,0.0,0.0,0.0,0.0,0.0,0.0,0.0,0.0,0.0,0.0,0.0,0.0,0.0,0.0,0.0,0.0,0.0,0.0,0.0,0.0,0.0,0.0,0.0,0.0,0.0,0.0,0.0,0.0,0.0,0.0,0.0,0.0,0.0,0.0,0.0,0.0,0.0,0.0,0.0,0.0,0.0,0.0,0.0,0.0,0.0,0.0,0.0,0.0,0.0,0.0,0.0,0.0,0.0,0.0,0.0,0.0,0.0,0.0,0.0,0.0,0.0,0.0,0.0,0.0,0.0,0.0,0.0,0.0,0.0,0.0,0.0,0.0,0.0,0.0,0.0,0.0,0.0,0.0,0.0,0.0,0.0,0.0,0.0,0.6294,0.6758,0.7291,0.7216,0.0,0.0,0.0,0.0,0.0,0.0,0.0,0.0,0.0,0.0,0.0,0.0,0.0,0.0,0.0,0.0,0.0,0.0,0.0,0.0,0.0,0.0,0.0,0.0,0.0,0.0,0.0,0.0,0.0,0.0,0.0,0.0,0.0,0.0,0.0,0.0,0.0,0.0,0.0,0.0,0.0,0.0,0.0,0.0,0.0,0.0,0.0,0.0,0.0,0.0,0.0,0.0,0.0,0.0,0.0,0.0,0.0,0.0,0.0,0.0,0.0,0.0,0.0,0.0,0.0,0.0,0.0,0.0,0.0,0.0,0.0,0.0,0.0,0.0,0.0,0.0,0.0,0.0,0.0,0.0,0.0,0.0,0.0,0.0,0.0,0.0,0.0,0.0,0.0,0.0,0.0,0.0,0.0,0.0,0.0,0.0,0.0,0.0,0.0,0.0,0.0,0.0,0.0,0.0,0.0,0.0,0.0,0.0,0.0,0.0,0.5485,0.5958,0.705,0.7345,0.7017,0.6028,0.0,0.0,0.0,0.0,0.0,0.0,0.0,0.0,0.0,0.0,0.0,0.0,0.0,0.0,0.0,0.0,0.0,0.0,0.0,0.0,0.0,0.0,0.0,0.0,0.0,0.0,0.0,0.0,0.0,0.0,0.0,0.0,0.0,0.0,0.0,0.0,0.0,0.0,0.0,0.0,0.0,0.0,0.0,0.0,0.0,0.0,0.0,0.0,0.0,0.0,0.0,0.0,0.0,0.0,0.0,0.0,0.0,0.0,0.0,0.0,0.0,0.0,0.0,0.0,0.0,0.0,0.0,0.0,0.0,0.0,0.0,0.0,0.0,0.0,0.0,0.0,0.0,0.0,0.0,0.0,0.0,0.0,0.0,0.0,0.0,0.0,0.0,0.0,0.0,0.0,0.0,0.0,0.0,0.0,0.0,0.0,0.0,0.0,0.0,0.0,0.0,0.0,0.0,0.0,0.0,0.0,0.0,0.0,0.614,0.5951,0.6188,0.6873,0.6915,0.6612,0.0,0.0,0.0,0.0,0.0,0.0,0.0,0.0,0.0,0.0,0.0,0.0,0.0,0.0,0.0,0.0,0.0,0.0,0.0,0.0,0.0,0.0,0.0,0.0,0.0,0.0,0.0,0.0,0.0,0.0,0.0,0.0,0.0,0.0,0.0,0.0,0.0,0.0,0.0,0.0,0.0,0.0,0.0,0.0,0.0,0.0,0.0,0.0,0.0,0.0,0.0,0.0,0.0,0.0,0.0,0.0,0.0,0.0,0.0,0.0,0.0,0.0,0.0,0.0,0.0,0.0,0.0,0.0,0.0,0.0,0.0,0.0,0.0,0.0,0.0,0.0,0.0,0.0,0.0,0.0,0.0,0.0,0.0,0.0,0.0,0.0,0.0,0.0,0.0,0.0,0.0,0.0,0.0,0.0,0.0,0.0,0.0,0.0,0.0,0.0,0.0,0.0,0.0,0.0,0.0,0.0,0.0,0.0,0.0,0.5625,0.5825,0.5822,0.5709,0.6479,0.6595,0.0,0.0,0.0,0.0,0.0,0.0,0.0,0.0,0.0,0.0,0.0,0.0,0.0,0.0,0.0,0.0,0.0,0.0,0.0,0.0,0.0,0.0,0.0,0.0,0.0,0.0,0.0,0.0,0.0,0.0,0.0,0.0,0.0,0.0,0.0,0.0,0.0,0.0,0.0,0.0,0.0,0.0,0.0,0.0,0.0,0.0,0.0,0.0,0.0,0.0,0.0,0.0,0.0,0.0,0.0,0.0,0.0,0.0,0.0,0.0,0.0,0.0,0.0,0.0,0.0,0.0,0.0,0.0,0.0,0.0,0.0,0.0,0.0,0.0,0.0,0.0,0.0,0.0,0.0,0.0,0.0,0.0,0.0,0.0,0.0,0.0,0.0,0.0,0.0,0.0,0.0,0.0,0.0,0.0,0.0,0.0,0.0,0.0,0.0,0.0,0.0,0.0,0.0,0.0,0.0,0.0,0.0,0.0,0.0,0.5515,0.0,0.6015,0.5673,0.6247,0.6363,0.0,0.0,0.0,0.0,0.0,0.0,0.0,0.0,0.0,0.0,0.0,0.0,0.0,0.0,0.0,0.0,0.0,0.0,0.0,0.0,0.0,0.0,0.0,0.0,0.0,0.0,0.0,0.0,0.0,0.0,0.0,0.0,0.0,0.0,0.0,0.0,0.0,0.0,0.0,0.0,0.0,0.0,0.0,0.0,0.0,0.0,0.0,0.0,0.0,0.0,0.0,0.0,0.0,0.0,0.0,0.0,0.0,0.0,0.0,0.0,0.0,0.0,0.0,0.0,0.0,0.0,0.0,0.0,0.0,0.0,0.0,0.0,0.0,0.0,0.0,0.0,0.0,0.0,0.0,0.0,0.0,0.0,0.0,0.0,0.0,0.0,0.0,0.0,0.0,0.0,0.0,0.0,0.0,0.0,0.0,0.0,0.0,0.0,0.0,0.0,0.0,0.0,0.0,0.0,0.0,0.0,0.0,0.0,0.5287,0.5864,0.6479,0.6745,0.6822,0.6209,0.5899,0.0,0.0,0.0,0.0,0.0,0.0,0.0,0.0,0.0,0.0,0.0,0.0,0.0,0.0,0.0,0.0,0.0,0.0,0.0,0.0,0.0,0.0,0.0,0.0,0.0,0.0,0.0,0.0,0.0,0.0,0.0,0.0,0.0,0.0,0.0,0.0,0.0,0.0,0.0,0.0,0.0,0.0,0.0,0.0,0.0,0.0,0.0,0.0,0.0,0.0,0.0,0.0,0.0,0.0,0.0,0.0,0.0,0.0,0.0,0.0,0.0,0.0,0.0,0.0,0.0,0.0,0.0,0.0,0.0,0.0,0.0,0.0,0.0,0.0,0.0,0.0,0.0,0.0,0.0,0.0,0.0,0.0,0.0,0.0,0.0,0.0,0.0,0.0,0.0,0.0,0.0,0.0,0.0,0.0,0.0,0.0,0.0,0.0,0.0,0.0,0.0,0.0,0.0,0.0,0.0,0.0,0.0,0.0,0.0,0.4888,0.5321,0.5473,0.5198,0.5667,0.5899,0.0,0.0,0.0,0.0,0.0,0.0,0.0,0.0,0.0,0.0,0.0,0.0,0.0,0.0,0.0,0.0,0.0,0.0,0.0,0.0,0.0,0.0,0.0,0.0,0.0,0.0,0.0,0.0,0.0,0.0,0.0,0.0,0.0,0.0,0.0,0.0,0.0,0.0,0.0,0.0,0.0,0.0,0.0,0.0,0.0,0.0,0.0,0.0,0.0,0.0,0.0,0.0,0.0,0.0,0.0,0.0,0.0,0.0,0.0,0.0,0.0,0.0,0.0,0.0,0.0,0.0,0.0,0.0,0.0,0.0,0.0,0.0,0.0,0.0,0.0,0.0,0.0,0.0,0.0,0.0,0.0,0.0,0.0,0.0,0.0,0.0,0.0,0.0,0.0,0.0,0.0,0.0,0.0,0.0,0.0,0.0,0.0,0.0,0.0,0.0,0.0,0.0,0.0,0.0,0.0,0.0,0.0,0.0,0.0,0.4541,0.4826,0.4859,0.4662,0.5243,0.5553,0.5556,0.0,0.0,0.0,0.0,0.0,0.0,0.0,0.0,0.0,0.0,0.0,0.0,0.0,0.0,0.0,0.0,0.0,0.0,0.0,0.0,0.0,0.0,0.0,0.0,0.0,0.0,0.0,0.0,0.0,0.0,0.0,0.0,0.0,0.0,0.0,0.0,0.0,0.0,0.0,0.0,0.0,0.0,0.0,0.0,0.0,0.0,0.0,0.0,0.0,0.0,0.0,0.0,0.0,0.0,0.0,0.0,0.0,0.0,0.0,0.0,0.0,0.0,0.0,0.0,0.0,0.0,0.0,0.0,0.0,0.0,0.0,0.0,0.0,0.0,0.0,0.0,0.0,0.0,0.0,0.0,0.0,0.0,0.0,0.0,0.0,0.0,0.0,0.0,0.0,0.0,0.0,0.0,0.0,0.0,0.0,0.0,0.0,0.0,0.0,0.0,0.0,0.0,0.0,0.0,0.0,0.0,0.0,0.0,0.4752,0.4916,0.4998,0.499,0.4998,0.5029,0.0,0.0,0.0,0.0,0.0,0.0,0.0,0.0,0.0,0.0,0.0,0.0,0.0,0.0,0.0,0.0,0.0,0.0,0.0,0.0,0.0,0.0,0.0,0.0,0.0,0.0,0.0,0.0,0.0,0.0,0.0,0.0,0.0,0.0,0.0,0.0,0.0,0.0,0.0,0.0,0.0,0.0,0.0,0.0,0.0,0.0,0.0,0.0,0.0,0.0,0.0,0.0,0.0,0.0,0.0,0.0,0.0,0.0,0.0,0.0,0.0,0.0,0.0,0.0,0.0,0.0,0.0,0.0,0.0,0.0,0.0,0.0,0.0,0.0,0.0,0.0,0.0,0.0,0.0,0.0,0.0,0.0,0.0,0.0,0.0,0.0,0.0,0.0,0.0,0.0,0.0,0.0,0.0,0.0,0.0,0.0,0.0,0.0,0.0,0.0,0.0,0.0,0.0,0.0,0.0,0.0,0.0,0.0,0.0,0.528,0.5272,0.5113,0.4751,0.5111,0.5195,0.0,0.0,0.0,0.0,0.0,0.0,0.0,0.0,0.0,0.0,0.0,0.0,0.0,0.0,0.0,0.0,0.0,0.0,0.0,0.0,0.0,0.0,0.0,0.0,0.0,0.0,0.0,0.0,0.0,0.0,0.0,0.0,0.0,0.0,0.0,0.0,0.0,0.0,0.0,0.0,0.0,0.0,0.0,0.0,0.0,0.0,0.0,0.0,0.0,0.0,0.0,0.0,0.0,0.0,0.0,0.0,0.0,0.0,0.0,0.0,0.0,0.0,0.0,0.0,0.0,0.0,0.0,0.0,0.0,0.0,0.0,0.0,0.0,0.0,0.0,0.0,0.0,0.0,0.0,0.0,0.0,0.0,0.0,0.0,0.0,0.0,0.0,0.0,0.0,0.0,0.0,0.0,0.0,0.0,0.0,0.0,0.0,0.0,0.0,0.0,0.0,0.0,0.0,0.0,0.0,0.0,0.0,0.0,0.5335,0.558,0.5561,0.5379,0.5015,0.5235,0.5224,0.0,0.0,0.0,0.0,0.0,0.0,0.0,0.0,0.0,0.0,0.0,0.0,0.0,0.0,0.0,0.0,0.0,0.0,0.0,0.0,0.0,0.0,0.0,0.0,0.0,0.0,0.0,0.0,0.0,0.0,0.0,0.0,0.0,0.0,0.0,0.0,0.0,0.0,0.0,0.0,0.0,0.0,0.0,0.0,0.0,0.0,0.0,0.0,0.0,0.0,0.0,0.0,0.0,0.0,0.0,0.0,0.0,0.0,0.0,0.0,0.0,0.0,0.0,0.0,0.0,0.0,0.0,0.0,0.0,0.0,0.0,0.0,0.0,0.0,0.0,0.0,0.0,0.0,0.0,0.0,0.0,0.0,0.0,0.0,0.0,0.0,0.0,0.0,0.0,0.0,0.0,0.0,0.0,0.0,0.0,0.0,0.0,0.0,0.0,0.0,0.0,0.0,0.0,0.0,0.0,0.0,0.0,0.0,0.528,0.5688,0.5688,0.5637,0.5529,0.5464,0.5228,0.0,0.0,0.0,0.0,0.0,0.0,0.0,0.0,0.0,0.0,0.0,0.0,0.0,0.0,0.0,0.0,0.0,0.0,0.0,0.0,0.0,0.0,0.0,0.0,0.0,0.0,0.0,0.0,0.0,0.0,0.0,0.0,0.0,0.0,0.0,0.0,0.0,0.0,0.0,0.0,0.0,0.0,0.0,0.0,0.0,0.0,0.0,0.0,0.0,0.0,0.0,0.0,0.0,0.0,0.0,0.0,0.0,0.0,0.0,0.0,0.0,0.0,0.0,0.0,0.0,0.0,0.0,0.0,0.0,0.0,0.0,0.0,0.0,0.0,0.0,0.0,0.0,0.0,0.0,0.0,0.0,0.0,0.0,0.0,0.0,0.0,0.0,0.0,0.0,0.0,0.0,0.0,0.0,0.0,0.0,0.0,0.0,0.0,0.0,0.0,0.0,0.0,0.0,0.0,0.0,0.0,0.0,0.0,0.5599,0.5688,0.5688,0.5677,0.565,0.5626,0.5348,0.0,0.0,0.0,0.0,0.0,0.0,0.0,0.0,0.0,0.0,0.0,0.0,0.0,0.0,0.0,0.0,0.0,0.0,0.0,0.0,0.0,0.0,0.0,0.0,0.0,0.0,0.0,0.0,0.0,0.0,0.0,0.0,0.0,0.0,0.0,0.0,0.0,0.0,0.0,0.0,0.0,0.0,0.0,0.0,0.0,0.0,0.0,0.0,-1.6938,0.0,0.0,0.0,0.0,0.0,0.0,0.0,0.0,0.0,0.0,0.0,0.0,0.0,0.0,0.0,0.0,0.0,0.0,0.0,0.0,0.0,0.0,0.0,0.0,0.0,0.0,0.0,0.0,0.0,0.0,0.0,0.0,0.0,0.0,0.0,0.0,0.0,0.0,0.0,0.0,0.0,0.0,0.0,0.0,0.0,0.0,0.0,0.0,0.0,0.0,0.0,0.0,0.0,0.0,0.0,0.0,0.0,0.0,0.0,0.5463,0.5688,0.5688,0.5688,0.5688,0.5688,0.5318,0.0,0.0,0.0,0.0,0.0,0.0,0.0,0.0,0.0,0.0,0.0,0.0,0.0,0.0,0.0,0.0,0.0,0.0,0.0,0.0,0.0,0.0,0.0,0.0,0.0,0.0,0.0,0.0,0.0,0.0,0.0,0.0,0.0,0.0,0.0,0.0,0.0,0.0,0.0,0.0,0.0,0.0,0.0,0.0,0.0,0.0,0.0,0.0,0.0,0.0,0.0,0.0,0.0,0.0,0.0,0.0,0.0,0.0,0.0,0.0,0.0,0.0,0.0,0.0,0.0,0.0,0.0,0.0,0.0,0.0,0.0,0.0,0.0,0.0,0.0,0.0,0.0,0.0,0.0,0.0,0.0,0.0,0.0,0.0,0.0,0.0,0.0,0.0,0.0,0.0,0.0,0.0,0.0,0.0,0.0,0.0,0.0,0.0,0.0,0.0,0.0,0.0,0.0,0.0,0.0,0.0,0.0,0.4964,0.5235,0.5688,0.5688,0.5688,0.5688,0.5688,0.524,0.4162,0.0,0.0,0.0,0.0,0.0,0.0,0.0,0.0,0.0,0.0,0.0,0.0,0.0,0.0,0.0,0.0,0.0,0.0,0.0,0.0,0.0,0.0,0.0,0.0,0.0,0.0,0.0,0.0,0.0,0.0,0.0,0.0,0.0,0.0,0.0,0.0,0.0,0.0,-1.3672,-1.4394,0.0,0.0,0.0,0.0,0.0,0.0,0.0,0.0,-1.6132,0.0,0.0,0.0,0.0,0.0,0.0,0.0,0.0,0.0,0.0,0.0,0.0,0.0,0.0,0.0,0.0,0.0,0.0,0.0,0.0,0.0,0.0,0.0,0.0,0.0,0.0,0.0,0.0,0.0,0.0,0.0,0.0,0.0,0.0,0.0,0.0,0.0,0.0,0.0,0.0,0.0,0.0,0.0,0.0,0.0,0.0,0.0,0.0,0.0,0.0,0.0,0.0,0.0,0.0,0.0,0.0,0.4065,0.4694,0.5235,0.5688,0.5688,0.5688,0.5688,0.5688,0.4968,0.3534,0.0,0.0,0.0,0.0,0.0,0.0,0.0,0.0,0.0,0.0,0.0,0.0,0.0,0.0,0.0,0.0,0.0,0.0,0.0,0.0,0.0,0.0,0.0,0.0,0.0,0.0,0.0,0.0,0.0,0.0,0.0,0.0,0.0,0.0,0.0,0.0,0.0,0.0,0.0,-1.4394,-1.4824,0.0,0.0,0.0,0.0,0.0,0.0,0.0,0.0,-1.6254,0.0,0.0,0.0,0.0,0.0,0.0,0.0,0.0,0.0,0.0,0.0,0.0,0.0,0.0,0.0,0.0,0.0,0.0,0.0,0.0,0.0,0.0,0.0,0.0,0.0,0.0,0.0,0.0,0.0,0.0,0.0,0.0,0.0,0.0,0.0,0.0,0.0,0.0,0.0,0.0,0.0,0.0,0.0,0.0,0.0,0.0,0.0,0.0,0.0,0.0,0.0,0.0,0.0,0.0,0.0,0.3619,0.4741,0.5238,0.4971,0.4973,0.4971,0.4971,0.4971,0.4249,0.0,0.0,0.0,0.0,0.0,0.0,0.0,0.0,0.0,0.0,0.0,0.0,0.0,0.0,0.0,0.0,0.0,0.0,0.0,0.0,0.0,0.0,0.0,0.0,0.0,0.0,0.0,0.0,0.0,0.0,0.0,0.0,0.0,0.0,0.0,0.0,0.0,0.0,0.0,0.0,-1.4752,-1.4665,-1.3549,0.0,0.0,0.0,0.0,0.0,0.0,-1.6184,-1.6428,0.0,0.0,0.0,0.0,0.0,0.0,0.0,0.0,0.0,0.0,0.0,0.0,0.0,0.0,0.0,0.0,0.0,0.0,0.0,0.0,0.0,0.0,0.0,0.0,0.0,0.0,0.0,0.0,0.0,0.0,0.0,0.0,0.0,0.0,0.0,0.0,0.0,0.0,0.0,0.0,0.0,0.0,0.0,0.0,0.0,0.0,0.0,0.0,0.0,0.0,0.0,0.0,0.0,0.0,0.0,0.3079,0.4529,0.4989,0.4353,0.4125,0.4027,0.4008,0.401,0.3323,0.0,0.0,0.0,0.0,0.0,0.0,0.0,0.0,0.0,0.0,0.0,0.0,0.0,0.0,0.0,0.0,0.0,0.0,0.0,0.0,0.0,0.0,0.0,0.0,0.0,0.0,0.0,0.0,0.0,0.0,0.0,0.0,0.0,0.0,0.0,0.0,0.0,0.0,0.0,0.0,0.0,-1.4371,-1.3033,-1.4027,0.0,0.0,0.0,0.0,-1.5799,-1.6044,0.0,0.0,0.0,0.0,0.0,0.0,0.0,0.0,0.0,0.0,0.0,0.0,0.0,0.0,0.0,0.0,0.0,0.0,0.0,0.0,0.0,0.0,0.0,0.0,0.0,0.0,0.0,0.0,0.0,0.0,0.0,0.0,0.0,0.0,0.0,0.0,0.0,0.0,0.0,0.0,0.0,0.0,0.0,0.0,0.0,0.0,0.0,0.0,0.0,0.0,0.0,0.0,0.0,0.0,0.0,0.0,0.2452,0.3448,0.4158,0.4389,0.354,0.3043,0.3035,0.3079,0.2368,0.0,0.0,0.0,0.0,0.0,0.0,0.0,0.0,0.0,0.0,0.0,0.0,0.0,0.0,0.0,0.0,0.0,0.0,0.0,0.0,0.0,0.0,0.0,0.0,0.0,0.0,0.0,0.0,0.0,0.0,0.0,0.0,0.0,0.0,0.0,0.0,0.0,0.0,0.0,0.0,0.0,-1.3926,-1.4502,-1.476,-1.4895,0.0,0.0,-1.4824,-1.4106,-1.4609,0.0,0.0,0.0,0.0,0.0,0.0,0.0,0.0,0.0,0.0,0.0,0.0,0.0,0.0,0.0,0.0,0.0,0.0,0.0,0.0,0.0,0.0,0.0,0.0,0.0,0.0,0.0,0.0,0.0,0.0,0.0,0.0,0.0,0.0,0.0,0.0,0.0,0.0,0.0,0.0,0.0,0.0,0.0,0.0,0.0,0.0,0.0,0.0,0.0,0.0,0.0,0.0,0.0,0.0,0.0,0.2121,0.1473,0.3232,0.3706,0.2756,0.2283,0.2037,0.2065,0.2043,0.1608,0.0,0.0,0.0,0.0,0.0,0.0,0.0,0.0,0.0,0.0,0.0,0.0,0.0,0.0,0.0,0.0,0.0,0.0,0.0,0.0,0.0,0.0,0.0,0.0,0.0,0.0,0.0,0.0,0.0,0.0,0.0,0.0,0.0,0.0,0.0,0.0,0.0,0.0,0.0,0.0,0.0,0.0,-1.3563,-1.4024,0.0,0.0,0.0,-1.4958,-1.4593,0.0,0.0,0.0,0.0,0.0,0.0,0.0,0.0,0.0,0.0,0.0,0.0,0.0,0.0,0.0,0.0,0.0,0.0,0.0,0.0,0.0,0.0,0.0,0.0,0.0,0.0,0.0,0.0,0.0,0.0,0.0,0.0,0.0,0.0,0.0,0.0,0.0,0.0,0.0,0.0,0.0,0.0,0.0,0.0,0.0,0.0,0.0,0.0,0.0,0.0,0.0,0.0,0.0,0.0,0.0,0.0,0.0,0.0772,0.2749,0.3039,0.1497,0.1207,0.106,0.1055,0.104,0.0,0.0,0.0,0.0,0.0,0.0,0.0,0.0,0.0,0.0,0.0,0.0,0.0,0.0,0.0,0.0,0.0,0.0,0.0,0.0,0.0,0.0,0.0,0.0,0.0,0.0,0.0,-0.7069,0.0,0.0,0.0,0.0,0.0,0.0,0.0,0.0,0.0,0.0,0.0,0.0,0.0,0.0,-1.3693,-1.2939,-1.344,-1.3556,0.0,0.0,-1.4736,-1.4514,-1.4063,-1.4346,0.0,0.0,0.0,0.0,0.0,0.0,0.0,0.0,0.0,0.0,0.0,0.0,0.0,0.0,0.0,0.0,0.0,0.0,0.0,0.0,0.0,0.0,0.0,0.0,0.0,0.0,0.0,0.0,0.0,0.0,0.0,0.0,0.0,0.0,0.0,0.0,0.0,0.0,0.0,0.0,0.0,0.0,0.0,0.0,0.0,0.0,0.0,0.0,0.0,0.0,0.0,0.0,0.0,0.0,0.0,0.0803,0.1456,0.1756,0.1556,0.0603,0.01,0.0098,0.0,-0.0145,0.0,0.0,0.0,0.0,0.0,0.0,0.0,0.0,0.0,0.0,0.0,0.0,0.0,0.0,0.0,0.0,0.0,0.0,0.0,0.0,0.0,0.0,0.0,0.0,0.0,0.0,0.0,0.0,0.0,0.0,0.0,0.0,0.0,0.0,0.0,0.0,0.0,0.0,0.0,0.0,0.0,-1.4494,-1.3738,-1.3673,-1.3375,0.0,0.0,-1.3528,-1.2629,-1.3251,-1.425,-1.5637,0.0,0.0,0.0,0.0,0.0,0.0,0.0,0.0,0.0,0.0,0.0,0.0,0.0,0.0,0.0,0.0,0.0,0.0,0.0,0.0,0.0,0.0,0.0,0.0,0.0,0.0,0.0,0.0,0.0,0.0,0.0,0.0,0.0,0.0,0.0,0.0,0.0,0.0,0.0,0.0,0.0,0.0,0.0,0.0,0.0,0.0,0.0,0.0,0.0,0.0,0.0,0.0,0.0,0.0501,-0.0151,0.1008,0.1311,0.0656,0.0202,0.0,0.0,0.0,-0.0196,0.0,0.0,0.0,0.0,0.0,0.0,0.0,0.0,0.0,0.0,0.0,0.0,0.0,0.0,0.0,0.0,0.0,0.0,0.0,0.0,0.0,0.0,0.0,0.0,0.0,0.0,0.0,0.0,-0.9767,-1.0464,-1.0912,0.0,0.0,0.0,0.0,0.0,0.0,0.0,0.0,0.0,0.0,-1.2041,-1.283,-1.2531,0.0,0.0,-1.3262,-1.3681,-1.276,-1.3622,-1.4796,-1.5855,-1.6811,0.0,0.0,0.0,0.0,0.0,0.0,0.0,0.0,0.0,0.0,0.0,0.0,0.0,0.0,0.0,0.0,0.0,0.0,0.0,0.0,0.0,0.0,0.0,0.0,0.0,0.0,0.0,0.0,0.0,0.0,0.0,0.0,0.0,0.0,0.0,0.0,0.0,0.0,0.0,0.0,0.0,0.0,0.0,0.0,0.0,0.0,0.0,0.0,0.0,0.0,0.0,0.0,-0.005,-0.0758,0.0454,0.0757,0.0,0.0,0.0,0.0,0.0,-0.0099,0.0,0.0,0.0,0.0,0.0,0.0,0.0,0.0,0.0,0.0,0.0,0.0,0.0,0.0,0.0,0.0,0.0,0.0,0.0,0.0,0.0,0.0,0.0,0.0,0.0,0.0,0.0,0.0,-1.0244,-1.0838,-1.1409,0.0,0.0,0.0,0.0,0.0,0.0,0.0,0.0,0.0,0.0,-1.1091,-1.2044,-1.2296,-1.2512,-1.2965,-1.4074,-1.4638,-1.3956,-1.4452,-1.5242,-1.6261,0.0,0.0,0.0,0.0,0.0,0.0,0.0,0.0,0.0,0.0,0.0,0.0,0.0,0.0,0.0,0.0,0.0,0.0,0.0,0.0,0.0,0.0,0.0,0.0,0.0,0.0,0.0,0.0,0.0,0.0,0.7054,0.0,0.0,0.0,0.0,0.0,0.0,0.0,0.0,0.0,0.0,0.0,0.0,0.0,0.0,0.0,0.0,0.0,0.0,0.0,0.0,0.0,0.0,-0.0758,-0.0808,-0.0252,0.0,0.0,0.0,0.0,0.0,0.0,-0.0101,-0.0404,0.0,0.0,0.0,0.0,0.0,0.0,0.0,0.0,0.0,0.0,0.0,0.0,0.0,0.0,0.0,0.0,0.0,0.0,0.0,0.0,0.0,0.0,0.0,0.0,0.0,0.0,-0.9916,-1.1323,-1.2224,0.0,0.0,0.0,0.0,0.0,0.0,0.0,0.0,0.0,0.0,-1.2254,-1.2565,-1.1678,-1.3333,-1.4549,-1.4641,-1.5602,-1.6287,-1.6182,-1.5604,-1.549,0.0,0.0,0.0,0.0,0.0,0.0,0.0,0.0,0.0,0.0,0.0,0.0,0.0,0.0,0.0,0.0,0.0,0.0,0.0,0.0,0.0,0.0,0.0,0.0,0.0,0.0,0.0,0.754,0.7675,0.0,0.0,0.0,0.0,0.0,0.0,0.0,0.0,0.0,0.0,0.0,0.6347,0.5254,0.0,0.0,0.0,0.0,0.0,0.0,0.0,0.0,0.0,0.0,0.0,0.0,-0.0808,-0.0758,-0.0252,0.0,0.0,0.0,0.0,0.0,0.0,-0.0101,-0.0404,0.0,0.0,0.0,0.0,0.0,0.0,0.0,0.0,0.0,0.0,0.0,0.0,0.0,0.0,0.0,0.0,0.0,0.0,0.0,0.0,0.0,0.0,0.0,0.0,0.0,-1.0121,0.0,0.0,0.0,0.0,0.0,0.0,0.0,0.0,0.0,0.0,0.0,-1.2324,-1.1727,-1.1591,-1.1621,-1.1803,-1.2469,-1.3127,0.0,0.0,0.0,0.0,0.0,0.0,0.0,0.0,0.0,0.0,0.0,0.0,0.0,0.0,-1.8576,-2.0594,-2.1239,-2.1662,-2.2284,0.0,0.0,0.0,0.0,0.0,0.0,0.0,0.0,0.0,0.0,0.0,0.0,0.0,0.0,0.0,0.0,0.7543,0.0,0.0,0.0,0.0,0.0,0.0,0.0,0.0,0.668,0.6718,0.6819,0.5653,0.5183,0.0,0.4078,0.3053,0.0,0.0,0.0,0.0,0.0,0.0,0.0,0.0,-0.0758,-0.0657,-0.0252,0.0,0.0,0.0,0.0,0.0,0.0,-0.0101,-0.0252,-0.0349,-0.0494,0.0,0.0,0.0,0.0,0.0,0.0,0.0,0.0,0.0,0.0,0.0,0.0,0.0,0.0,0.0,0.0,0.0,0.0,0.0,0.0,0.0,0.0,0.0,-1.0008,0.0,0.0,0.0,0.0,0.0,0.0,0.0,0.0,0.0,-1.1891,-1.1678,-1.136,-1.1003,-1.1204,-1.1543,-1.2081,0.0,0.0,0.0,0.0,0.0,0.0,0.0,-1.669,-1.6206,-1.7025,-1.7908,-1.8647,-1.8678,-1.8886,-1.9618,0.0,0.0,-2.0444,-2.0943,-2.1364,-2.2022,-2.1927,-2.2013,-2.2841,-2.267,-2.2663,0.0,0.0,0.0,0.0,0.0,0.0,0.0,0.0,0.8132,0.7994,0.0,0.7715,0.0,0.0,0.0,0.0,0.0,0.7083,0.0,0.0,0.7285,0.7188,0.7135,0.6584,0.6387,0.6337,0.5336,0.4834,0.473,0.3524,0.0,0.0,0.0,0.0,0.0,0.0,-0.0657,-0.0404,-0.0151,0.0,0.0,0.0,0.0,0.0,0.0,0.0,0.0,-0.0252,-0.0401,-0.0394,-0.1764,0.0,0.0,0.0,0.0,0.0,0.0,0.0,0.0,0.0,0.0,0.0,0.0,0.0,0.0,0.0,0.0,0.0,0.0,0.0,0.0,-0.8708,0.0,0.0,0.0,0.0,0.0,0.0,0.0,0.0,0.0,0.0,-1.1031,-1.0985,-1.0616,-0.9761,0.0,0.0,0.0,0.0,-1.5613,-1.5606,-1.6519,-1.7204,-1.7447,-1.6683,-1.6083,-1.6312,0.0,0.0,-1.7455,-1.7957,-1.8678,-2.0284,-2.0527,-2.0333,-1.952,-2.0207,-2.1034,-2.178,-2.191,-2.2103,-2.2462,-2.1907,-2.1433,0.8788,0.0,0.0,0.0,0.0,0.83,0.8349,0.8398,0.8108,0.8108,0.8251,0.7815,0.0,0.0,0.0,0.0,0.0,0.0,0.7235,0.7288,0.7042,0.6892,0.6892,0.6537,0.6387,0.6387,0.6084,0.5934,0.5884,0.478,0.3122,0.1008,0.0,0.0,0.0,0.0,-0.0455,-0.0404,-0.0151,0.0,0.0,0.0,0.0,0.0,0.0,0.0,0.0,-0.005,-0.0202,-0.0401,-0.1432,0.0,0.0,0.0,0.0,0.0,0.0,0.0,0.0,0.0,0.0,0.0,0.0,0.0,0.0,0.0,0.0,0.0,0.0,0.0,-0.9801,-0.9796,-0.9875,0.0,0.0,0.0,0.0,0.0,0.0,0.0,0.0,0.0,-1.2027,-1.2052,-1.2168,0.0,0.0,-1.3893,-1.4655,-1.4671,-1.4573,-1.4573,0.0,0.0,0.0,-1.5711,-1.5884,-1.5533,-1.6337,-1.7472,-1.8647,-1.9402,-2.001,-2.0518,-2.0615,-2.0527,-2.0323,-2.043,-2.0731,-2.0962,-2.1098,-2.1262,-2.1377,-2.1397,-2.1464,0.9034,0.8775,0.8775,0.8722,0.8577,0.8531,0.8528,0.8531,0.8283,0.8233,0.8382,0.7939,0.7743,0.7743,0.749,0.0,0.0,0.0,0.7338,0.7338,0.7092,0.6892,0.6795,0.6539,0.6387,0.6387,0.5987,0.5987,0.6337,0.4479,0.3021,0.1965,0.0,0.0,-0.0606,-0.0505,-0.0353,-0.0252,-0.005,0.0,0.0,0.0,0.0,0.0,0.0,0.0,0.0,0.0,-0.005,-0.0252,-0.0898,-0.1483,0.0,0.0,0.0,0.0,0.0,0.0,0.0,0.0,0.0,0.0,0.0,-0.6711,-0.7488,0.0,0.0,0.0,-0.8619,-0.9461,-0.9822,-0.9457,0.0,0.0,0.0,0.0,0.0,0.0,0.0,-1.0947,-1.0546,-1.0597,-1.1472,-1.2132,-1.2785,-1.3472,-1.3864,-1.4334,-1.497,0.0,-1.4088,-1.4088,-1.4088,-1.4166,-1.4398,-1.5012,-1.5519,-1.5733,-1.6665,-1.7908,-1.9094,-1.9736,-2.0167,-2.0489,-2.0615,-2.0615,-2.0615,-2.0615,-2.0615,-2.0605,-2.078,-2.0906,-2.0984,-2.1282,-2.155,0.9034,0.8775,0.8775,0.8775,0.8775,0.8775,0.8775,0.8726,0.8482,0.8382,0.8382,0.8088,0.7988,0.7988,0.7743,0.0,0.7646,0.7646,0.7593,0.7543,0.7338,0.7039,0.6745,0.6437,0.6287,0.6234,0.5186,0.5183,0.5934,0.3071,0.2117,0.3022,0.1764,0.0605,-0.0303,-0.0353,-0.0252,0.0,0.0,0.0,0.0,0.0,0.0,0.0,0.0,0.0,0.0,0.0,0.0,0.0,-0.0252,-0.0751,-0.1623,0.0,0.0,0.0,0.0,0.0,0.0,0.0,0.0,0.0,0.0,0.0,0.0,0.0,0.0,0.0,-0.7107,0.0,-0.8485,-0.837,0.0,0.0,0.0,-1.0186,-1.0018,-0.9766,-0.9584,-0.9579,0.0,0.0,-1.012,0.0,-1.2705,-1.279,-1.3568,-1.4124,-1.4208,-1.4215,-1.4088,-1.4088,-1.4088,-1.4166,-1.4356,-1.465,-1.5228,-1.6378,-1.6739,-1.7472,-1.8935,-1.942,-1.9775,-2.044,-2.0615,-2.0615,-2.0615,-2.0615,-2.0595,-2.0605,-2.078,-2.0984,-2.1177,-2.1387,-2.1578,0.9034,0.8775,0.8775,0.8676,0.8482,0.8482,0.8382,0.8187,0.8088,0.8088,0.8088,0.8038,0.7988,0.7988,0.7942,0.7892,0.7892,0.7892,0.769,0.7288,0.7235,0.6939,0.6437,0.5584,0.5183,0.5085,0.4079,0.3676,0.3875,0.2368,0.1714,0.1915,0.0858,0.0151,-0.0101,-0.0101,-0.005,0.0,0.0,0.0,0.0,0.0,0.0,0.0,0.0,0.0,0.0,0.0,0.0,0.0,-0.005,-0.0202,-0.0451,-0.232,0.0,0.0,0.0,0.0,0.0,0.0,0.0,0.0,0.0,-0.5747,-0.7353,0.0,-0.7664,0.0,-0.7212,-0.7891,-0.99,-0.9262,0.0,0.0,-0.9776,-0.9895,-0.8309,-0.8817,-0.9362,-0.9579,-0.9623,-1.0279,-1.1843,-1.2448,-1.296,-1.3652,-1.3955,-1.4363,-1.5137,-1.4615,-1.4088,-1.4088,-1.4088,-1.4166,-1.4405,-1.4741,-1.5409,-1.6535,-1.722,-1.8078,-1.9134,-1.9844,-2.0362,-2.0566,-2.0615,-2.0615,-2.0615,-2.0615,-2.0654,-2.0819,-2.0974,-2.1215,-2.1397,-2.1589,-2.1731,0.8783,0.8432,0.8432,0.8333,0.8233,0.8333,0.8233,0.7988,0.7988,0.7988,0.7988,0.7988,0.7988,0.7988,0.7988,0.7988,0.7988,0.7988,0.7739,0.7235,0.7185,0.6936,0.6387,0.5286,0.4782,0.4732,0.3726,0.3225,0.3123,0.2117,0.1563,0.1563,0.0505,0.0,0.0,0.0,0.0,0.0,0.0,0.0,0.0,0.0,-0.005,-0.0151,-0.005,-0.005,-0.0202,-0.005,-0.0252,-0.0857,-0.0908,-0.0907,-0.0907,-0.2243,-0.2723,0.0,0.0,0.0,0.0,0.0,0.0,0.0,0.0,0.0,0.0,0.0,-0.783,-0.8197,-0.7536,-0.7881,-0.9662,-0.8798,-0.8105,-0.8105,-0.8755,-0.893,-0.8201,-0.8846,-0.9623,-1.0139,-1.0318,-1.0799,-1.1929,-1.2448,-1.2875,-1.344,-1.3828,-1.4334,-1.481,-1.4447,-1.4088,-1.4088,-1.4088,-1.4201,-1.4482,-1.4824,-1.5609,-1.6984,-1.7666,-1.8399,-1.9648,-2.0245,-2.0615,-2.0615,-2.0615,-2.0615,-2.0615,-2.0615,-2.0654,-2.0867,-2.0984,-2.1167,-2.1436,-2.1665,-2.1807,0.8478,0.7988,0.7988,0.7988,0.8038,0.8233,0.8233,0.7988,0.7988,0.7988,0.7988,0.7988,0.7988,0.7988,0.7988,0.7988,0.7988,0.7988,0.769,0.7235,0.7185,0.6936,0.6337,0.5135,0.4583,0.4533,0.3374,0.277,0.277,0.1865,0.1412,0.1361,0.0454,0.0,0.0,0.0,0.0,0.0,-0.005,-0.005,-0.005,-0.005,-0.0151,-0.0353,-0.0151,-0.0101,-0.0353,-0.0151,-0.0504,-0.1662,-0.1711,-0.1762,-0.1762,-0.1913,-0.2063,0.0,-0.3168,0.0,0.0,0.0,0.0,0.0,0.0,0.0,0.0,-0.7337,-0.7848,-0.8886,-0.7837,-0.7533,-0.8584,-0.7709,-0.7143,-0.7272,-0.754,-0.8069,-0.8978,-0.9497,-1.0096,-1.0918,-1.1187,-1.1322,-1.1542,-1.2186,-1.2747,-1.3009,-1.3704,-1.4211,-1.4184,-1.4157,-1.4088,-1.4088,-1.4122,-1.4316,-1.4768,-1.519,-1.5981,-1.7556,-1.8275,-1.8878,-2.0299,-2.0693,-2.0791,-2.0801,-2.084,-2.082,-2.0781,-2.0801,-2.0889,-2.1095,-2.1154,-2.1241,-2.1438,-2.1617,-2.1769,0.8287,0.7988,0.7988,0.7988,0.7988,0.8041,0.8041,0.7988,0.7988,0.7988,0.7988,0.7988,0.7988,0.7988,0.7988,0.7988,0.7988,0.7988,0.7739,0.7185,0.7185,0.6936,0.6287,0.4429,0.3475,0.3374,0.1513,0.0606,0.0606,0.0404,0.0303,0.0303,0.0101,0.0,0.0,0.0,0.0,0.0,-0.0202,-0.0353,-0.0303,-0.0303,-0.0353,-0.0404,-0.0151,0.0,-0.0101,-0.005,-0.0101,-0.0353,-0.0404,0.0,0.0,0.0,0.0,0.0,0.0,0.0,0.0,0.0,0.0,0.0,-0.7611,-0.7461,-0.7336,-0.7214,-0.7367,-0.7764,-0.7363,-0.7183,-0.7404,-0.7228,-0.7401,-0.8149,-0.8456,-0.9065,-1.0111,-1.0534,-1.0875,-1.1187,-1.1278,-1.1585,-1.2381,-1.2613,-1.3015,-1.374,-1.416,-1.4386,-1.4442,-1.4255,-1.4102,-1.4102,-1.4302,-1.4696,-1.5411,-1.6148,-1.6883,-1.7833,-1.92,-2.0121,-2.0559,-2.1214,-2.1621,-2.1642,-2.1631,-2.1652,-2.1652,-2.1681,-2.1663,-2.1906,-2.1937,-2.1869,-2.156,-2.1512,-2.1627,0.8424,0.0,0.8153,0.8109,0.0,0.7988,0.7988,0.7988,0.7988,0.7988,0.7988,0.7988,0.7988,0.7988,0.7988,0.7988,0.7988,0.7892,0.759,0.7185,0.7042,0.6789,0.6337,0.4178,0.3225,0.3123,0.1009,0.0,0.0,0.0,0.0,0.0,0.0,0.0,0.0,0.0,0.0,0.0,-0.0151,-0.0202,-0.0202,-0.0202,-0.0252,-0.0404,0.0,0.0,0.0,0.0,0.0,0.0,0.0,0.0,0.0,0.0,0.0,-0.3371,-0.4776,-0.5929,-0.6581,-0.7273,-0.7782,-0.787,-0.7787,-0.7641,-0.7495,-0.7414,-0.7412,-0.7556,-0.7415,-0.7336,-0.7261,-0.7258,-0.7403,-0.7768,-0.8153,-0.884,-0.9849,-1.0392,-1.1092,-1.2131,-1.2336,-1.2727,-1.3711,-1.3855,-1.403,-1.4435,-1.4643,-1.4743,-1.473,-1.4616,-1.4566,-1.4566,-1.4717,-1.5093,-1.5667,-1.6617,-1.7573,-1.8423,-1.9639,-2.0671,-2.1191,-2.1575,-2.1936,-2.1936,-2.1936,-2.1936,-2.1936,-2.1936,-2.1916,-2.1999,-2.204,-2.2055,-2.1979,-2.2097,-2.2215,0.863,0.8361,0.8309,0.8235,0.8069,0.8116,0.8069,0.8113,0.0,0.0,0.0,0.7988,0.7988,0.7988,0.7942,0.7942,0.7988,0.7693,0.7441,0.7188,0.6892,0.6642,0.6284,0.4377,0.3374,0.3123,0.121,0.0202,0.0,0.0,0.0,0.0,0.0,0.0,0.0,0.0,0.0,0.0,-0.005,-0.005,-0.005,-0.005,-0.0151,-0.0404,-0.0151,-0.0101,-0.0303,-0.0101,-0.0504,-0.1561,-0.1662,-0.2114,-0.3169,-0.3219,-0.3321,-0.3525,-0.4626,-0.5477,-0.5877,-0.6986,-0.7746,-0.7988,-0.7874,-0.778,-0.7614,-0.7597,-0.7597,-0.7597,-0.7597,-0.7546,-0.747,-0.7456,-0.7451,-0.741,-0.7845,-0.8662,-0.9912,-1.0436,-1.1571,-1.3254,-1.3685,-1.3986,-1.4802,-1.4937,-1.5015,-1.5008,-1.5035,-1.507,-1.509,-1.5048,-1.4975,-1.5042,-1.5158,-1.5417,-1.5871,-1.6781,-1.7886,-1.8723,-1.979,-2.0798,-2.1587,-2.189,-2.1932,-2.2178,-2.2109,-2.2139,-2.2129,-2.2178,-2.2109,-2.21,-2.2151,-2.2276,-2.263,-2.2919,-2.3064,0.8525,0.8452,0.8452,0.8442,0.8418,0.8421,0.8421,0.8397,0.815,0.7988,0.7988,0.7988,0.7988,0.7988,0.7743,0.7793,0.7988,0.7487,0.7235,0.0,0.6942,0.6642,0.6337,0.5133,0.4079,0.3173,0.1965,0.0908,0.0,0.0,0.0,0.0,0.0,0.0,0.0,0.0,0.0,0.0,-0.0202,-0.0353,-0.0353,-0.0353,-0.0353,-0.0404,-0.0151,0.0,-0.005,0.0,-0.0101,-0.0252,-0.0303,-0.0757,-0.1814,-0.1914,-0.267,-0.4431,-0.5177,-0.5977,-0.6883,-0.759,-0.7988,-0.7988,-0.7968,-0.7892,-0.7628,-0.7597,-0.7597,-0.76,-0.7614,-0.7594,-0.757,-0.757,-0.7876,-0.8579,-0.8898,-0.9925,-1.178,-1.2326,-1.304,-1.4437,-1.4777,-1.4759,-1.4972,-1.5055,-1.5062,-1.5068,-1.5204,-1.5411,-1.5524,-1.5277,-1.5156,-1.5264,-1.5377,-1.5583,-1.6097,-1.7118,-1.798,-1.8416,-1.9495,-2.0571,-2.1473,-2.1692,-2.1964,-2.2713,-2.2785,-2.2847,-2.2867,-2.2925,-2.2847,-2.2861,-2.2948,-2.3236,-2.3473,-2.374,-2.3811,0.8682,0.8608,0.8604,0.8557,0.8535,0.8535,0.8535,0.8472,0.834,0.8235,0.8157,0.8029,0.7988,0.7988,0.7746,0.7646,0.7743,0.7241,0.6989,0.6939,0.6689,0.6575,0.643,0.5412,0.4364,0.3266,0.2231,0.1137,0.0,0.0,0.0,0.0,0.0,0.0,0.0,0.0,0.0,0.0,-0.0101,-0.0202,-0.0202,-0.0151,-0.0202,-0.0151,-0.005,0.0,0.0,0.0,0.0,0.0,-0.0555,-0.1362,-0.2418,-0.3022,-0.4028,-0.5534,-0.6182,-0.6681,-0.7138,-0.7686,-0.7988,-0.7988,-0.7988,-0.7934,-0.7803,-0.7838,-0.7838,-0.7838,-0.7838,-0.7801,-0.7726,-0.7712,-0.7872,-0.8204,-0.8936,-0.9943,-1.1155,-1.2076,-1.3066,-1.4325,-1.4642,-1.4828,-1.5385,-1.5431,-1.5431,-1.5444,-1.5565,-1.5691,-1.5758,-1.5611,-1.5471,-1.5598,-1.5638,-1.5779,-1.6197,-1.7091,-1.7917,-1.8334,-1.9338,-2.0195,-2.0872,-2.1239,-2.1828,-2.228,-2.2731,-2.3047,-2.3101,-2.3091,-2.3101,-2.3101,-2.3188,-2.3416,-2.3711,-2.411,-2.4214,0.8872,0.876,0.8764,0.8693,0.8587,0.8584,0.8584,0.8581,0.855,0.8472,0.8357,0.8204,0.8089,0.7989,0.774,0.7592,0.7538,0.703,0.683,0.6878,0.6622,0.657,0.6548,0.5773,0.4715,0.3448,0.255,0.1426,0.0,0.0,0.0,0.0,0.0,0.0,0.0,0.0,0.0,0.0,0.0,0.0,0.0,0.0,0.0,0.0,0.0,0.0,0.0,0.0,0.0,0.0,-0.1009,-0.2066,-0.3123,-0.423,-0.5284,-0.6284,-0.6839,-0.7188,-0.7291,-0.7739,-0.7988,-0.7988,-0.7988,-0.7988,-0.7988,-0.7988,-0.7988,-0.7988,-0.7975,-0.7934,-0.7885,-0.7862,-0.7818,-0.7757,-0.878,-0.9828,-1.0519,-1.165,-1.2961,-1.4262,-1.4634,-1.5003,-1.5588,-1.5825,-1.5798,-1.5792,-1.5825,-1.5825,-1.5825,-1.5825,-1.5825,-1.5825,-1.5825,-1.5866,-1.6123,-1.6777,-1.7412,-1.7878,-1.8573,-1.9201,-1.9741,-2.0647,-2.1418,-2.1739,-2.2501,-2.3003,-2.3101,-2.3101,-2.3101,-2.3101,-2.3188,-2.3363,-2.3807,-2.4153,-2.4411,0.8875,0.8865,0.8913,0.8913,0.8886,0.8889,0.8828,0.8869,0.8754,0.8682,0.8648,0.8509,0.8285,0.7974,0.7706,0.7596,0.7546,0.7031,0.6918,0.7069,0.6871,0.6774,0.6785,0.6679,0.5514,0.3616,0.3245,0.2077,0.0,0.0,0.0,0.0,0.0,0.0,0.0,0.0,0.0,0.0,0.0,0.0,0.0,0.0,0.0,0.0,0.0,0.0,0.0,0.0,0.0,0.0,-0.1059,-0.2116,-0.3173,-0.423,-0.5286,-0.6337,-0.6689,-0.7045,-0.7543,-0.7839,-0.7988,-0.7988,-0.7988,-0.7988,-0.7988,-0.7988,-0.7988,-0.7988,-0.7988,-0.7978,-0.8018,-0.7958,-0.7941,-0.8016,-0.8988,-1.0053,-1.1317,-1.2603,-1.3872,-1.5248,-1.5397,-1.573,-1.573,-1.5784,-1.5825,-1.5825,-1.5825,-1.5825,-1.5825,-1.5825,-1.5825,-1.5825,-1.5825,-1.5825,-1.5927,-1.6076,-1.6447,-1.6541,-1.6918,-1.7652,-1.8519,-1.9604,-2.0602,-2.1373,-2.2467,-2.3047,-2.3101,-2.3101,-2.3101,-2.3144,-2.3276,-2.359,-2.4034,-2.4206,-2.4282,0.8937,0.8937,0.8937,0.8937,0.8937,0.8937,0.8937,0.8875,0.8872,0.879,0.8787,0.8781,0.8548,0.8276,0.7802,0.7598,0.7545,0.7068,0.6854,0.6957,0.6854,0.6839,0.6904,0.6912,0.5748,0.3668,0.3506,0.2292,0.0,0.0,0.0,0.0,0.0,0.0,0.0,0.0,0.0,0.0,0.0,0.0,0.0,0.0,0.0,0.0,0.0,0.0,0.0,0.0,0.0,0.0,-0.1613,-0.2719,-0.3173,-0.483,-0.5934,-0.6387,-0.6789,-0.7191,-0.7593,-0.7842,-0.7988,-0.7988,-0.7988,-0.7988,-0.7988,-0.7988,-0.7988,-0.7988,-0.7988,-0.7988,-0.7988,-0.7988,-0.7988,-0.8233,-0.9509,-1.0828,-1.1517,-1.3125,-1.4538,-1.5172,-1.5499,-1.5642,-1.5635,-1.5737,-1.5784,-1.5825,-1.5825,-1.5825,-1.5825,-1.5825,-1.5825,-1.5825,-1.5825,-1.5825,-1.5825,-1.5879,-1.6028,-1.6177,-1.6366,-1.6831,-1.7567,-1.9026,-2.0204,-2.0782,-2.205,-2.296,-2.3101,-2.3101,-2.3101,-2.3144,-2.3319,-2.359,-2.3764,-2.4034,-2.4206,0.8937,0.8937,0.8937,0.8937,0.8937,0.8937,0.8937,0.8937,0.8937,0.8937,0.8937,0.8937,0.8818,0.8521,0.7968,0.7704,0.7544,0.7116,0.6899,0.6899,0.6899,0.6948,0.7027,0.7032,0.6024,0.4298,0.3745,0.2336,0.0,0.0,0.0,0.0,0.0,0.0,0.0,0.0,0.0,0.0,0.0,0.0,0.0,0.0,0.0,0.0,0.0,0.0,0.0,0.0,0.0,0.0,-0.2067,-0.3225,-0.3275,-0.5229,-0.6387,-0.6437,-0.6886,-0.7288,-0.749,-0.7789,-0.7988,-0.7988,-0.7988,-0.7988,-0.7988,-0.7988,-0.7988,-0.7988,-0.7988,-0.7988,-0.7988,-0.7988,-0.7988,-0.8137,-0.9706,-1.0828,-1.1077,-1.2931,-1.425,-1.4538,-1.5016,-1.5452,-1.5493,-1.5642,-1.5737,-1.5784,-1.5825,-1.5825,-1.5825,-1.5825,-1.5825,-1.5825,-1.5825,-1.5825,-1.5825,-1.5825,-1.5927,-1.6028,-1.6123,-1.6366,-1.6838,-1.8342,-1.9758,-2.0294,-2.1739,-2.2731,-2.3047,-2.3101,-2.3101,-2.3144,-2.3276,-2.3406,-2.3547,-2.3851,-2.4067,0.8937,0.894,0.8885,0.8888,0.8937,0.8937,0.8937,0.8937,0.8937,0.8937,0.8937,0.8937,0.8875,0.8789,0.8222,0.7858,0.7584,0.729,0.7174,0.7172,0.7177,0.7193,0.7204,0.7202,0.6533,0.5146,0.4196,0.2516,0.0,0.0,0.0,0.0,0.0,0.0,0.0,0.0,0.0,0.0,0.0,0.0,0.0,0.0,0.0,0.0,0.0,0.0,0.0,0.0,0.0,0.0,-0.1965,-0.3175,-0.3374,-0.5229,-0.6387,-0.6437,-0.6889,-0.7188,-0.7288,-0.769,-0.7988,-0.7988,-0.7988,-0.7988,-0.7988,-0.7988,-0.7988,-0.7988,-0.7988,-0.7988,-0.7988,-0.7988,-0.7988,-0.8088,-0.9023,-0.9706,-0.9756,-1.1799,-1.2974,-1.3366,-1.4244,-1.5022,-1.5404,-1.5499,-1.5588,-1.5737,-1.5784,-1.5825,-1.5825,-1.5825,-1.5825,-1.5825,-1.5825,-1.5825,-1.5825,-1.5825,-1.5825,-1.5879,-1.6028,-1.6224,-1.673,-1.7419,-1.8611,-1.9795,-2.106,-2.2094,-2.2775,-2.3101,-2.3101,-2.3101,-2.3144,-2.3232,-2.3363,-2.3624,-2.3851,0.9164,0.9076,0.9076,0.9025,0.8885,0.8937,0.8937,0.8937,0.8937,0.8937,0.8937,0.8937,0.8937,0.8881,0.8269,0.7934,0.7826,0.7379,0.721,0.721,0.721,0.721,0.721,0.721,0.6596,0.5483,0.4923,0.3525,0.1288,0.0392,0.0,0.0,0.0,0.0,0.0,0.0,0.0,0.0,0.0,0.0,0.0,0.0,0.0,0.0,0.0,0.0,0.0,0.0,0.0,0.0,-0.1412,-0.2469,-0.3324,-0.5231,-0.6387,-0.6437,-0.6739,-0.7039,-0.7238,-0.7543,-0.7793,-0.7988,-0.7988,-0.7988,-0.7988,-0.7988,-0.7988,-0.7988,-0.7988,-0.7988,-0.7988,-0.7988,-0.7988,-0.8137,-0.892,-0.9558,-0.985,-1.0925,-1.1901,-1.2047,-1.3022,-1.4148,-1.4975,-1.5404,-1.5547,-1.5588,-1.5737,-1.5784,-1.5825,-1.5825,-1.5784,-1.5825,-1.5825,-1.5825,-1.5825,-1.5825,-1.5825,-1.5832,-1.5927,-1.6076,-1.64,-1.7091,-1.8195,-1.943,-2.0602,-2.1774,-2.2589,-2.3101,-2.3101,-2.3101,-2.3101,-2.3144,-2.3232,-2.3493,-2.3634,0.9323,0.9292,0.9282,0.9171,0.9086,0.9083,0.9052,0.9015,0.9008,0.8981,0.8888,0.8937,0.8937,0.8826,0.8269,0.7992,0.7934,0.7432,0.721,0.721,0.721,0.721,0.721,0.721,0.6763,0.5929,0.5146,0.3747,0.1847,0.056,0.0,0.0,0.0,0.0,0.0,0.0,0.0,0.0,0.0,0.0,0.0,0.0,0.0,0.0,0.0,0.0,0.0,0.0,0.0,0.0,-0.1009,-0.2217,-0.3676,-0.5434,-0.6387,-0.6437,-0.6642,-0.6845,-0.7092,-0.7394,-0.7693,-0.7842,-0.7942,-0.7988,-0.7988,-0.7988,-0.7988,-0.7988,-0.7988,-0.7988,-0.7988,-0.7988,-0.7988,-0.8088,-0.8676,-0.9069,-0.9167,-0.9993,-1.0779,-1.1272,-1.195,-1.3022,-1.4148,-1.4532,-1.4867,-1.5255,-1.5499,-1.5594,-1.5683,-1.5683,-1.5737,-1.5784,-1.5825,-1.5825,-1.5825,-1.5825,-1.5825,-1.5825,-1.5832,-1.5927,-1.6163,-1.6857,-1.7684,-1.8964,-2.0232,-2.1454,-2.2315,-2.2916,-2.3101,-2.3101,-2.3101,-2.3144,-2.3232,-2.3319,-2.346,0.9391,0.9381,0.9384,0.9371,0.9344,0.9337,0.934,0.9224,0.921,0.9089,0.9005,0.8967,0.8932,0.8794,0.836,0.8057,0.7952,0.7496,0.721,0.721,0.721,0.721,0.721,0.721,0.7154,0.6932,0.4808,0.3132,0.1959,0.084,0.0,0.0,0.0,0.0,0.0,0.0,0.0,0.0,0.0,0.0,0.0,0.0,0.0,0.0,0.0,0.0,0.0,0.0,0.0,0.0,-0.0958,-0.2569,-0.428,-0.5634,-0.6337,-0.6437,-0.6642,-0.6795,-0.6842,-0.7247,-0.7543,-0.7693,-0.7842,-0.7992,-0.7988,-0.7988,-0.7988,-0.7988,-0.7988,-0.7988,-0.7988,-0.7988,-0.7988,-0.7988,-0.8187,-0.8187,-0.8333,-0.897,-0.9998,-1.0832,-1.1219,-1.1755,-1.2684,-1.3167,-1.3607,-1.4586,-1.4933,-1.5124,-1.5397,-1.5499,-1.5588,-1.5737,-1.5784,-1.5825,-1.5825,-1.5825,-1.5825,-1.5825,-1.5825,-1.5872,-1.5927,-1.6393,-1.699,-1.8187,-1.9914,-2.1132,-2.2129,-2.2677,-2.3047,-2.3101,-2.3101,-2.3101,-2.3188,-2.3276,-2.3363,0.9625,0.954,0.954,0.9473,0.9388,0.9381,0.9351,0.9371,0.9367,0.934,0.9249,0.9245,0.9245,0.9101,0.8684,0.8354,0.8179,0.7706,0.7382,0.7218,0.7213,0.721,0.721,0.721,0.721,0.6932,0.559,0.4196,0.3022,0.1791,0.084,0.0,0.0,0.0,0.0,0.0,0.0,0.0,0.0,0.0,0.0,0.0,0.0,0.0,0.0,0.0,0.0,0.0,0.0,0.0,-0.0303,-0.1462,-0.3425,-0.4732,-0.5636,-0.6287,-0.6489,-0.6642,-0.6795,-0.6945,-0.7244,-0.7497,-0.7693,-0.7793,-0.7988,-0.7988,-0.7988,-0.7988,-0.7988,-0.7988,-0.7988,-0.7988,-0.7988,-0.7988,-0.7988,-0.7988,-0.8038,-0.8333,-0.8973,-0.9854,-1.0096,-1.0583,-1.1507,-1.1901,-1.249,-1.3511,-1.3908,-1.4244,-1.4975,-1.5309,-1.5499,-1.5594,-1.5683,-1.5778,-1.573,-1.573,-1.5778,-1.5778,-1.5825,-1.5825,-1.5832,-1.5974,-1.6574,-1.7584,-1.9322,-2.0683,-2.1676,-2.2359,-2.2677,-2.3047,-2.3101,-2.3101,-2.3101,-2.3188,-2.3276,0.9768,0.9693,0.969,0.9635,0.9547,0.9544,0.9513,0.9473,0.9466,0.9435,0.9388,0.9378,0.9381,0.9303,0.8935,0.8612,0.8314,0.7948,0.7573,0.7325,0.7237,0.7213,0.721,0.721,0.721,0.6988,0.5984,0.5035,0.4196,0.2629,0.14,0.0728,0.0224,0.0,0.0,0.0,0.0,0.0,0.0,0.0,0.0,0.0,0.0,0.0,0.0,0.0,0.0,0.0,0.0,0.0,-0.0353,-0.1261,-0.2569,-0.3979,-0.5135,-0.5687,-0.6187,-0.6489,-0.6642,-0.6742,-0.6945,-0.7244,-0.7394,-0.759,-0.7789,-0.7839,-0.7889,-0.7988,-0.7988,-0.7988,-0.7988,-0.7988,-0.7988,-0.7988,-0.7988,-0.7988,-0.7988,-0.7988,-0.8237,-0.8874,-0.897,-0.9562,-1.0342,-1.073,-1.1268,-1.2193,-1.2877,-1.3366,-1.4244,-1.4819,-1.5064,-1.5309,-1.541,-1.5499,-1.5642,-1.5683,-1.573,-1.5778,-1.5825,-1.5825,-1.5825,-1.5872,-1.6244,-1.7264,-1.8772,-1.9951,-2.0944,-2.1712,-2.2217,-2.2589,-2.2916,-2.3101,-2.3101,-2.3101,-2.3188,0.9819,0.9819,0.9819,0.9808,0.9798,0.9795,0.9724,0.9632,0.9622,0.9554,0.9445,0.9449,0.9432,0.936,0.9124,0.8813,0.8448,0.8188,0.7826,0.7547,0.7363,0.7254,0.7215,0.721,0.721,0.7043,0.6096,0.5483,0.5093,0.3357,0.1903,0.1568,0.0,0.0,0.0,0.0,0.0,0.0,0.0,0.0,0.0,0.0,0.0,0.0,0.0,0.0,0.0,0.0,0.0,0.0,-0.0807,-0.1311,-0.1966,-0.3577,-0.4431,-0.4832,-0.5784,-0.6234,-0.6387,-0.6592,-0.6795,-0.6895,-0.7092,-0.7288,-0.7543,-0.7643,-0.7746,-0.7892,-0.7988,-0.7988,-0.7988,-0.7988,-0.7988,-0.7988,-0.7988,-0.7988,-0.7988,-0.7988,-0.8088,-0.8088,-0.8088,-0.8382,-0.941,-0.9509,-1.0047,-1.0925,-1.1848,-1.2387,-1.3264,-1.395,-1.464,-1.4933,-1.5124,-1.5267,-1.5404,-1.5452,-1.5499,-1.5683,-1.573,-1.573,-1.5778,-1.5825,-1.5872,-1.6936,-1.7956,-1.9131,-2.0042,-2.0674,-2.14,-2.1872,-2.2325,-2.2828,-2.3003,-2.2916,-2.3047,0.9819,0.9819,0.9819,0.9819,0.9819,0.9819,0.9802,0.9764,0.9761,0.973,0.97,0.9707,0.969,0.969,0.9473,0.9252,0.8931,0.8497,0.8151,0.7854,0.758,0.7309,0.724,0.7213,0.7213,0.7099,0.6821,0.6262,0.5427,0.4643,0.3469,0.1847,0.1456,0.084,0.0,0.0,0.0,0.0,0.0,0.0,0.0,0.0,0.0,0.0,0.0,0.0,0.0,0.0,0.0,0.0,-0.0202,-0.0808,-0.1513,-0.2217,-0.3224,-0.4481,-0.4985,-0.5586,-0.6187,-0.6437,-0.6589,-0.6795,-0.6845,-0.7042,-0.7288,-0.749,-0.7593,-0.7743,-0.7842,-0.7988,-0.7988,-0.7988,-0.7988,-0.7988,-0.7988,-0.7988,-0.7988,-0.7988,-0.7988,-0.7988,-0.7988,-0.8184,-0.8382,-0.8577,-0.8924,-0.9801,-1.0435,-1.1023,-1.2145,-1.3022,-1.3613,-1.4544,-1.4933,-1.5077,-1.5172,-1.5172,-1.5267,-1.5493,-1.5588,-1.5635,-1.573,-1.5825,-1.5872,-1.6244,-1.7124,-1.8218,-1.8772,-1.9322,-2.0104,-2.1015,-2.1516,-2.1971,-2.2325,-2.2413,-2.2828,0.9819,0.9819,0.9819,0.9819,0.9819,0.9819,0.9819,0.9819,0.9819,0.9819,0.9819,0.9819,0.9819,0.9808,0.9734,0.9516,0.9197,0.8947,0.8563,0.8135,0.7794,0.7459,0.7285,0.723,0.7206,0.721,0.7213,0.6818,0.6151,0.5706,0.4308,0.2797,0.2015,0.1176,0.0,0.0,0.0,0.0,0.0,0.0,0.0,0.0,0.0,0.0,0.0,0.0,0.0,0.0,0.0,0.0,0.0,-0.0303,-0.0858,-0.1412,-0.2167,-0.3475,-0.3828,-0.4582,-0.5484,-0.5734,-0.6037,-0.6489,-0.6642,-0.6792,-0.6989,-0.7191,-0.7297,-0.7596,-0.7643,-0.7789,-0.7939,-0.7988,-0.7988,-0.7988,-0.7988,-0.7988,-0.7988,-0.7988,-0.7988,-0.7988,-0.7988,-0.7988,-0.7988,-0.7988,-0.8283,-0.8874,-0.946,-1.0194,-1.1072,-1.1853,-1.2732,-1.3709,-1.4298,-1.4394,-1.4783,-1.4933,-1.5029,-1.5261,-1.5493,-1.554,-1.5683,-1.5778,-1.5825,-1.6015,-1.6574,-1.7131,-1.777,-1.8373,-1.9147,-1.9923,-2.052,-2.097,-2.1284,-2.1819,-2.2325,0.9819,0.9819,0.9819,0.9819,0.9819,0.9819,0.9819,0.9819,0.9819,0.9819,0.9819,0.9819,0.9819,0.9819,0.9802,0.9633,0.9387,0.9236,0.8888,0.8487,0.8053,0.7715,0.7473,0.7364,0.7296,0.7209,0.7235,0.7168,0.6826,0.604,0.4866,0.3579,0.2463,0.1288,0.0,0.0,0.0,0.0,0.0,0.0,0.0,0.0,0.0,0.0,0.0,0.0,0.0,0.0,0.0,0.0,0.0,0.0,0.0,-0.0958,-0.1513,-0.1865,-0.267,-0.3525,-0.4634,-0.4983,-0.5334,-0.6187,-0.6437,-0.6489,-0.6742,-0.6845,-0.7045,-0.7397,-0.7291,-0.749,-0.7839,-0.7939,-0.7942,-0.7988,-0.7988,-0.7988,-0.7988,-0.7988,-0.7988,-0.7988,-0.7988,-0.7988,-0.7988,-0.7988,-0.8038,-0.8336,-0.8825,-0.941,-1.0288,-1.1121,-1.1999,-1.2877,-1.3318,-1.3607,-1.41,-1.464,-1.4838,-1.5029,-1.5267,-1.5452,-1.5642,-1.5737,-1.5778,-1.6015,-1.6292,-1.6669,-1.7084,-1.7731,-1.828,-1.8788,-1.9293,-1.9695,-2.0104,-2.0917,-2.1507,0.9819,0.9819,0.9819,0.9819,0.9819,0.9819,0.9819,0.9819,0.9819,0.9819,0.9819,0.9819,0.9819,0.9819,0.9819,0.9758,0.964,0.9396,0.9095,0.879,0.841,0.8185,0.7915,0.7652,0.7415,0.7323,0.7296,0.7247,0.707,0.6715,0.5701,0.3804,0.3356,0.2126,0.0,0.0,0.0,0.0,0.0,0.0,0.0,0.0,0.0,0.0,0.0,0.0,0.0,0.0,0.0,0.0,0.0,0.0,0.0,0.0,-0.0757,-0.1362,-0.1765,-0.2771,-0.4282,-0.4682,-0.5236,-0.6084,-0.6237,-0.6387,-0.6489,-0.6692,-0.6845,-0.6995,-0.7092,-0.7288,-0.7593,-0.7696,-0.7793,-0.7892,-0.7988,-0.7988,-0.7988,-0.7988,-0.7988,-0.7988,-0.7988,-0.7988,-0.7988,-0.7988,-0.7988,-0.8041,-0.8333,-0.8775,-0.9509,-1.0342,-1.1072,-1.1853,-1.2387,-1.2775,-1.3709,-1.4298,-1.4592,-1.479,-1.5029,-1.522,-1.5404,-1.5689,-1.573,-1.5778,-1.5872,-1.6244,-1.6622,-1.6629,-1.7044,-1.7598,-1.811,-1.8511,-1.9055,-1.9914,-2.0503,0.9819,0.9819,0.9819,0.9819,0.9819,0.9819,0.9819,0.9819,0.9819,0.9819,0.9819,0.9819,0.9819,0.9819,0.9819,0.9819,0.97,0.9457,0.9156,0.8854,0.8546,0.8268,0.8035,0.7823,0.76,0.7385,0.7298,0.7293,0.7241,0.7073,0.6262,0.4587,0.4418,0.3134,0.1176,0.0784,0.0,0.0,0.0,0.0,0.0,0.0,0.0,0.0,0.0,0.0,0.0,0.0,0.0,0.0,0.0,0.0,0.0,0.0,0.0,-0.0707,-0.0858,-0.1563,-0.2871,-0.3425,-0.3927,-0.5534,-0.5634,-0.5984,-0.6237,-0.6539,-0.6692,-0.6792,-0.6839,-0.6939,-0.7194,-0.7394,-0.7543,-0.7743,-0.7846,-0.7892,-0.7942,-0.7988,-0.7988,-0.7988,-0.7988,-0.7988,-0.7988,-0.7939,-0.7988,-0.7992,-0.7988,-0.8379,-0.8382,-0.9167,-0.985,-1.0583,-1.1317,-1.2096,-1.3173,-1.3854,-1.434,-1.4538,-1.4736,-1.4879,-1.5022,-1.5356,-1.5683,-1.573,-1.5778,-1.5825,-1.6062,-1.6028,-1.6123,-1.6636,-1.7185,-1.7458,-1.7917,-1.8588,-1.9055,0.9819,0.9819,0.9819,0.9819,0.9819,0.9819,0.9819,0.9819,0.9819,0.9819,0.9819,0.9819,0.9819,0.9819,0.9819,0.9819,0.9697,0.9579,0.9278,0.9095,0.8793,0.848,0.8216,0.8066,0.7815,0.757,0.7475,0.7402,0.7315,0.7182,0.6517,0.5545,0.5369,0.4085,0.2519,0.1791,0.1288,0.0,0.0,0.0,0.0,0.0,0.0,0.0,0.0,0.0,0.0,0.0,0.0,0.0,0.0,0.0,0.0,0.0,0.0,0.0,0.0,-0.0808,-0.1714,-0.1965,-0.262,-0.4381,-0.4782,-0.5186,-0.5887,-0.6287,-0.6539,-0.6589,-0.6639,-0.6589,-0.6792,-0.6992,-0.7256,-0.7478,-0.7582,-0.7685,-0.7848,-0.7942,-0.7882,-0.7889,-0.7892,-0.7842,-0.7842,-0.7793,-0.7892,-0.7942,-0.7889,-0.7939,-0.7939,-0.8283,-0.9118,-0.9948,-1.0779,-1.1755,-1.2877,-1.3318,-1.3806,-1.4394,-1.4544,-1.464,-1.4736,-1.5022,-1.5356,-1.5635,-1.573,-1.5778,-1.5778,-1.5879,-1.5974,-1.6123,-1.6359,-1.6824,-1.7091,-1.7311,-1.7731,0.9819,0.9819,0.9819,0.9819,0.9819,0.9819,0.9819,0.9819,0.9819,0.9819,0.9819,0.9819,0.9819,0.9819,0.9819,0.9819,0.9758,0.97,0.964,0.9518,0.9217,0.8912,0.8671,0.8424,0.8143,0.7859,0.7741,0.7538,0.7325,0.7196,0.6674,0.5665,0.5481,0.4643,0.3469,0.2407,0.1848,0.1176,0.0,0.0,0.0,0.0,0.0,0.0,0.0,0.0,0.0,0.0,0.0,0.0,0.0,0.0,0.0,0.0,0.0,0.0,0.0,-0.0454,-0.1211,-0.1563,-0.2217,-0.3324,-0.418,-0.4732,-0.5233,-0.5887,-0.6395,-0.6458,-0.6509,-0.6503,-0.6795,-0.6882,-0.7063,-0.7319,-0.7469,-0.75,-0.7613,-0.7628,-0.7579,-0.767,-0.7688,-0.7696,-0.7643,-0.759,-0.759,-0.759,-0.7587,-0.7637,-0.764,-0.8184,-0.897,-0.9752,-1.0534,-1.156,-1.2635,-1.2829,-1.3221,-1.41,-1.4442,-1.449,-1.4586,-1.4736,-1.4975,-1.5309,-1.5588,-1.573,-1.5778,-1.5778,-1.5927,-1.6076,-1.6177,-1.6272,-1.6534,-1.6756,-1.681,0.9819,0.9819,0.9819,0.9819,0.9819,0.9819,0.9819,0.9819,0.9819,0.9819,0.9819,0.9819,0.9819,0.9819,0.9819,0.9819,0.9819,0.9819,0.9697,0.9515,0.9335,0.9156,0.8915,0.8732,0.8488,0.8224,0.8049,0.7847,0.7445,0.7361,0.6938,0.6565,0.6318,0.5704,0.4529,0.3356,0.2463,0.1789,0.0,0.0,0.0,0.0,0.0,0.0,0.0,0.0,0.0,0.0,0.0,0.0,0.0,0.0,0.0,0.0,0.0,0.0,0.0,0.0,0.0,-0.0807,-0.1261,-0.2318,-0.3374,-0.423,-0.4883,-0.5739,-0.6422,-0.6526,-0.6557,-0.6627,-0.6792,-0.6827,-0.6967,-0.7214,-0.7287,-0.7371,-0.7512,-0.7482,-0.7467,-0.7428,-0.7389,-0.7384,-0.7391,-0.7338,-0.7338,-0.7288,-0.7238,-0.7288,-0.7391,-0.7836,-0.8474,-0.8867,-0.9501,-1.0534,-1.1609,-1.2193,-1.2732,-1.3613,-1.4304,-1.4346,-1.449,-1.4592,-1.4736,-1.4975,-1.5261,-1.554,-1.5683,-1.5689,-1.5832,-1.5981,-1.5974,-1.6021,-1.6109,-1.6204,-1.6305,0.9819,0.9819,0.9819,0.9819,0.9819,0.9819,0.9819,0.9819,0.9819,0.9819,0.9819,0.9819,0.9819,0.9819,0.9819,0.9819,0.9819,0.9819,0.9636,0.9515,0.9457,0.9278,0.9034,0.8912,0.879,0.8549,0.8477,0.8188,0.7632,0.7442,0.7315,0.711,0.7126,0.6821,0.5704,0.4585,0.3356,0.2174,0.0997,0.033,0.0,0.0,0.0,0.0,0.0,0.0,0.0,0.0,0.0,0.0,0.0,0.0,0.0,0.0,0.0,0.0,0.0,0.0,0.0,0.0,-0.0505,-0.1261,-0.252,-0.3533,-0.457,-0.556,-0.6567,-0.6651,-0.6722,-0.6779,-0.6815,-0.679,-0.6912,-0.7099,-0.7155,-0.7219,-0.7357,-0.7405,-0.7272,-0.7215,-0.7169,-0.7172,-0.7232,-0.706,-0.7024,-0.7039,-0.7039,-0.6989,-0.7042,-0.7141,-0.7534,-0.7733,-0.8273,-0.9304,-1.0333,-1.1414,-1.2145,-1.3119,-1.3859,-1.4208,-1.4352,-1.4448,-1.4592,-1.4736,-1.4975,-1.5261,-1.5404,-1.5594,-1.5689,-1.5784,-1.5778,-1.5825,-1.592,-1.5967,-1.6021,0.9819,0.9819,0.9819,0.9819,0.9819,0.9819,0.9819,0.9819,0.9819,0.9819,0.9819,0.9819,0.9819,0.9819,0.9819,0.9819,0.9819,0.9819,0.9758,0.9697,0.9697,0.9518,0.9278,0.9275,0.9095,0.8854,0.8793,0.8409,0.7849,0.7607,0.7423,0.7309,0.7201,0.7043,0.6654,0.5481,0.4587,0.3412,0.2178,0.0999,0.0,0.0,0.0,0.0,0.0,0.0,0.0,0.0,0.0,0.0,0.0,0.0,0.0,0.0,0.0,0.0,0.0,0.0,0.0,0.0,0.0,0.0,-0.1971,-0.31,-0.4217,-0.5643,-0.6749,-0.6771,-0.6812,-0.6834,-0.6847,-0.6823,-0.6917,-0.6974,-0.7067,-0.7119,-0.7212,-0.7314,-0.7177,-0.7152,-0.7079,-0.7098,-0.7194,-0.6938,-0.6751,-0.6765,-0.678,-0.6788,-0.6745,-0.6851,-0.6942,-0.7238,-0.7434,-0.8368,-0.9304,-1.0333,-1.1463,-1.2533,-1.3221,-1.3871,-1.4214,-1.4304,-1.4352,-1.4496,-1.4736,-1.4927,-1.5022,-1.5213,-1.5452,-1.5588,-1.5635,-1.573,-1.5825,-1.5825,-1.5832,0.9819,0.9819,0.9819,0.9819,0.9819,0.9819,0.9819,0.9819,0.9819,0.9819,0.9819,0.9819,0.9819,0.9819,0.9819,0.9819,0.9819,0.9819,0.9819,0.9819,0.9761,0.97,0.964,0.9579,0.94,0.9217,0.9031,0.8778,0.8233,0.7844,0.7627,0.7339,0.7222,0.721,0.7099,0.5984,0.5258,0.4195,0.2851,0.1228,0.0,0.0,0.0,0.0,0.0,0.0,0.0,0.0,0.0,0.0,0.0,0.0,0.0,0.0,0.0,0.0,0.0,0.0,0.0,0.0,0.0,0.0,-0.1488,-0.2787,-0.4194,-0.576,-0.6851,-0.6907,-0.697,-0.6991,-0.6989,-0.6999,-0.7081,-0.7117,-0.7117,-0.7144,-0.7182,-0.7169,-0.713,-0.7109,-0.7087,-0.7091,-0.7141,-0.6937,-0.6799,-0.681,-0.6823,-0.6781,-0.665,-0.6578,-0.6762,-0.6942,-0.7188,-0.758,-0.8464,-0.9448,-1.0627,-1.1702,-1.2484,-1.313,-1.3919,-1.4166,-1.4208,-1.4304,-1.4442,-1.4592,-1.4694,-1.4981,-1.5261,-1.5404,-1.554,-1.5635,-1.573,-1.5825,-1.5825,0.9819,0.9819,0.9819,0.9819,0.9819,0.9819,0.9819,0.9819,0.9819,0.9819,0.9819,0.9819,0.9819,0.9819,0.9819,0.9819,0.9819,0.9819,0.9819,0.9819,0.9819,0.9758,0.9758,0.9761,0.964,0.9396,0.946,0.9147,0.8715,0.8391,0.8035,0.738,0.7277,0.7251,0.6993,0.6429,0.5761,0.5091,0.2966,0.1456,0.0,0.0,0.0,0.0,0.0,0.0,0.0,0.0,0.0,0.0,0.0,0.0,0.0,0.0,0.0,0.0,0.0,0.0,0.0,0.0,0.0,0.0,-0.1155,-0.2697,-0.4699,-0.6086,-0.6863,-0.6969,-0.7081,-0.7185,-0.7207,-0.7196,-0.7188,-0.7185,-0.7196,-0.7207,-0.7207,-0.7191,-0.7182,-0.7169,-0.7158,-0.7174,-0.7109,-0.7024,-0.6904,-0.6855,-0.6812,-0.6763,-0.6679,-0.6573,-0.6639,-0.6833,-0.6864,-0.7045,-0.754,-0.857,-0.9747,-1.0855,-1.1644,-1.2603,-1.3502,-1.3985,-1.4166,-1.4208,-1.4304,-1.4352,-1.4496,-1.4783,-1.5029,-1.5166,-1.5302,-1.554,-1.5635,-1.573,-1.5825,0.9819,0.9819,0.9819,0.9819,0.9819,0.9819,0.9819,0.9819,0.9819,0.9819,0.9819,0.9819,0.9819,0.9819,0.9819,0.9819,0.9819,0.9819,0.9819,0.9819,0.9819,0.9819,0.9819,0.9758,0.9758,0.9761,0.97,0.9518,0.9246,0.8963,0.8384,0.7619,0.7464,0.7311,0.719,0.6932,0.6207,0.5258,0.3357,0.2071,0.1344,0.0725,0.0,0.0,0.0,0.0,0.0,0.0,0.0,0.0,0.0,0.0,0.0,0.0,0.0,0.0,0.0,0.0,0.0,0.0,0.0,0.0,-0.1184,-0.2547,-0.4302,-0.5141,-0.5961,-0.6787,-0.6811,-0.7041,-0.7099,-0.721,-0.721,-0.721,-0.721,-0.721,-0.721,-0.721,-0.7204,-0.721,-0.721,-0.721,-0.721,-0.7117,-0.7021,-0.6975,-0.6883,-0.6834,-0.6812,-0.6728,-0.6676,-0.6698,-0.667,-0.6723,-0.6679,-0.7575,-0.8693,-0.9862,-1.0857,-1.2126,-1.3348,-1.3725,-1.4165,-1.4166,-1.4256,-1.4256,-1.4346,-1.4592,-1.4783,-1.4879,-1.507,-1.5356,-1.5588,-1.573,-1.5778,1.0122,1.0126,0.9879,0.9819,0.9819,0.9819,0.9819,0.9819,0.9819,0.9819,0.9819,0.9819,0.9819,0.9819,0.9819,0.9819,0.9819,0.9819,0.9819,0.9819,0.9819,0.9819,0.9819,0.9819,0.9819,0.9819,0.9758,0.9636,0.9323,0.9322,0.8807,0.8181,0.7804,0.7441,0.7304,0.7154,0.6485,0.5592,0.4419,0.3469,0.1791,0.14,0.0726,0.0,0.0,0.0,0.0,0.0,0.0,0.0,0.0,0.0,0.0,0.0,0.0,0.0,0.0,0.0,0.0,0.0,0.0,0.0,-0.1098,-0.2215,-0.3373,-0.3792,-0.4808,-0.559,-0.6096,-0.6262,-0.7099,-0.721,-0.721,-0.721,-0.721,-0.721,-0.721,-0.721,-0.721,-0.721,-0.721,-0.721,-0.721,-0.7202,-0.7174,-0.7089,-0.6991,-0.691,-0.6899,-0.6872,-0.6815,-0.6768,-0.6738,-0.6711,-0.6676,-0.7195,-0.7727,-0.8936,-1.0142,-1.1449,-1.2837,-1.3877,-1.4233,-1.42,-1.4256,-1.4346,-1.4389,-1.4418,-1.4496,-1.4688,-1.4981,-1.5315,-1.5553,-1.5737,-1.5778,1.0963,1.0781,1.0179,0.9883,0.9822,0.9819,0.9819,0.9819,0.9819,0.9819,0.9819,0.9819,0.9819,0.9819,0.9819,0.9819,0.9819,0.9819,0.9819,0.9819,0.9819,0.9819,0.9819,0.9819,0.9819,0.9819,0.9758,0.9636,0.9518,0.9454,0.9039,0.8608,0.8232,0.7885,0.7407,0.7154,0.671,0.6096,0.5369,0.4812,0.3022,0.2463,0.1735,0.0839,0.0,0.0,0.0,0.0,0.0,0.0,0.0,0.0,0.0,0.0,0.0,0.0,0.0,0.0,0.0,0.0,0.0,0.0,-0.0611,-0.1341,-0.1959,-0.263,-0.358,-0.4643,-0.4921,-0.5369,-0.6485,-0.6541,-0.6877,-0.6932,-0.7154,-0.721,-0.721,-0.721,-0.721,-0.721,-0.721,-0.721,-0.721,-0.721,-0.7202,-0.7185,-0.7144,-0.7087,-0.7027,-0.6991,-0.6934,-0.6893,-0.6861,-0.6831,-0.6851,-0.7133,-0.7464,-0.8539,-0.9713,-1.0835,-1.2071,-1.3278,-1.4269,-1.4404,-1.4414,-1.4466,-1.4552,-1.4625,-1.4552,-1.455,-1.4885,-1.5226,-1.5499,-1.5683,-1.5778,1.2457,1.2037,1.0902,1.0243,1.0058,0.9822,0.9822,1.0001,1.0001,0.9879,0.9819,0.9819,0.9819,0.9819,0.9819,0.9819,0.9819,0.9819,0.9819,0.9819,0.9819,0.9819,0.9819,0.9819,0.9819,0.9819,0.9758,0.9761,0.9761,0.97,0.935,0.903,0.8654,0.8259,0.7621,0.7324,0.7154,0.6988,0.5984,0.5425,0.4754,0.3917,0.2966,0.1736,0.1456,0.1005,0.0,0.0,0.0,0.0,0.0,0.0,0.0,0.0,0.0,0.0,0.0,0.0,0.0,0.0,0.0,0.0,0.0,-0.0672,-0.1456,-0.1959,-0.2351,-0.3469,-0.3635,-0.4196,-0.4923,-0.5594,-0.6207,-0.6654,-0.6877,-0.721,-0.721,-0.721,-0.721,-0.721,-0.721,-0.721,-0.721,-0.721,-0.721,-0.7207,-0.721,-0.7199,-0.718,-0.7147,-0.7032,-0.701,-0.6975,-0.6956,-0.6921,-0.6858,-0.7296,-0.8286,-0.9238,-1.0253,-1.1483,-1.2792,-1.3642,-1.4326,-1.4598,-1.458,-1.4748,-1.4877,-1.4734,-1.4637,-1.4827,-1.5124,-1.5404,-1.5635,-1.573,1.4187,1.4073,1.3412,1.2933,1.2389,1.0536,1.0243,1.0967,1.1027,1.0607,0.994,0.9819,0.9819,0.9819,0.9819,0.9819,0.9819,0.9819,0.9819,0.9819,0.9819,0.9819,0.9819,0.9819,0.9819,0.9819,0.9819,0.9819,0.9761,0.9819,0.9589,0.9257,0.8822,0.8255,0.768,0.7324,0.721,0.7154,0.6707,0.6262,0.5483,0.4923,0.3916,0.2071,0.2015,0.14,0.028,0.0,0.0,0.0,0.0,0.0,0.0,0.0,0.0,0.0,0.0,0.0,0.0,0.0,0.0,0.0,0.0,0.0,0.0,0.0,-0.1288,-0.2071,-0.2351,-0.3022,-0.3916,-0.4979,-0.565,-0.5984,-0.6374,-0.6988,-0.721,-0.721,-0.721,-0.721,-0.721,-0.721,-0.721,-0.721,-0.721,-0.721,-0.721,-0.721,-0.7196,-0.7196,-0.7166,-0.7163,-0.7147,-0.713,-0.7043,-0.6983,-0.6972,-0.7684,-0.8612,-0.9542,-1.0839,-1.2293,-1.3257,-1.4087,-1.4435,-1.474,-1.4829,-1.4933,-1.4809,-1.4783,-1.4911,-1.5032,-1.5309,-1.5499,-1.5642,1.5854,1.5677,1.5025,1.4604,1.388,1.1675,1.1084,1.1752,1.2169,1.1868,1.1265,1.0725,1.0486,1.0365,1.0004,0.9819,0.9819,0.9819,0.9819,0.9819,0.9819,0.9819,0.9819,0.9819,0.9819,0.9819,0.9819,0.9819,0.9819,0.9819,0.9652,0.9272,0.8851,0.841,0.7961,0.7657,0.7379,0.7324,0.7099,0.6763,0.6262,0.5759,0.5089,0.3748,0.3022,0.2407,0.1176,0.056,0.0392,0.0224,0.0112,0.0112,0.0168,0.0224,0.028,0.0336,0.0,0.0,0.0,0.0,0.0,0.0,0.0056,0.0,0.0,0.0,0.0,-0.0952,0.0,-0.1903,-0.2854,-0.4027,-0.4475,-0.4754,-0.5314,-0.5924,-0.6485,-0.6429,-0.6765,-0.6821,-0.721,-0.721,-0.721,-0.721,-0.721,-0.721,-0.721,-0.721,-0.721,-0.721,-0.721,-0.7207,-0.7204,-0.718,-0.7174,-0.7169,-0.7169,-0.7204,-0.8014,-0.9027,-1.0423,-1.1893,-1.2871,-1.3813,-1.4305,-1.4706,-1.4883,-1.493,-1.4981,-1.4896,-1.4814,-1.4989,-1.521,-1.5356,-1.5499,1.739,1.6915,1.5736,1.5138,1.454,1.3347,1.2397,1.1989,1.3186,1.3665,1.3485,1.2169,1.1752,1.1511,1.0547,1.0061,0.994,0.9879,0.9819,0.9819,0.9819,0.9819,0.9819,0.9819,0.9819,0.9819,0.9819,0.9819,0.9819,0.9778,0.9625,0.9353,0.8977,0.867,0.836,0.7992,0.7715,0.7493,0.7326,0.7099,0.6821,0.6877,0.6096,0.5089,0.4643,0.3636,0.2573,0.1847,0.1176,0.0784,0.0392,0.0448,0.0504,0.0729,0.0841,0.0897,0.0841,0.0785,0.0785,0.0504,0.0392,0.0336,0.0168,0.0,0.0,0.0,0.0,0.0,0.0,0.0,-0.1679,-0.2183,-0.2685,-0.3189,-0.3748,-0.4418,-0.5146,-0.5536,-0.604,-0.6429,-0.6988,-0.7154,-0.721,-0.721,-0.7099,-0.721,-0.721,-0.721,-0.721,-0.721,-0.721,-0.721,-0.721,-0.721,-0.721,-0.721,-0.721,-0.721,-0.7817,-0.8786,-1.0206,-1.1344,-1.2299,-1.324,-1.4148,-1.4708,-1.5007,-1.5203,-1.5281,-1.5167,-1.4994,-1.4937,-1.5179,-1.521,-1.5309,1.8829,1.8648,1.8298,1.7987,1.7566,1.6856,1.5322,1.3485,1.45,1.4619,1.3665,1.3306,1.3126,1.3006,1.1748,1.1265,1.0785,1.0304,0.9879,0.9819,0.9943,0.9819,0.9819,0.9879,0.9819,0.9819,0.9819,0.9819,0.9795,0.9744,0.9602,0.9384,0.9134,0.8984,0.8709,0.8436,0.8048,0.7715,0.7549,0.7379,0.7268,0.7213,0.6487,0.5873,0.5594,0.4529,0.3523,0.3132,0.2406,0.1567,0.1568,0.1457,0.0448,0.0673,0.0897,0.0897,0.0897,0.0897,0.0897,0.0841,0.0673,0.0504,0.0336,0.0168,0.0,0.0,0.0,0.0,0.0,0.0,0.0,-0.1288,-0.1623,-0.2071,-0.263,-0.3301,-0.3916,-0.425,-0.4752,-0.559,-0.6204,-0.6707,-0.6763,-0.6988,-0.6877,-0.7099,-0.721,-0.721,-0.721,-0.721,-0.721,-0.721,-0.721,-0.721,-0.721,-0.721,-0.721,-0.7321,-0.7762,-0.8312,-0.935,-1.0495,-1.1651,-1.2748,-1.384,-1.4696,-1.5293,-1.5405,-1.5404,-1.5453,-1.5339,-1.5206,-1.5085,-1.5124,-1.5236,1.9424,1.9424,1.9424,1.9185,1.8881,1.8648,1.7343,1.586,1.6402,1.6166,1.5397,1.4852,1.455,1.4262,1.3126,1.2169,1.1571,1.1027,1.0425,0.9883,1.0365,1.0122,1.0061,1.0243,1.0243,1.0061,0.9822,0.9819,0.9795,0.9734,0.9608,0.9388,0.9326,0.9127,0.8886,0.8657,0.8436,0.8103,0.7823,0.7601,0.7435,0.7324,0.6765,0.6262,0.6096,0.5367,0.4529,0.4364,0.3692,0.2741,0.2799,0.2408,0.1457,0.1346,0.129,0.129,0.129,0.129,0.129,0.1121,0.0953,0.0785,0.0617,0.0448,0.0224,0.0,0.0,0.0,0.0,0.0,0.0,-0.056,-0.084,-0.1064,-0.1679,-0.2295,-0.2574,-0.2853,-0.3579,-0.4529,-0.52,-0.5759,-0.6149,-0.6374,-0.6765,-0.7043,-0.721,-0.721,-0.721,-0.721,-0.721,-0.721,-0.721,-0.721,-0.721,-0.721,-0.721,-0.721,-0.7321,-0.7928,-0.8699,-0.9578,-1.0726,-1.22,-1.3673,-1.4369,-1.5066,-1.5405,-1.5494,-1.5481,-1.5513,-1.5427,-1.5224,-1.5146,-1.5236,1.9424,1.9424,1.9424,1.9236,1.8939,1.8939,1.8706,1.848,1.8357,1.8246,1.7661,1.6685,1.6037,1.5628,1.4495,1.3361,1.2706,1.2109,1.1205,1.0122,1.1386,1.1325,1.0785,1.097,1.0846,1.0243,0.9822,0.9819,0.9819,0.9768,0.9642,0.9398,0.9367,0.9218,0.8922,0.8885,0.8657,0.8488,0.8211,0.7989,0.7662,0.7551,0.7493,0.7157,0.6932,0.6596,0.5817,0.5371,0.4979,0.4252,0.3917,0.3749,0.2856,0.2297,0.2073,0.1739,0.1683,0.1627,0.157,0.1458,0.1346,0.1177,0.1065,0.0729,0.0448,0.0224,0.0,0.0,0.0,0.0,0.0,0.0,0.0,0.0,0.0,0.0,-0.1512,-0.1903,-0.2686,-0.3525,-0.4139,-0.4697,-0.5089,-0.5256,-0.5367,-0.6316,-0.6877,-0.6821,-0.6932,-0.6932,-0.7099,-0.7099,-0.721,-0.721,-0.721,-0.721,-0.721,-0.721,-0.721,-0.7432,-0.8146,-0.8972,-0.9794,-1.1542,-1.329,-1.4002,-1.46,-1.5041,-1.5363,-1.5524,-1.5558,-1.5537,-1.5445,-1.5305,-1.5282,1.9424,1.9424,1.9424,1.9366,1.9301,1.9301,1.9249,1.9127,1.9127,1.8842,1.8305,1.7948,1.759,1.7062,1.5978,1.496,1.4436,1.3426,1.2406,1.2049,1.259,1.2466,1.1511,1.1808,1.1627,1.1027,1.0486,0.9879,0.9819,0.9785,0.968,0.9422,0.9378,0.9232,0.8981,0.8954,0.8826,0.8768,0.8657,0.8269,0.7773,0.7607,0.7493,0.7324,0.7099,0.7154,0.671,0.6654,0.5984,0.5258,0.5536,0.4866,0.3526,0.3301,0.2688,0.2018,0.1906,0.1906,0.1795,0.1683,0.157,0.1402,0.1177,0.0841,0.0561,0.0392,0.0,0.0,0.0,0.0,0.0,0.0,0.0,0.0,0.0,0.0,0.0,-0.112,-0.1848,-0.2407,-0.3021,-0.3469,-0.3861,-0.4085,-0.4195,-0.4697,-0.5481,-0.5815,-0.6149,-0.6318,-0.6821,-0.6932,-0.7154,-0.721,-0.721,-0.721,-0.721,-0.721,-0.721,-0.7432,-0.7651,-0.8533,-0.9578,-1.1269,-1.2797,-1.3452,-1.411,-1.4821,-1.5143,-1.5351,-1.5595,-1.5629,-1.5674,-1.5548,-1.5506,1.9424,1.9424,1.9424,1.9424,1.9424,1.9424,1.9424,1.9424,1.9424,1.9191,1.8829,1.8655,1.848,1.8194,1.7232,1.6385,1.58,1.4971,1.378,1.3306,1.3605,1.3481,1.3186,1.3006,1.2946,1.2466,1.1269,1.0547,1.0001,0.9802,0.9696,0.9493,0.9418,0.9269,0.9042,0.8984,0.8937,0.8881,0.8937,0.8549,0.7992,0.7937,0.7826,0.7657,0.749,0.7435,0.749,0.749,0.7099,0.6541,0.6538,0.6146,0.514,0.4693,0.3802,0.3023,0.2632,0.2353,0.2018,0.1795,0.1739,0.157,0.1514,0.1234,0.1009,0.0785,0.0448,0.0,0.0,0.0,0.0,0.0,0.0,0.0,0.0,0.0,0.0,-0.0504,-0.084,-0.1008,-0.1567,-0.1959,-0.2351,-0.2798,-0.3076,-0.386,-0.4531,-0.4587,-0.4977,-0.5592,-0.6149,-0.6599,-0.6765,-0.7099,-0.721,-0.721,-0.721,-0.721,-0.721,-0.7321,-0.7543,-0.8371,-0.9416,-1.0613,-1.1705,-1.2743,-1.3457,-1.4218,-1.4821,-1.5143,-1.5464,-1.5713,-1.5719,-1.5759,-1.5734,1.9424,1.9424,1.9424,1.9424,1.9424,1.9424,1.9424,1.9424,1.9424,1.9424,1.9307,1.9068,1.8765,1.848,1.8194,1.7285,1.6573,1.6225,1.5159,1.4674,1.5332,1.4857,1.4679,1.4798,1.4257,1.3301,1.2109,1.1088,1.0304,0.9987,0.9744,0.9605,0.9456,0.9303,0.9214,0.9025,0.8937,0.8937,0.8881,0.8768,0.8598,0.8484,0.8208,0.7989,0.7826,0.7771,0.7826,0.7826,0.7768,0.7657,0.7318,0.6871,0.6424,0.5808,0.4972,0.4137,0.3413,0.2967,0.2409,0.1962,0.185,0.1795,0.1795,0.1683,0.1402,0.1121,0.0785,0.0,0.0,0.0,0.0,0.0,0.0,0.0,0.0,0.0,0.0,0.0,0.0,0.0,0.0,0.0,0.0,0.0,0.0,0.0,-0.3357,-0.3357,-0.3636,-0.4529,-0.52,-0.5815,-0.6207,-0.6543,-0.7043,-0.721,-0.721,-0.721,-0.721,-0.721,-0.7321,-0.7928,-0.8537,-0.9251,-1.0343,-1.1492,-1.2635,-1.3511,-1.411,-1.4821,-1.5309,-1.563,-1.5826,-1.5872,-1.5864,1.9424,1.9424,1.9424,1.9424,1.9424,1.9424,1.9424,1.9424,1.9424,1.9424,1.9366,1.9366,1.9127,1.8823,1.8765,1.8227,1.776,1.742,1.6697,1.5913,1.6526,1.6107,1.5693,1.5693,1.4798,1.3844,1.2766,1.1752,1.1265,1.0475,0.9814,0.9741,0.9583,0.9428,0.9161,0.9042,0.8957,0.8947,0.8937,0.8826,0.8768,0.8598,0.8318,0.81,0.7992,0.7937,0.7992,0.7934,0.7937,0.7989,0.8042,0.7706,0.7318,0.6871,0.6144,0.5196,0.4472,0.3692,0.3135,0.2632,0.2464,0.1851,0.1851,0.185,0.157,0.1346,0.0953,0.0561,0.0,0.0,0.0,0.0,0.0,0.0,0.0,0.0,0.0,0.0,0.0,0.0,0.0,0.0,0.0,0.0,0.0,0.0,0.0,-0.2015,-0.2239,-0.3245,-0.425,-0.4866,-0.5425,-0.6374,-0.6988,-0.7154,-0.721,-0.721,-0.721,-0.721,-0.721,-0.721,-0.7817,-0.8481,-0.9196,-1.0233,-1.1378,-1.258,-1.3673,-1.4385,-1.5095,-1.5583,-1.5785,-1.5873,-1.5925]}]]